[[{"header":{"parameterUnit":"m.s-1","parameterCategory":1,"la1":31.0,"la2":29.5877,"lo1":-88.7671,"lo2":-86.6584,"dy":0.0162,"dx":0.0185,"nx":115,"ny":88,"refTime":"2023-08-03T00:00:00:Z","depth":0,"parameterNumber":2,"parameterNumberName":"U-component_of_WINDS"},"data":[0.0,0.0,0.0,0.0,0.0,0.0,0.0,0.0,0.0,0.0,0.0,0.0,0.0,0.0,0.0,0.0,0.0,0.0,0.0,0.0,0.0,0.0,0.0,0.0,0.0,0.0,0.0,0.0,0.0,0.0,0.0,0.0,0.0,0.0,0.0,0.0,0.0,0.0,0.0,0.0,0.0,0.0,0.0,0.0,0.0,0.0,0.0,0.0,0.0,0.0,0.0,0.0,0.0,0.0,0.0,0.0,0.0,0.0,0.0,0.0,0.0,0.0,0.0,0.0,0.0,0.0,0.0,0.0,0.0,0.0,0.0,0.0,0.0,0.0,0.0,0.0,0.0,0.0,0.0,0.0,0.0,0.0,0.0,0.0,0.0,0.0,0.0,0.0,0.0,0.0,0.0,0.0,0.0,0.0,0.0,0.0,0.0,0.0,0.0,0.0,0.0,0.0,0.0,0.0,0.0,0.0,0.0,0.0,0.0,0.0,0.0,0.0,0.0,0.0,0.0,0.0,0.0,0.0,0.0,0.0,0.0,0.0,0.0,0.0,0.0,0.0,0.0,0.0,0.0,0.0,0.0,0.0,0.0,0.0,0.0,0.0,0.0,0.0,0.0,0.0,0.0,0.0,0.0,0.0,0.0,0.0,0.0,0.0,0.0,0.0,0.0,0.0,0.0,0.0,0.0,0.0,0.0,0.0,0.0,0.0,0.0,0.0,0.0,0.0,0.0,0.0,0.0,0.0,0.0,0.0,0.0,0.0,0.0,0.0,0.0,0.0,0.0,0.0,0.0,0.0,0.0,0.0,0.0,0.0,0.0,0.0,0.0,0.0,0.0,0.0,0.0,0.0,0.0,0.0,0.0,0.0,0.0,0.0,0.0,0.0,0.0,0.0,0.0,0.0,0.0,0.0,0.0,0.0,0.0,0.0,0.0,0.0,0.0,0.0,0.0,0.0,0.0,0.0,0.0,0.0,0.0,0.0,0.0,0.0,0.0,0.0,0.0,0.0,0.0,0.0,0.0,0.0,0.0,0.0,0.0,0.0,0.0,0.0,0.0,0.0,0.0,0.0,0.0,0.0,0.0,0.0,0.0,0.0,0.0,0.0,0.0,0.0,0.0,0.0,0.0,0.0,0.0,0.0,0.0,0.0,0.0,0.0,0.0,0.0,0.0,0.0,0.0,0.0,0.0,0.0,0.0,0.0,0.0,0.0,0.0,0.0,0.0,0.0,0.0,0.0,0.0,0.0,0.0,0.0,0.0,0.0,0.0,0.0,0.0,0.0,0.0,0.0,0.0,0.0,0.0,0.0,0.0,0.0,0.0,0.0,0.0,0.0,0.0,0.0,0.0,0.0,0.0,0.0,0.0,0.0,0.0,0.0,0.0,0.0,0.0,0.0,0.0,0.0,0.0,0.0,0.0,0.0,0.0,0.0,0.0,0.0,0.0,0.0,0.0,0.0,0.0,0.0,0.0,0.0,0.0,0.0,0.0,0.0,0.0,0.0,0.0,0.0,0.0,0.0,0.0,0.0,0.0,0.0,0.0,0.0,0.0,0.0,0.0,0.0,0.0,0.0,0.0,0.0,0.0,0.0,0.0,0.0,0.0,0.0,0.0,0.0,0.0,0.0,0.0,0.0,0.0,0.0,0.0,0.0,0.0,0.0,0.0,0.0,0.0,0.0,0.0,0.0,0.0,0.0,0.0,0.0,0.0,0.0,0.0,0.0,0.0,0.0,0.0,0.0,0.0,0.0,0.0,0.0,0.0,0.0,0.0,0.0,0.0,0.0,0.0,0.0,0.0,0.0,0.0,0.0,0.0,0.0,0.0,0.0,0.0,0.0,0.0,0.0,0.0,0.0,0.0,0.0,0.0,0.0,0.0,0.0,0.0,0.0,0.0,0.0,0.0,0.0,0.0,0.0,0.0,0.0,0.0,0.0,0.0,0.0,0.0,0.0,0.0,0.0,0.0,0.0,0.0,0.0,0.0,0.0,0.0,0.0,0.0,0.0,0.0,0.0,0.0,0.0,0.0,0.0,0.0,0.0,0.0,0.0,0.0,0.0,0.0,0.0,0.0,0.0,0.0,0.0,0.0,0.0,0.0,0.0,0.0,0.0,0.0,0.0,0.0,0.0,0.0,0.0,0.0,0.0,0.0,0.0,0.0,0.0,0.0,0.0,0.0,0.0,0.0,0.0,0.0,0.0,0.0,0.0,0.0,0.0,0.0,0.0,0.0,0.0,0.0,0.0,0.0,0.0,0.0,0.0,0.0,0.0,0.0,0.0,0.0,0.0,0.0,0.0,0.0,0.0,0.0,0.0,0.0,0.0,0.0,0.0,0.0,0.0,0.0,0.0,0.0,0.0,0.0,0.0,0.0,0.0,0.0,0.0,0.0,0.0,0.0,0.0,0.0,0.0,0.0,0.0,0.0,0.0,0.0,0.0,0.0,0.0,0.0,0.0,0.0,0.0,0.0,0.0,0.0,0.0,0.0,0.0,0.0,0.0,0.0,0.0,0.0,0.0,0.0,0.0,0.0,0.0,0.0,0.0,0.0,0.0,0.0,0.0,0.0,0.0,0.0,0.0,0.0,0.0,0.0,0.0,0.0,0.0,0.0,0.0,0.0,0.0,0.0,0.0,0.0,0.0,0.0,0.0,0.0,0.0,0.0,0.0,0.0,0.0,0.0,0.0,0.0,0.0,0.0,0.0,0.0,0.0,0.0,0.0,0.0,0.0,0.0,0.0,0.0,0.0,0.0,0.0,0.0,0.0,0.0,0.0,0.0,0.0,0.0,0.0,0.0,0.0,0.0,0.0,0.0,0.0,0.0,0.0,0.0,0.0,0.0,0.0,0.0,0.0,0.0,0.0,0.0,0.0,0.0,0.0,0.0,0.0,0.0,0.0,0.0,0.0,0.0,0.0,0.0,0.0,0.0,0.0,0.0,0.0,0.0,0.0,0.0,0.0,0.0,0.0,0.0,0.0,0.0,0.0,0.0,0.0,0.0,0.0,0.0,0.0,0.0,0.0,0.0,0.0,0.0,0.0,0.0,0.0,0.0,0.0,0.0,0.0,0.0,0.0,0.0,0.0,0.0,0.0,0.0,0.0,0.0,0.0,0.0,0.0,0.0,0.0,0.0,0.0,0.0,0.0,0.0,0.0,0.0,0.0,0.0,0.0,0.0,0.0,0.0,0.0,0.0,0.0,0.0,0.0,0.0,0.0,0.0,0.0,0.0,0.0,0.0,0.0,0.0,0.0,0.0,0.0,0.0,0.0,0.0,0.0,0.0,0.0,0.0,0.0,0.0,0.0,0.0,0.0,0.0,0.0,0.0,0.0,0.0,0.0,0.0,0.0,0.0,0.0,0.0,0.0,0.0,0.0,0.0,0.0,0.0,0.0,0.0,0.0,0.0,0.0,0.0,0.0,0.0,0.0,0.0,0.0,0.0,0.0,0.0,0.0,0.0,0.0,0.0,0.0,0.0,0.0,0.0,0.0,0.0,0.0,0.0,0.0,0.0,0.0,0.0,0.0,0.0,0.0,0.0,0.0,0.0,0.0,0.0,0.0,0.0,0.0,0.0,0.0,0.0,0.0,0.0,0.0,0.0,0.0,0.0,0.0,0.0,0.0,0.0,0.0,0.0,0.0,0.0,0.0,0.0,0.0,0.0,0.0,0.0,0.0,0.0,0.0,0.0,0.0,0.0,0.0,0.0,0.0,0.0,0.0,0.0,0.0,0.0,0.0,0.0,0.0,0.0,0.0,0.0,0.0,0.0,0.0,0.0,0.0,0.0,0.0,0.0,0.0,0.0,0.0,0.0,0.0,0.0,0.0,0.0,0.0,0.0,0.0,0.0,0.0,0.0,0.0,0.0,0.0,0.0,0.0,0.0,0.0,0.0,0.0,0.0,0.0,0.0,0.0,0.0,0.0,0.0,0.0,0.0,0.0,0.0,0.0,0.0,0.0,0.0,0.0,0.0,0.0,0.0,0.0,0.0,0.0,0.0,0.0,0.0,0.0,0.0,0.0,0.0,0.0,0.0,0.0,0.0,0.0,0.0,0.0,0.0,0.0,0.0,0.0,0.0,0.0,0.0,0.0,0.0,0.0,0.0,0.0,0.0,0.0,0.0,0.0,0.0,0.0,0.0,0.0,0.0,0.0,0.0,0.0,0.0,0.0,0.0,0.0,0.0,0.0,0.0,0.0,0.0,0.0,0.0,0.0,0.0,0.0,0.0,0.0,0.0,0.0,0.0,0.0,0.0,0.0,0.0,0.0,-2.5507,0.0,0.0,0.0,0.0,0.0,0.0,0.0,0.0,0.0,0.0,0.0,0.0,0.0,0.0,0.0,0.0,0.0,0.0,0.0,0.0,0.0,0.0,0.0,0.0,0.0,0.0,0.0,0.0,0.0,0.0,0.0,0.0,0.0,0.0,0.0,0.0,0.0,0.0,0.0,0.0,0.0,0.0,0.0,0.0,0.0,0.0,0.0,0.0,0.0,0.0,0.0,0.0,0.0,0.0,0.0,0.0,0.0,0.0,0.0,0.0,0.0,0.0,0.0,0.0,0.0,0.0,0.0,0.0,0.0,0.0,0.0,0.0,0.0,0.0,0.0,0.0,0.0,0.0,0.0,0.0,0.0,0.0,0.0,0.0,0.0,0.0,0.0,0.0,0.0,0.0,0.0,0.0,0.0,0.0,0.0,0.0,0.0,0.0,0.0,0.0,0.0,0.0,0.0,0.0,0.0,0.0,0.0,0.0,0.0,0.0,-2.942,-2.8991,-2.7908,-2.6785,-2.5644,0.0,0.0,0.0,0.0,0.0,0.0,0.0,0.0,0.0,0.0,0.0,0.0,0.0,0.0,0.0,0.0,0.0,0.0,0.0,0.0,0.0,0.0,0.0,0.0,0.0,0.0,0.0,0.0,0.0,0.0,0.0,0.0,0.0,0.0,0.0,0.0,0.0,0.0,0.0,0.0,0.0,0.0,0.0,0.0,0.0,0.0,0.0,0.0,0.0,0.0,0.0,0.0,0.0,0.0,0.0,0.0,0.0,0.0,0.0,0.0,0.0,0.0,0.0,0.0,0.0,0.0,0.0,0.0,0.0,0.0,0.0,0.0,0.0,0.0,0.0,0.0,0.0,0.0,0.0,0.0,0.0,0.0,0.0,0.0,0.0,0.0,0.0,0.0,0.0,0.0,0.0,0.0,0.0,0.0,0.0,0.0,0.0,0.0,0.0,0.0,0.0,0.0,0.0,0.0,0.0,0.0,0.0,0.0,0.0,0.0,0.0,0.0,-2.7948,-2.6875,-2.5897,0.0,0.0,0.0,0.0,0.0,0.0,0.0,0.0,0.0,0.0,0.0,0.0,0.0,0.0,0.0,0.0,0.0,0.0,0.0,0.0,0.0,0.0,0.0,0.0,0.0,0.0,0.0,0.0,0.0,0.0,0.0,0.0,0.0,0.0,0.0,0.0,0.0,0.0,0.0,0.0,0.0,0.0,0.0,0.0,0.0,0.0,0.0,0.0,0.0,0.0,0.0,0.0,0.0,0.0,0.0,0.0,0.0,0.0,0.0,0.0,0.0,0.0,0.0,0.0,0.0,0.0,0.0,0.0,0.0,0.0,0.0,0.0,0.0,0.0,0.0,0.0,0.0,0.0,0.0,0.0,0.0,0.0,0.0,0.0,0.0,0.0,0.0,0.0,0.0,0.0,0.0,0.0,0.0,0.0,0.0,0.0,0.0,0.0,0.0,0.0,0.0,0.0,0.0,0.0,0.0,0.0,0.0,0.0,0.0,0.0,-2.9812,-2.9025,-2.887,0.0,-2.6725,0.0,0.0,0.0,0.0,0.0,0.0,0.0,0.0,0.0,0.0,0.0,0.0,0.0,0.0,0.0,0.0,0.0,0.0,0.0,0.0,0.0,0.0,0.0,0.0,0.0,0.0,0.0,0.0,0.0,0.0,0.0,0.0,0.0,0.0,0.0,0.0,0.0,0.0,0.0,0.0,0.0,0.0,0.0,0.0,0.0,0.0,0.0,0.0,0.0,0.0,0.0,0.0,0.0,0.0,0.0,0.0,0.0,0.0,0.0,0.0,0.0,0.0,0.0,0.0,0.0,0.0,0.0,0.0,0.0,0.0,0.0,0.0,0.0,0.0,0.0,0.0,0.0,0.0,0.0,0.0,0.0,0.0,0.0,0.0,0.0,0.0,0.0,0.0,0.0,0.0,0.0,0.0,0.0,0.0,0.0,0.0,0.0,0.0,0.0,0.0,0.0,0.0,0.0,0.0,0.0,0.0,0.0,0.0,0.0,0.0,-2.903,-2.8576,-2.7781,-2.6864,0.0,0.0,0.0,0.0,0.0,0.0,0.0,0.0,0.0,0.0,0.0,0.0,0.0,0.0,0.0,0.0,0.0,0.0,0.0,0.0,0.0,0.0,0.0,0.0,0.0,0.0,0.0,0.0,0.0,0.0,0.0,0.0,0.0,0.0,0.0,0.0,0.0,0.0,0.0,0.0,0.0,0.0,0.0,0.0,0.0,0.0,0.0,0.0,0.0,0.0,0.0,0.0,0.0,0.0,0.0,0.0,0.0,0.0,0.0,0.0,0.0,0.0,0.0,0.0,0.0,0.0,0.0,0.0,0.0,0.0,0.0,0.0,0.0,0.0,0.0,0.0,0.0,0.0,0.0,0.0,0.0,0.0,0.0,0.0,0.0,0.0,0.0,0.0,0.0,0.0,0.0,0.0,0.0,0.0,0.0,0.0,0.0,0.0,0.0,0.0,0.0,0.0,0.0,0.0,0.0,0.0,0.0,0.0,0.0,0.0,-2.8869,-2.8357,-2.7976,-2.6853,-2.5879,-2.5214,0.0,0.0,0.0,0.0,0.0,0.0,0.0,0.0,0.0,0.0,0.0,0.0,0.0,0.0,0.0,0.0,0.0,0.0,0.0,0.0,0.0,0.0,0.0,0.0,0.0,0.0,0.0,0.0,0.0,0.0,0.0,0.0,0.0,0.0,0.0,0.0,0.0,0.0,0.0,0.0,0.0,0.0,0.0,0.0,0.0,0.0,0.0,0.0,0.0,0.0,0.0,0.0,0.0,0.0,0.0,0.0,0.0,0.0,0.0,0.0,0.0,0.0,0.0,0.0,0.0,0.0,0.0,0.0,0.0,0.0,0.0,0.0,0.0,0.0,0.0,0.0,0.0,0.0,0.0,0.0,0.0,0.0,0.0,0.0,0.0,0.0,0.0,0.0,0.0,0.0,0.0,0.0,0.0,0.0,0.0,0.0,0.0,0.0,0.0,0.0,0.0,0.0,0.0,0.0,0.0,0.0,0.0,0.0,-2.7808,-2.8232,-2.8138,-2.7364,-2.6598,-2.5895,0.0,0.0,0.0,0.0,0.0,0.0,0.0,0.0,0.0,0.0,0.0,0.0,0.0,0.0,0.0,0.0,0.0,0.0,0.0,0.0,0.0,0.0,0.0,0.0,0.0,0.0,0.0,0.0,0.0,0.0,0.0,0.0,0.0,0.0,0.0,0.0,0.0,0.0,0.0,0.0,0.0,0.0,0.0,0.0,0.0,0.0,0.0,0.0,0.0,0.0,0.0,0.0,0.0,0.0,0.0,0.0,0.0,0.0,0.0,0.0,0.0,0.0,0.0,0.0,0.0,0.0,0.0,0.0,0.0,0.0,0.0,0.0,0.0,0.0,0.0,0.0,0.0,0.0,0.0,0.0,0.0,0.0,0.0,0.0,0.0,0.0,0.0,0.0,0.0,0.0,0.0,0.0,0.0,0.0,0.0,0.0,0.0,0.0,0.0,0.0,0.0,0.0,0.0,0.0,0.0,0.0,0.0,0.0,0.0,-2.7669,-2.7846,-2.7567,-2.6873,-2.6198,-2.5479,0.0,0.0,0.0,0.0,0.0,0.0,0.0,0.0,0.0,0.0,0.0,0.0,0.0,0.0,0.0,0.0,0.0,0.0,0.0,0.0,0.0,0.0,0.0,0.0,0.0,0.0,0.0,0.0,0.0,0.0,0.0,0.0,0.0,0.0,0.0,0.0,0.0,0.0,0.0,0.0,0.0,0.0,0.0,0.0,0.0,0.0,0.0,0.0,0.0,0.0,0.0,0.0,0.0,0.0,0.0,0.0,0.0,0.0,0.0,0.0,0.0,0.0,0.0,0.0,0.0,0.0,0.0,0.0,0.0,0.0,0.0,0.0,0.0,0.0,0.0,0.0,0.0,0.0,0.0,0.0,0.0,0.0,0.0,0.0,0.0,0.0,0.0,0.0,0.0,0.0,0.0,0.0,0.0,0.0,0.0,0.0,0.0,0.0,0.0,0.0,0.0,0.0,0.0,0.0,0.0,0.0,0.0,0.0,0.0,-2.7661,0.0,-2.7156,-2.6303,-2.5854,-2.5196,0.0,0.0,0.0,0.0,0.0,0.0,0.0,0.0,0.0,0.0,0.0,0.0,0.0,0.0,0.0,0.0,0.0,0.0,0.0,0.0,0.0,0.0,0.0,0.0,0.0,0.0,0.0,0.0,0.0,0.0,0.0,0.0,0.0,0.0,0.0,0.0,0.0,0.0,0.0,0.0,0.0,0.0,0.0,0.0,0.0,0.0,0.0,0.0,0.0,0.0,0.0,0.0,0.0,0.0,0.0,0.0,0.0,0.0,0.0,0.0,0.0,0.0,0.0,0.0,0.0,0.0,0.0,0.0,0.0,0.0,0.0,0.0,0.0,0.0,0.0,0.0,0.0,0.0,0.0,0.0,0.0,0.0,0.0,0.0,0.0,0.0,0.0,0.0,0.0,0.0,0.0,0.0,0.0,0.0,0.0,0.0,0.0,0.0,0.0,0.0,0.0,0.0,0.0,0.0,0.0,0.0,0.0,0.0,-2.8921,-2.7649,-2.7575,-2.6976,-2.5704,-2.5644,-2.5001,0.0,0.0,0.0,0.0,0.0,0.0,0.0,0.0,0.0,0.0,0.0,0.0,0.0,0.0,0.0,0.0,0.0,0.0,0.0,0.0,0.0,0.0,0.0,0.0,0.0,0.0,0.0,0.0,0.0,0.0,0.0,0.0,0.0,0.0,0.0,0.0,0.0,0.0,0.0,0.0,0.0,0.0,0.0,0.0,0.0,0.0,0.0,0.0,0.0,0.0,0.0,0.0,0.0,0.0,0.0,0.0,0.0,0.0,0.0,0.0,0.0,0.0,0.0,0.0,0.0,0.0,0.0,0.0,0.0,0.0,0.0,0.0,0.0,0.0,0.0,0.0,0.0,0.0,0.0,0.0,0.0,0.0,0.0,0.0,0.0,0.0,0.0,0.0,0.0,0.0,0.0,0.0,0.0,0.0,0.0,0.0,0.0,0.0,0.0,0.0,0.0,0.0,0.0,0.0,0.0,0.0,0.0,0.0,0.0,-2.7604,-2.756,-2.743,-2.6961,-2.6078,-2.5405,0.0,0.0,0.0,0.0,0.0,0.0,0.0,0.0,0.0,0.0,0.0,0.0,0.0,0.0,0.0,0.0,0.0,0.0,0.0,0.0,0.0,0.0,0.0,0.0,0.0,0.0,0.0,0.0,0.0,0.0,0.0,0.0,0.0,0.0,0.0,0.0,0.0,0.0,0.0,0.0,0.0,0.0,0.0,0.0,0.0,0.0,0.0,0.0,0.0,0.0,0.0,0.0,0.0,0.0,0.0,0.0,0.0,0.0,0.0,0.0,0.0,0.0,0.0,0.0,0.0,0.0,0.0,0.0,0.0,0.0,0.0,0.0,0.0,0.0,0.0,0.0,0.0,0.0,0.0,0.0,0.0,0.0,0.0,0.0,0.0,0.0,0.0,0.0,0.0,0.0,0.0,0.0,0.0,0.0,0.0,0.0,0.0,0.0,0.0,0.0,0.0,0.0,0.0,0.0,0.0,0.0,0.0,0.0,0.0,-2.8419,-2.8323,-2.8135,-2.7575,-2.6767,-2.6108,-2.5615,0.0,0.0,0.0,0.0,0.0,0.0,0.0,0.0,0.0,0.0,0.0,0.0,0.0,0.0,0.0,0.0,0.0,0.0,0.0,0.0,0.0,0.0,0.0,0.0,0.0,0.0,0.0,0.0,0.0,0.0,0.0,0.0,0.0,0.0,0.0,0.0,0.0,0.0,0.0,0.0,0.0,0.0,0.0,0.0,0.0,0.0,0.0,0.0,0.0,0.0,0.0,0.0,0.0,0.0,0.0,0.0,0.0,0.0,0.0,0.0,0.0,0.0,0.0,0.0,0.0,0.0,0.0,0.0,0.0,0.0,0.0,0.0,0.0,0.0,0.0,0.0,0.0,0.0,0.0,0.0,0.0,0.0,0.0,0.0,0.0,0.0,0.0,0.0,0.0,0.0,0.0,0.0,0.0,0.0,0.0,0.0,0.0,0.0,0.0,0.0,0.0,0.0,0.0,0.0,0.0,0.0,0.0,0.0,-2.9654,-2.9684,-2.9056,-2.7805,-2.764,-2.6976,0.0,0.0,0.0,0.0,0.0,0.0,0.0,0.0,0.0,0.0,0.0,0.0,0.0,0.0,0.0,0.0,0.0,0.0,0.0,0.0,0.0,0.0,0.0,0.0,0.0,0.0,0.0,0.0,0.0,0.0,0.0,0.0,0.0,0.0,0.0,0.0,0.0,0.0,0.0,0.0,0.0,0.0,0.0,0.0,0.0,0.0,0.0,0.0,0.0,0.0,0.0,0.0,0.0,0.0,0.0,0.0,0.0,0.0,0.0,0.0,0.0,0.0,0.0,0.0,0.0,0.0,0.0,0.0,0.0,0.0,0.0,0.0,0.0,0.0,0.0,0.0,0.0,0.0,0.0,0.0,0.0,0.0,0.0,0.0,0.0,0.0,0.0,0.0,0.0,0.0,0.0,0.0,0.0,0.0,0.0,0.0,0.0,0.0,0.0,0.0,0.0,0.0,0.0,0.0,0.0,0.0,0.0,0.0,0.0,-3.0268,-3.0761,-3.0402,-2.9139,-2.8098,-2.746,0.0,0.0,0.0,0.0,0.0,0.0,0.0,0.0,0.0,0.0,0.0,0.0,0.0,0.0,0.0,0.0,0.0,0.0,0.0,0.0,0.0,0.0,0.0,0.0,0.0,0.0,0.0,0.0,0.0,0.0,0.0,0.0,0.0,0.0,0.0,0.0,0.0,0.0,0.0,0.0,0.0,0.0,0.0,0.0,0.0,0.0,0.0,0.0,0.0,0.0,0.0,0.0,0.0,0.0,0.0,0.0,0.0,0.0,0.0,0.0,0.0,0.0,0.0,0.0,0.0,0.0,0.0,0.0,0.0,0.0,0.0,0.0,0.0,0.0,0.0,0.0,0.0,0.0,0.0,0.0,0.0,0.0,0.0,0.0,0.0,0.0,0.0,0.0,0.0,0.0,0.0,0.0,0.0,0.0,0.0,0.0,0.0,0.0,0.0,0.0,0.0,0.0,0.0,0.0,0.0,0.0,0.0,0.0,-3.0866,-3.0941,-3.133,-3.1108,-3.0417,-2.9355,-2.8427,0.0,0.0,0.0,0.0,0.0,0.0,0.0,0.0,0.0,0.0,0.0,0.0,0.0,0.0,0.0,0.0,0.0,0.0,0.0,0.0,0.0,0.0,0.0,0.0,0.0,0.0,0.0,0.0,0.0,0.0,0.0,0.0,0.0,0.0,0.0,0.0,0.0,0.0,0.0,0.0,0.0,0.0,0.0,0.0,0.0,0.0,0.0,0.0,0.0,0.0,0.0,0.0,0.0,0.0,0.0,0.0,0.0,0.0,0.0,0.0,0.0,0.0,0.0,0.0,0.0,0.0,0.0,0.0,0.0,0.0,0.0,0.0,0.0,0.0,0.0,0.0,0.0,0.0,0.0,0.0,0.0,0.0,0.0,0.0,0.0,0.0,0.0,0.0,0.0,0.0,0.0,0.0,0.0,0.0,0.0,0.0,0.0,0.0,0.0,0.0,0.0,0.0,0.0,0.0,0.0,0.0,0.0,0.0,-3.1989,-3.1424,-3.1467,-3.1482,-3.1379,-3.081,-2.9607,0.0,0.0,0.0,0.0,0.0,0.0,0.0,0.0,0.0,0.0,0.0,0.0,0.0,0.0,0.0,0.0,0.0,0.0,0.0,0.0,0.0,0.0,0.0,0.0,0.0,0.0,0.0,0.0,0.0,0.0,0.0,0.0,0.0,0.0,0.0,0.0,0.0,0.0,0.0,0.0,0.0,0.0,0.0,0.0,0.0,0.0,0.0,0.0,0.0,0.0,0.0,0.0,0.0,0.0,0.0,0.0,0.0,0.0,0.0,0.0,0.0,0.0,0.0,0.0,0.0,0.0,0.0,0.0,0.0,0.0,0.0,0.0,0.0,0.0,0.0,0.0,0.0,0.0,0.0,0.0,0.0,0.0,0.0,0.0,0.0,0.0,0.0,0.0,0.0,0.0,0.0,0.0,0.0,0.0,0.0,0.0,0.0,0.0,0.0,0.0,0.0,0.0,0.0,0.0,0.0,0.0,0.0,0.0,-3.0804,-3.0569,-3.1161,-3.1219,-3.0584,-3.0495,-3.0021,0.0,0.0,0.0,0.0,0.0,0.0,0.0,0.0,0.0,0.0,0.0,0.0,0.0,0.0,0.0,0.0,0.0,0.0,0.0,0.0,0.0,0.0,0.0,0.0,0.0,0.0,0.0,0.0,0.0,0.0,0.0,0.0,0.0,0.0,0.0,0.0,0.0,0.0,0.0,0.0,0.0,0.0,0.0,0.0,0.0,0.0,0.0,0.0,-1.547,0.0,0.0,0.0,0.0,0.0,0.0,0.0,0.0,0.0,0.0,0.0,0.0,0.0,0.0,0.0,0.0,0.0,0.0,0.0,0.0,0.0,0.0,0.0,0.0,0.0,0.0,0.0,0.0,0.0,0.0,0.0,0.0,0.0,0.0,0.0,0.0,0.0,0.0,0.0,0.0,0.0,0.0,0.0,0.0,0.0,0.0,0.0,0.0,0.0,0.0,0.0,0.0,0.0,0.0,0.0,0.0,0.0,0.0,0.0,-3.0733,-3.0315,-3.0703,-3.051,-2.9752,-2.9729,-2.9488,0.0,0.0,0.0,0.0,0.0,0.0,0.0,0.0,0.0,0.0,0.0,0.0,0.0,0.0,0.0,0.0,0.0,0.0,0.0,0.0,0.0,0.0,0.0,0.0,0.0,0.0,0.0,0.0,0.0,0.0,0.0,0.0,0.0,0.0,0.0,0.0,0.0,0.0,0.0,0.0,0.0,0.0,0.0,0.0,0.0,0.0,0.0,0.0,0.0,0.0,0.0,0.0,0.0,0.0,0.0,0.0,0.0,0.0,0.0,0.0,0.0,0.0,0.0,0.0,0.0,0.0,0.0,0.0,0.0,0.0,0.0,0.0,0.0,0.0,0.0,0.0,0.0,0.0,0.0,0.0,0.0,0.0,0.0,0.0,0.0,0.0,0.0,0.0,0.0,0.0,0.0,0.0,0.0,0.0,0.0,0.0,0.0,0.0,0.0,0.0,0.0,0.0,0.0,0.0,0.0,0.0,0.0,-3.0865,-3.0718,-2.995,-3.0025,-2.9704,-2.8812,-2.8812,-2.8579,-2.8133,0.0,0.0,0.0,0.0,0.0,0.0,0.0,0.0,0.0,0.0,0.0,0.0,0.0,0.0,0.0,0.0,0.0,0.0,0.0,0.0,0.0,0.0,0.0,0.0,0.0,0.0,0.0,0.0,0.0,0.0,0.0,0.0,0.0,0.0,0.0,0.0,0.0,0.0,-1.6092,-1.674,0.0,0.0,0.0,0.0,0.0,0.0,0.0,0.0,-1.4707,0.0,0.0,0.0,0.0,0.0,0.0,0.0,0.0,0.0,0.0,0.0,0.0,0.0,0.0,0.0,0.0,0.0,0.0,0.0,0.0,0.0,0.0,0.0,0.0,0.0,0.0,0.0,0.0,0.0,0.0,0.0,0.0,0.0,0.0,0.0,0.0,0.0,0.0,0.0,0.0,0.0,0.0,0.0,0.0,0.0,0.0,0.0,0.0,0.0,0.0,0.0,0.0,0.0,0.0,0.0,0.0,-2.9212,-2.9324,-2.8989,-2.8182,-2.8812,-2.8812,-2.7934,-2.792,-2.788,-2.7761,0.0,0.0,0.0,0.0,0.0,0.0,0.0,0.0,0.0,0.0,0.0,0.0,0.0,0.0,0.0,0.0,0.0,0.0,0.0,0.0,0.0,0.0,0.0,0.0,0.0,0.0,0.0,0.0,0.0,0.0,0.0,0.0,0.0,0.0,0.0,0.0,0.0,0.0,0.0,-1.5505,-1.5609,0.0,0.0,0.0,0.0,0.0,0.0,0.0,0.0,-1.4301,0.0,0.0,0.0,0.0,0.0,0.0,0.0,0.0,0.0,0.0,0.0,0.0,0.0,0.0,0.0,0.0,0.0,0.0,0.0,0.0,0.0,0.0,0.0,0.0,0.0,0.0,0.0,0.0,0.0,0.0,0.0,0.0,0.0,0.0,0.0,0.0,0.0,0.0,0.0,0.0,0.0,0.0,0.0,0.0,0.0,0.0,0.0,0.0,0.0,0.0,0.0,0.0,0.0,0.0,0.0,-2.8989,-2.8989,-2.8556,-2.7736,-2.8117,-2.792,-2.7095,-2.7095,-2.7108,0.0,0.0,0.0,0.0,0.0,0.0,0.0,0.0,0.0,0.0,0.0,0.0,0.0,0.0,0.0,0.0,0.0,0.0,0.0,0.0,0.0,0.0,0.0,0.0,0.0,0.0,0.0,0.0,0.0,0.0,0.0,0.0,0.0,0.0,0.0,0.0,0.0,0.0,0.0,0.0,-1.5186,-1.529,-1.5833,0.0,0.0,0.0,0.0,0.0,0.0,-1.4473,-1.4473,0.0,0.0,0.0,0.0,0.0,0.0,0.0,0.0,0.0,0.0,0.0,0.0,0.0,0.0,0.0,0.0,0.0,0.0,0.0,0.0,0.0,0.0,0.0,0.0,0.0,0.0,0.0,0.0,0.0,0.0,0.0,0.0,0.0,0.0,0.0,0.0,0.0,0.0,0.0,0.0,0.0,0.0,0.0,0.0,0.0,0.0,0.0,0.0,0.0,0.0,0.0,0.0,0.0,0.0,0.0,-2.8492,-2.8492,-2.8182,-2.7484,-2.7484,-2.7162,-2.6533,-2.6521,-2.6521,0.0,0.0,0.0,0.0,0.0,0.0,0.0,0.0,0.0,0.0,0.0,0.0,0.0,0.0,0.0,0.0,0.0,0.0,0.0,0.0,0.0,0.0,0.0,0.0,0.0,0.0,0.0,0.0,0.0,0.0,0.0,0.0,0.0,0.0,0.0,0.0,0.0,0.0,0.0,0.0,0.0,-1.542,-1.542,-1.542,0.0,0.0,0.0,0.0,-1.5039,-1.5039,0.0,0.0,0.0,0.0,0.0,0.0,0.0,0.0,0.0,0.0,0.0,0.0,0.0,0.0,0.0,0.0,0.0,0.0,0.0,0.0,0.0,0.0,0.0,0.0,0.0,0.0,0.0,0.0,0.0,0.0,0.0,0.0,0.0,0.0,0.0,0.0,0.0,0.0,0.0,0.0,0.0,0.0,0.0,0.0,0.0,0.0,0.0,0.0,0.0,0.0,0.0,0.0,0.0,0.0,0.0,0.0,-2.6782,-2.6782,-2.6726,-2.6658,-2.6658,-2.6589,-2.6521,-2.6521,-2.6521,0.0,0.0,0.0,0.0,0.0,0.0,0.0,0.0,0.0,0.0,0.0,0.0,0.0,0.0,0.0,0.0,0.0,0.0,0.0,0.0,0.0,0.0,0.0,0.0,0.0,0.0,0.0,0.0,0.0,0.0,0.0,0.0,0.0,0.0,0.0,0.0,0.0,0.0,0.0,0.0,0.0,-1.542,-1.542,-1.542,-1.542,0.0,0.0,-1.5978,-1.5978,-1.5918,0.0,0.0,0.0,0.0,0.0,0.0,0.0,0.0,0.0,0.0,0.0,0.0,0.0,0.0,0.0,0.0,0.0,0.0,0.0,0.0,0.0,0.0,0.0,0.0,0.0,0.0,0.0,0.0,0.0,0.0,0.0,0.0,0.0,0.0,0.0,0.0,0.0,0.0,0.0,0.0,0.0,0.0,0.0,0.0,0.0,0.0,0.0,0.0,0.0,0.0,0.0,0.0,0.0,0.0,0.0,-2.6521,-2.6521,-2.6521,-2.6521,-2.6521,-2.6521,-2.6521,-2.6521,-2.6521,-2.6521,0.0,0.0,0.0,0.0,0.0,0.0,0.0,0.0,0.0,0.0,0.0,0.0,0.0,0.0,0.0,0.0,0.0,0.0,0.0,0.0,0.0,0.0,0.0,0.0,0.0,0.0,0.0,0.0,0.0,0.0,0.0,0.0,0.0,0.0,0.0,0.0,0.0,0.0,0.0,0.0,0.0,0.0,-1.6123,-1.5575,0.0,0.0,0.0,-1.5448,-1.561,0.0,0.0,0.0,0.0,0.0,0.0,0.0,0.0,0.0,0.0,0.0,0.0,0.0,0.0,0.0,0.0,0.0,0.0,0.0,0.0,0.0,0.0,0.0,0.0,0.0,0.0,0.0,0.0,0.0,0.0,0.0,0.0,0.0,0.0,0.0,0.0,0.0,0.0,0.0,0.0,0.0,0.0,0.0,0.0,0.0,0.0,0.0,0.0,0.0,0.0,0.0,0.0,0.0,0.0,0.0,0.0,0.0,-2.6735,-2.6804,-2.6804,-2.6666,-2.6666,-2.6735,-2.6666,-2.654,0.0,0.0,0.0,0.0,0.0,0.0,0.0,0.0,0.0,0.0,0.0,0.0,0.0,0.0,0.0,0.0,0.0,0.0,0.0,0.0,0.0,0.0,0.0,0.0,0.0,0.0,0.0,-1.9962,0.0,0.0,0.0,0.0,0.0,0.0,0.0,0.0,0.0,0.0,0.0,0.0,0.0,0.0,-1.6357,-1.6626,-1.5927,-1.5645,0.0,0.0,-1.5532,-1.542,-1.5465,-1.5373,0.0,0.0,0.0,0.0,0.0,0.0,0.0,0.0,0.0,0.0,0.0,0.0,0.0,0.0,0.0,0.0,0.0,0.0,0.0,0.0,0.0,0.0,0.0,0.0,0.0,0.0,0.0,0.0,0.0,0.0,0.0,0.0,0.0,0.0,0.0,0.0,0.0,0.0,0.0,0.0,0.0,0.0,0.0,0.0,0.0,0.0,0.0,0.0,0.0,0.0,0.0,0.0,0.0,0.0,0.0,-2.7243,-2.7733,-2.7733,-2.7256,-2.7218,-2.7231,-2.7218,-2.6728,-2.6716,0.0,0.0,0.0,0.0,0.0,0.0,0.0,0.0,0.0,0.0,0.0,0.0,0.0,0.0,0.0,0.0,0.0,0.0,0.0,0.0,0.0,0.0,0.0,0.0,0.0,0.0,0.0,0.0,0.0,0.0,0.0,0.0,0.0,0.0,0.0,0.0,0.0,0.0,0.0,0.0,0.0,-1.6699,-1.6665,-1.6646,-1.6573,0.0,0.0,-1.6948,-1.5993,-1.586,-1.5468,-1.4338,0.0,0.0,0.0,0.0,0.0,0.0,0.0,0.0,0.0,0.0,0.0,0.0,0.0,0.0,0.0,0.0,0.0,0.0,0.0,0.0,0.0,0.0,0.0,0.0,0.0,0.0,0.0,0.0,0.0,0.0,0.0,0.0,0.0,0.0,0.0,0.0,0.0,0.0,0.0,0.0,0.0,0.0,0.0,0.0,0.0,0.0,0.0,0.0,0.0,0.0,0.0,0.0,0.0,-2.7293,-2.7293,-2.7821,-2.7996,-2.7808,-2.7795,-2.7783,-2.7795,-2.7595,-2.7419,0.0,0.0,0.0,0.0,0.0,0.0,0.0,0.0,0.0,0.0,0.0,0.0,0.0,0.0,0.0,0.0,0.0,0.0,0.0,0.0,0.0,0.0,0.0,0.0,0.0,0.0,0.0,0.0,-2.0367,-1.9639,-1.8669,0.0,0.0,0.0,0.0,0.0,0.0,0.0,0.0,0.0,0.0,-1.7227,-1.748,-1.6873,0.0,0.0,-1.6464,-1.5665,-1.548,-1.4948,-1.4417,-1.3941,-1.3785,0.0,0.0,0.0,0.0,0.0,0.0,0.0,0.0,0.0,0.0,0.0,0.0,0.0,0.0,0.0,0.0,0.0,0.0,0.0,0.0,0.0,0.0,0.0,0.0,0.0,0.0,0.0,0.0,0.0,0.0,0.0,0.0,0.0,0.0,0.0,0.0,0.0,0.0,0.0,0.0,0.0,0.0,0.0,0.0,0.0,0.0,0.0,0.0,0.0,0.0,0.0,0.0,-2.7532,-2.7532,-2.8235,-2.8536,-2.836,-2.8348,-2.8348,-2.8348,-2.8197,-2.7996,0.0,0.0,0.0,0.0,0.0,0.0,0.0,0.0,0.0,0.0,0.0,0.0,0.0,0.0,0.0,0.0,0.0,0.0,0.0,0.0,0.0,0.0,0.0,0.0,0.0,0.0,0.0,0.0,-2.0538,-1.9602,-1.8933,0.0,0.0,0.0,0.0,0.0,0.0,0.0,0.0,0.0,0.0,-1.7676,-1.7969,-1.6964,-1.6523,-1.7463,-1.6058,-1.4805,-1.4767,-1.4171,-1.3563,-1.3187,0.0,0.0,0.0,0.0,0.0,0.0,0.0,0.0,0.0,0.0,0.0,0.0,0.0,0.0,0.0,0.0,0.0,0.0,0.0,0.0,0.0,0.0,0.0,0.0,0.0,0.0,0.0,0.0,0.0,0.0,-3.1106,0.0,0.0,0.0,0.0,0.0,0.0,0.0,0.0,0.0,0.0,0.0,0.0,0.0,0.0,0.0,0.0,0.0,0.0,0.0,0.0,0.0,0.0,-2.8097,-2.8097,-2.9164,-2.9465,-2.8938,-2.8913,-2.8913,-2.8913,-2.8398,-2.836,-2.885,0.0,0.0,0.0,0.0,0.0,0.0,0.0,0.0,0.0,0.0,0.0,0.0,0.0,0.0,0.0,0.0,0.0,0.0,0.0,0.0,0.0,0.0,0.0,0.0,0.0,0.0,-2.1525,-2.0076,-1.9336,0.0,0.0,0.0,0.0,0.0,0.0,0.0,0.0,0.0,0.0,-1.8008,-1.7998,-1.8008,-1.7207,-1.6678,-1.6706,-1.586,-1.4863,-1.3954,-1.3745,-1.3281,0.0,0.0,0.0,0.0,0.0,0.0,0.0,0.0,0.0,0.0,0.0,0.0,0.0,0.0,0.0,0.0,0.0,0.0,0.0,0.0,0.0,0.0,0.0,0.0,0.0,0.0,0.0,-2.9503,-2.9515,0.0,0.0,0.0,0.0,0.0,0.0,0.0,0.0,0.0,0.0,0.0,-2.9779,-2.9779,0.0,0.0,0.0,0.0,0.0,0.0,0.0,0.0,0.0,0.0,0.0,0.0,-2.8662,-2.8687,-2.9402,-2.9704,-2.9515,-2.9503,-2.9503,-2.9503,-2.9327,-2.9126,-2.8925,0.0,0.0,0.0,0.0,0.0,0.0,0.0,0.0,0.0,0.0,0.0,0.0,0.0,0.0,0.0,0.0,0.0,0.0,0.0,0.0,0.0,0.0,0.0,0.0,0.0,-2.2284,0.0,0.0,0.0,0.0,0.0,0.0,0.0,0.0,0.0,0.0,0.0,-1.8008,-1.8008,-1.8008,-1.8008,-1.8008,-1.7725,-1.751,0.0,0.0,0.0,0.0,0.0,0.0,0.0,0.0,0.0,0.0,0.0,0.0,0.0,0.0,-1.2124,-1.2024,-1.2011,-1.2011,-1.2004,0.0,0.0,0.0,0.0,0.0,0.0,0.0,0.0,0.0,0.0,0.0,0.0,0.0,0.0,-3.0244,0.0,-3.008,0.0,0.0,0.0,0.0,0.0,0.0,0.0,0.0,-2.9779,-2.9779,-2.9779,-2.9779,-2.9779,0.0,-2.9779,-2.9779,0.0,0.0,0.0,0.0,0.0,0.0,0.0,0.0,-2.8925,-2.895,-2.9503,-2.9779,-2.9779,-2.9779,-2.9779,-2.9779,-2.9779,-2.9362,-2.8383,-2.7681,-2.7066,0.0,0.0,0.0,0.0,0.0,0.0,0.0,0.0,0.0,0.0,0.0,0.0,0.0,0.0,0.0,0.0,0.0,0.0,0.0,0.0,0.0,0.0,0.0,-2.2718,0.0,0.0,0.0,0.0,0.0,0.0,0.0,0.0,0.0,-1.8525,-1.8457,-1.8398,-1.8252,-1.8232,-1.8174,-1.8037,0.0,0.0,0.0,0.0,0.0,0.0,0.0,-1.2305,-1.2305,-1.2305,-1.2305,-1.2305,-1.2305,-1.2305,-1.2305,0.0,0.0,-1.2305,-1.2305,-1.2305,-1.2305,-1.2151,-1.2084,-1.2265,-1.2004,-1.1784,0.0,0.0,0.0,0.0,0.0,0.0,0.0,0.0,-3.116,-3.1085,0.0,-3.0633,0.0,0.0,0.0,0.0,0.0,-2.9804,0.0,0.0,-2.9779,-2.9779,-2.9779,-2.9779,-2.9779,-2.9779,-2.9779,-2.9779,-2.9779,-2.9779,0.0,0.0,0.0,0.0,0.0,0.0,-2.8963,-2.8988,-2.9515,-2.9779,-2.9779,-2.9779,-2.9779,-2.9702,-2.9702,-2.8872,-2.737,-2.7221,-2.6508,-2.4949,-2.387,0.0,0.0,0.0,0.0,0.0,0.0,0.0,0.0,0.0,0.0,0.0,0.0,0.0,0.0,0.0,0.0,0.0,0.0,0.0,0.0,-2.3899,0.0,0.0,0.0,0.0,0.0,0.0,0.0,0.0,0.0,0.0,-1.9326,-1.9287,-1.9121,-1.8682,0.0,0.0,0.0,0.0,-1.6376,-1.5525,-1.4458,-1.3455,-1.2592,-1.2372,-1.2305,-1.2305,0.0,0.0,-1.2305,-1.2305,-1.2305,-1.2305,-1.2305,-1.2305,-1.2305,-1.2305,-1.2305,-1.2305,-1.2298,-1.2305,-1.2305,-1.2278,-1.2258,-3.2014,0.0,0.0,0.0,0.0,-3.1097,-3.116,-3.1173,-3.1323,-3.1311,-3.1173,-3.116,0.0,0.0,0.0,0.0,0.0,0.0,-2.9779,-2.9779,-2.9779,-2.9779,-2.9779,-2.9779,-2.9779,-2.9779,-2.9779,-2.9779,-2.9779,-2.9779,-2.9704,-2.9553,0.0,0.0,0.0,0.0,-2.9541,-2.9553,-2.9704,-2.9779,-2.9779,-2.9779,-2.9431,-2.8609,-2.7867,-2.7221,-2.6759,-2.6314,-2.5893,-2.5349,-2.4052,0.0,0.0,0.0,0.0,0.0,0.0,0.0,0.0,0.0,0.0,0.0,0.0,0.0,0.0,0.0,0.0,0.0,0.0,0.0,-2.3779,-2.349,-2.2796,0.0,0.0,0.0,0.0,0.0,0.0,0.0,0.0,0.0,-2.0195,-1.9658,-1.9131,0.0,0.0,-1.8838,-1.8115,-1.8045,-1.7834,-1.7273,-1.5799,0.0,-1.445,-1.323,-1.2305,-1.2305,-1.2305,-1.2305,-1.2305,-1.2305,-1.2305,-1.2305,-1.2305,-1.2305,-1.2305,-1.2305,-1.2305,-1.2305,-1.2305,-1.2305,-1.2305,-1.2305,-1.2305,-3.4161,-3.298,-3.2328,-3.2051,-3.2077,-3.229,-3.239,-3.239,-3.2378,-3.2265,-3.2039,-3.1813,-3.1599,-3.1386,-3.1386,0.0,0.0,0.0,-3.0419,-3.0419,-3.0419,-3.0319,-3.0131,-3.0118,-2.9993,-2.9792,-2.9779,-2.9779,-2.9779,-2.9779,-2.9779,-2.9779,0.0,0.0,-2.9779,-2.9779,-2.9779,-2.9779,-2.9779,-2.9779,-2.9792,-2.9365,-2.8609,-2.7533,-2.6801,-2.6307,-2.5797,-2.5513,-2.502,-2.4628,-2.3711,-2.3154,0.0,0.0,0.0,0.0,0.0,0.0,0.0,0.0,0.0,0.0,0.0,-2.1354,-2.1146,0.0,0.0,0.0,-2.3904,-2.4053,-2.341,-2.3039,0.0,0.0,0.0,0.0,0.0,0.0,0.0,-1.9824,-2.0254,-2.0576,-2.0557,-2.0117,-1.9629,-1.9199,-1.9375,-1.9287,-1.8613,0.0,-1.8405,-1.7796,-1.6254,-1.5092,-1.4665,-1.331,-1.2305,-1.2305,-1.2305,-1.2305,-1.2305,-1.2305,-1.2305,-1.2305,-1.2305,-1.2305,-1.2305,-1.2305,-1.2305,-1.2305,-1.2305,-1.2305,-1.2305,-1.2305,-1.2305,-3.6245,-3.5592,-3.406,-3.3345,-3.3257,-3.3746,-3.396,-3.3972,-3.396,-3.3684,-3.3169,-3.2591,-3.2039,-3.1524,-3.1474,0.0,-3.1449,-3.1411,-3.1373,-3.1386,-3.1386,-3.1135,-3.0683,-3.0633,-3.0357,-2.9867,-2.9817,-2.9779,-2.9779,-2.9779,-2.9779,-2.9779,-2.9779,-2.9779,-2.9779,-2.9779,-2.9779,-2.9779,-2.9779,-2.9792,-2.9624,-2.8597,-2.7441,-2.6389,-2.6307,-2.5714,-2.4713,-2.4702,-2.4211,-2.3135,-2.3144,-2.2969,-2.2588,0.0,0.0,0.0,0.0,0.0,0.0,0.0,0.0,0.0,0.0,0.0,0.0,0.0,0.0,0.0,-2.3497,0.0,-2.3423,-2.2639,0.0,0.0,0.0,-2.0664,-2.0674,-2.0635,-2.0615,-2.0625,0.0,0.0,-2.0576,-2.0566,-2.042,-2.0019,-1.9971,-1.9805,-1.9346,-1.8975,-1.8366,-1.7604,-1.6206,-1.4976,-1.4244,-1.3117,-1.2365,-1.2365,-1.2318,-1.2305,-1.2305,-1.2305,-1.2305,-1.2305,-1.2305,-1.2305,-1.2305,-1.2305,-1.2305,-1.2305,-1.2305,-1.2305,-1.2305,-1.2305,-1.2305,-3.7939,-3.7362,-3.6546,-3.5491,-3.4349,-3.4474,-3.4525,-3.4525,-3.4525,-3.4449,-3.4286,-3.3746,-3.3181,-3.2654,-3.2215,-3.2014,-3.2001,-3.1587,-3.1386,-3.1386,-3.1386,-3.1323,-3.1185,-3.0809,-3.0545,-3.0394,-2.9993,-2.9779,-2.9779,-2.9779,-2.9779,-2.9779,-2.9779,-2.9779,-2.9779,-2.9779,-2.9779,-2.9779,-2.9779,-2.9365,-2.8518,-2.7452,-2.6378,-2.521,-2.4392,-2.381,-2.356,-2.3551,-2.3387,-2.3135,-2.3144,-2.2999,-2.2998,-2.2685,0.0,0.0,0.0,0.0,0.0,0.0,0.0,0.0,0.0,-2.1507,-2.1402,0.0,-2.264,0.0,-2.3558,-2.3709,-2.2947,-2.2945,0.0,0.0,-2.1725,-2.1572,-2.1562,-2.1279,-2.1074,-2.1074,-2.0771,-2.0576,-2.0576,-2.0576,-2.0527,-2.043,-2.041,-2.0137,-1.9414,-1.9492,-1.9418,-1.8734,-1.7072,-1.5897,-1.5407,-1.3967,-1.2708,-1.2714,-1.2452,-1.2311,-1.2305,-1.2305,-1.2305,-1.2305,-1.2305,-1.2305,-1.2305,-1.2305,-1.2305,-1.2305,-1.2305,-1.2305,-1.2305,-1.2305,-1.2305,-3.8919,-3.8341,-3.7789,-3.6885,-3.5805,-3.5542,-3.5454,-3.5429,-3.519,-3.509,-3.5052,-3.45,-3.396,-3.3432,-3.3106,-3.283,-3.2591,-3.2277,-3.2139,-3.2139,-3.2139,-3.2001,-3.175,-3.1461,-3.1198,-3.0947,-3.0419,-3.0156,-3.0143,-2.9917,-2.9779,-2.9779,-2.9779,-2.9779,-2.9779,-2.9779,-2.9779,-2.9792,-2.8856,-2.777,-2.6673,-2.6036,-2.521,-2.4039,-2.3474,-2.3144,-2.3144,-2.3144,-2.3144,-2.3144,-2.3144,-2.3144,-2.3135,-2.292,-2.2793,0.0,0.0,0.0,0.0,0.0,0.0,0.0,0.0,0.0,0.0,0.0,-2.2351,-2.2361,-2.2829,-2.2908,-2.2361,-2.2585,-2.2503,-2.1967,-2.1894,-2.1894,-2.1894,-2.167,-2.1523,-2.1523,-2.1133,-2.0859,-2.0869,-2.0693,-2.0576,-2.0576,-2.0576,-2.0391,-1.9885,-1.9516,-1.9127,-1.8836,-1.6953,-1.5319,-1.4949,-1.3698,-1.2822,-1.2795,-1.2498,-1.2305,-1.2305,-1.2305,-1.2305,-1.2305,-1.2305,-1.2305,-1.2305,-1.2305,-1.2305,-1.2305,-1.2305,-1.2305,-1.2305,-1.2305,-1.2305,-3.9408,-3.8931,-3.8354,-3.7839,-3.7349,-3.6734,-3.6433,-3.6332,-3.5855,-3.5617,-3.5424,-3.5039,-3.4525,-3.401,-3.401,-3.3709,-3.3194,-3.3194,-3.3144,-3.3081,-3.3081,-3.2842,-3.2428,-3.2277,-3.2001,-3.1587,-3.0997,-3.0721,-3.0696,-3.0168,-2.9905,-2.9892,-2.9842,-2.9779,-2.9792,-2.9702,-2.9624,-2.9534,-2.7284,-2.5628,-2.4872,-2.4798,-2.4296,-2.3135,-2.3144,-2.3144,-2.3144,-2.3144,-2.3144,-2.3144,-2.3144,-2.3144,-2.3144,-2.3144,-2.3144,0.0,-2.3144,0.0,0.0,0.0,0.0,0.0,0.0,0.0,0.0,-2.1973,-2.1943,-2.1894,-2.1934,-2.1963,-2.1963,-2.2021,-2.2051,-2.2051,-2.2041,-2.2051,-2.2051,-2.2002,-2.1973,-2.1963,-2.1592,-2.1318,-2.1299,-2.0928,-2.0654,-2.0674,-2.0605,-2.0547,-2.044,-1.9523,-1.877,-1.8597,-1.6513,-1.4934,-1.3812,-1.3171,-1.2879,-1.2882,-1.2579,-1.2351,-1.2305,-1.2305,-1.2305,-1.2305,-1.2305,-1.2305,-1.2305,-1.2305,-1.2305,-1.2305,-1.2305,-1.2305,-1.2305,-1.2305,-1.2305,-3.9634,-3.9484,-3.8931,-3.8655,-3.8467,-3.7462,-3.6772,-3.6358,-3.6245,-3.5956,-3.5554,-3.5441,-3.5077,-3.4587,-3.4562,-3.4261,-3.3746,-3.3746,-3.3508,-3.3081,-3.3081,-3.3257,-3.3508,-3.2641,-3.2403,-3.2692,-3.1725,-3.1235,-3.1235,-3.0721,-3.0457,-3.0444,-3.0005,-2.9779,-2.9714,0.0,0.0,0.0,-2.5315,-2.4096,-2.4756,-2.4798,-2.4286,-2.3135,-2.3144,0.0,-2.3144,-2.3144,-2.3144,-2.3144,-2.3144,0.0,0.0,0.0,0.0,0.0,0.0,0.0,0.0,0.0,0.0,0.0,-2.2852,-2.2764,-2.2432,-2.2393,-2.2256,-2.1934,-2.2187,-2.2393,-2.2393,-2.2705,-2.29,-2.29,-2.29,-2.29,-2.2891,-2.2598,-2.2393,-2.2383,-2.2021,-2.1768,-2.1738,-2.1387,-2.1103,-2.1064,-2.0791,-2.0586,-2.0576,-2.0236,-2.011,-2.0023,-1.7837,-1.599,-1.4241,-1.3647,-1.334,-1.3166,-1.2866,-1.2592,-1.2385,-1.2331,-1.2318,-1.2331,-1.2305,-1.2311,-1.2311,-1.2305,-1.2305,-1.2305,-1.2305,-1.2305,-1.2305,-1.2305,-1.2305,-3.9697,0.0,-3.9094,-3.8868,0.0,-3.7952,-3.7437,-3.7136,-3.6596,-3.6194,-3.5956,-3.5956,-3.5642,-3.5127,-3.5127,-3.4826,-3.4311,-3.4311,-3.4148,-3.3897,-3.3884,-3.4035,-3.4286,-3.3432,-3.3194,-3.3432,-3.2328,-3.18,-3.1763,-3.126,-3.0997,-3.0984,-3.047,-2.9932,-2.9328,-2.7627,-2.6659,-2.6438,-2.4283,-2.3372,-2.3943,-2.3973,-2.3714,-2.3135,-2.3144,0.0,0.0,0.0,0.0,0.0,0.0,0.0,0.0,0.0,0.0,-2.3144,-2.3144,-2.3144,-2.3144,-2.3144,-2.3144,-2.3144,-2.3144,-2.3057,-2.2832,-2.2822,-2.2734,-2.2539,-2.2705,-2.2822,-2.2822,-2.3018,-2.3144,-2.3144,-2.3144,-2.3144,-2.3115,-2.2949,-2.2822,-2.2783,-2.2441,-2.2187,-2.2187,-2.1631,-2.126,-2.1211,-2.085,-2.0576,-2.0489,-1.9668,-1.8709,-1.7568,-1.6609,-1.5387,-1.4391,-1.3841,-1.3614,-1.342,-1.3173,-1.2939,-1.2779,-1.2752,-1.2746,-1.2739,-1.2632,-1.2518,-1.2505,-1.2405,-1.2305,-1.2305,-1.2305,-1.2305,-1.2305,-1.2305,-1.2305,-3.9785,-3.9659,-3.9207,-3.9019,-3.8981,-3.8404,-3.8103,-3.7939,0.0,0.0,0.0,-3.637,-3.6119,-3.5692,-3.5692,-3.5391,-3.4876,-3.4876,-3.4826,-3.4726,-3.4726,-3.4776,-3.4839,-3.4299,-3.4048,-3.3997,-3.3006,-3.2453,-3.234,-3.18,-3.1549,-3.1486,-3.1009,-3.0052,-2.8645,-2.651,-2.5104,-2.4571,-2.3644,-2.311,-2.3125,-2.3144,-2.3144,-2.3144,-2.3144,-2.3144,-2.3144,-2.3144,-2.3144,-2.3144,-2.3144,-2.3144,-2.3144,-2.3144,-2.3144,-2.3144,-2.3144,-2.3144,-2.3144,-2.3144,-2.3144,-2.3144,-2.3144,-2.3144,-2.3144,-2.3144,-2.3144,-2.3144,-2.3144,-2.3135,-2.3144,-2.3144,-2.3144,-2.3144,-2.3144,-2.3144,-2.3144,-2.3144,-2.3125,-2.3105,-2.2822,-2.2627,-2.2598,-2.1973,-2.1416,-2.1318,-2.0996,-2.0557,-2.0177,-1.8877,-1.7253,-1.5628,-1.5144,-1.4489,-1.4139,-1.3915,-1.3721,-1.3546,-1.3434,-1.328,-1.3227,-1.3206,-1.3206,-1.3153,-1.2986,-1.2859,-1.2882,-1.2599,-1.2392,-1.2378,-1.2338,-1.2305,-1.2305,-1.2305,-1.2305,-4.0124,-3.9685,-3.9609,-3.9572,-3.9534,-3.8981,-3.8467,-3.7952,-3.7337,-3.6797,-3.637,-3.637,-3.6307,-3.6245,-3.6245,-3.5943,-3.5441,-3.5429,-3.5177,-3.4738,-3.4726,-3.4977,-3.5391,-3.4876,-3.4613,-3.4562,-3.396,-3.342,-3.293,-3.2378,-3.2102,-3.2026,-3.1549,-3.0143,-2.8042,-2.6249,-2.4903,-2.395,-2.3369,-2.3086,-2.3135,-2.3144,-2.3144,-2.3144,-2.3144,-2.3144,-2.3144,-2.3144,-2.3144,-2.3144,-2.3144,-2.3144,-2.3144,-2.3144,-2.3144,-2.3144,-2.3144,-2.3144,-2.3144,-2.3144,-2.3144,-2.3144,-2.3144,-2.3144,-2.3144,-2.3144,-2.3144,-2.3144,-2.3144,-2.3144,-2.3144,-2.3144,-2.3144,-2.3144,-2.3144,-2.3144,-2.3144,-2.3144,-2.3144,-2.3135,-2.3096,-2.3037,-2.2969,-2.2588,-2.2129,-2.1816,-2.1367,-2.0668,-1.972,-1.8957,-1.823,-1.709,-1.6034,-1.5137,-1.4321,-1.4062,-1.3915,-1.3592,-1.3621,-1.3514,-1.332,-1.3287,-1.328,-1.3233,-1.3193,-1.314,-1.3126,-1.2899,-1.2755,-1.2619,-1.2445,-1.2318,-1.2305,-1.2305,-1.2305,-4.0375,-4.0111,-3.981,-3.9697,-3.9672,-3.9421,-3.8994,-3.8467,-3.8216,-3.76,-3.6835,-3.681,-3.681,-3.681,-3.681,-3.6671,-3.6433,-3.642,-3.6132,-3.5642,-3.5617,-3.5742,-3.5906,-3.5429,-3.5177,-3.514,-3.4613,-3.406,-3.3533,-3.3257,-3.298,-3.2582,-3.0882,-2.8994,-2.6985,-2.5537,-2.4536,-2.3779,-2.3359,-2.3144,-2.3144,-2.3144,-2.3144,-2.3144,-2.3144,-2.3144,-2.3144,-2.3144,-2.3144,-2.3144,-2.3144,-2.3144,-2.3144,-2.3144,-2.3144,-2.3144,-2.3144,-2.3144,-2.3144,-2.3144,-2.3144,-2.3144,-2.3144,-2.3144,-2.3144,-2.3144,-2.3144,-2.3144,-2.3144,-2.3144,-2.3144,-2.3144,-2.3144,-2.3144,-2.3144,-2.3144,-2.3144,-2.3144,-2.3144,-2.3144,-2.3144,-2.3144,-2.3144,-2.2773,-2.2461,-2.2197,-2.168,-2.0922,-2.0203,-1.8932,-1.7747,-1.6683,-1.6026,-1.5296,-1.4328,-1.4088,-1.4021,-1.3895,-1.3881,-1.3828,-1.3701,-1.3681,-1.3681,-1.3674,-1.3561,-1.3387,-1.3267,-1.2953,-1.2726,-1.2512,-1.2418,-1.2311,-1.2305,-1.2305,-1.2305,-4.0739,-4.0475,-4.0061,-3.9798,-3.9697,-3.9697,-3.9446,-3.9069,-3.9057,-3.8492,-3.7626,-3.7437,-3.7374,-3.7362,-3.7249,-3.7186,-3.7174,-3.7061,-3.6759,-3.6395,-3.637,-3.637,-3.632,-3.5918,-3.5667,-3.5516,-3.5115,-3.4625,-3.4135,-3.4085,-3.362,-3.271,-3.0271,-2.8118,-2.6428,-2.5145,-2.4404,-2.4062,-2.3555,-2.3242,-2.3144,-2.3144,-2.3144,-2.3144,-2.3144,-2.3144,-2.3144,-2.3144,-2.3144,-2.3144,-2.3144,-2.3144,-2.3144,-2.3144,-2.3144,-2.3144,-2.3144,-2.3144,-2.3144,-2.3144,-2.3144,-2.3144,-2.3144,-2.3144,-2.3144,-2.3144,-2.3144,-2.3144,-2.3144,-2.3144,-2.3144,-2.3144,-2.3144,-2.3144,-2.3144,-2.3144,-2.3144,-2.3144,-2.3144,-2.3144,-2.3144,-2.3144,-2.3086,-2.2861,-2.2637,-2.2422,-2.1855,-2.1387,-2.098,-1.9353,-1.7784,-1.637,-1.5703,-1.5061,-1.425,-1.4088,-1.4082,-1.4088,-1.4075,-1.4048,-1.4035,-1.4062,-1.4075,-1.4021,-1.3895,-1.3701,-1.3447,-1.318,-1.2906,-1.2672,-1.2525,-1.2398,-1.2318,-1.2305,-1.2305,-4.1404,-4.0576,-4.0438,-4.0149,-3.971,-3.9697,-3.9659,-3.9609,-3.9609,-3.9295,-3.8668,-3.8165,-3.7939,-3.7864,-3.7425,-3.7236,-3.7174,-3.6671,-3.6433,-3.637,-3.637,-3.637,-3.637,-3.6295,-3.6019,-3.5617,-3.5491,-3.519,-3.4663,-3.4535,-3.3785,-3.2141,-3.0331,-2.8674,-2.74,-2.5849,-2.498,-2.4932,-2.415,-2.3535,-2.3164,-2.3144,-2.3144,-2.3144,-2.3144,-2.3144,-2.3144,-2.3144,-2.3144,-2.3144,-2.3144,-2.3144,-2.3144,-2.3144,-2.3144,-2.3144,-2.3144,-2.3144,-2.3144,-2.3144,-2.3144,-2.3144,-2.3144,-2.3144,-2.3144,-2.3144,-2.3144,-2.3144,-2.3144,-2.3144,-2.3144,-2.3144,-2.3144,-2.3144,-2.3144,-2.3144,-2.3144,-2.3144,-2.3144,-2.3144,-2.3144,-2.3144,-2.3125,-2.3066,-2.291,-2.2617,-2.21,-2.165,-2.1277,-2.0543,-1.9353,-1.7327,-1.5628,-1.4412,-1.4088,-1.4088,-1.4088,-1.4088,-1.4088,-1.4088,-1.4088,-1.4088,-1.4088,-1.4082,-1.4062,-1.3975,-1.3881,-1.3761,-1.342,-1.2986,-1.2759,-1.2674,-1.2392,-1.2305,-1.2305,-4.1417,-4.094,-4.03,-3.991,-3.971,-3.9697,-3.9697,-3.9697,-3.9697,-3.9559,-3.9358,-3.9107,-3.8831,-3.8504,-3.8278,-3.8002,-3.7663,-3.7437,-3.696,-3.6408,-3.637,-3.637,-3.637,-3.637,-3.6232,-3.6044,-3.6019,-3.5742,-3.5057,-3.4096,-3.2241,-3.0003,-2.8994,-2.7936,-2.6592,-2.5826,-2.5332,-2.5059,-2.4717,-2.4336,-2.3887,-2.3398,-2.3144,-2.3144,-2.3144,-2.3144,-2.3144,-2.3144,-2.3144,-2.3144,-2.3144,-2.3144,-2.3144,-2.3144,-2.3144,-2.3144,-2.3144,-2.3144,-2.3144,-2.3144,-2.3144,-2.3144,-2.3144,-2.3144,-2.3144,-2.3144,-2.3144,-2.3144,-2.3144,-2.3144,-2.3144,-2.3144,-2.3144,-2.3144,-2.3144,-2.3144,-2.3144,-2.3144,-2.3144,-2.3144,-2.3144,-2.3144,-2.3144,-2.3144,-2.3066,-2.2812,-2.2344,-2.1846,-2.1539,-2.0105,-1.8582,-1.7383,-1.5477,-1.425,-1.4088,-1.4088,-1.4088,-1.4088,-1.4088,-1.4088,-1.4088,-1.4088,-1.4088,-1.4088,-1.4088,-1.4008,-1.3808,-1.3734,-1.352,-1.3126,-1.2719,-1.2438,-1.2325,-1.2305,-1.2305,-4.1605,-4.1191,-4.0149,-3.9697,-3.9697,-3.9697,-3.9697,-3.9697,-3.9697,-3.9697,-3.9697,-3.9697,-3.9471,-3.9107,-3.8944,-3.863,-3.8253,-3.8078,-3.75,-3.6671,-3.6734,-3.6659,-3.6395,-3.6533,-3.6508,-3.6383,-3.6358,-3.5956,-3.5157,-3.3751,-3.1472,-2.8953,-2.8415,-2.757,-2.6055,-2.5918,-2.5693,-2.5283,-2.5137,-2.4912,-2.4531,-2.3877,-2.3428,-2.332,-2.3115,-2.3144,-2.3144,-2.3144,-2.3144,-2.3144,-2.3144,-2.3144,-2.3144,-2.3144,-2.3144,-2.3144,-2.3144,-2.3144,-2.3144,-2.3144,-2.3144,-2.3144,-2.3144,-2.3144,-2.3144,-2.3144,-2.3144,-2.3144,-2.3144,-2.3144,-2.3144,-2.3144,-2.3144,-2.3144,-2.3144,-2.3144,-2.3144,-2.3144,-2.3144,-2.3144,-2.3144,-2.3144,-2.3144,-2.3144,-2.3125,-2.3037,-2.2627,-2.2158,-2.1855,-2.0264,-1.8689,-1.7622,-1.6103,-1.5,-1.4362,-1.4088,-1.4088,-1.4088,-1.4088,-1.4088,-1.4088,-1.4088,-1.4088,-1.4088,-1.4088,-1.4055,-1.3941,-1.3788,-1.3581,-1.3039,-1.2659,-1.2432,-1.2318,-1.2311,-1.2305,-4.2308,-4.1216,-4.0149,-3.9697,-3.9697,-3.9697,-3.9697,-3.9697,-3.9697,-3.9697,-3.9697,-3.9697,-3.9685,-3.9597,-3.9132,-3.8868,-3.8743,-3.8278,-3.7726,-3.7224,-3.7638,-3.7349,-3.6445,-3.6885,-3.686,-3.6395,-3.637,-3.5738,-3.4473,-3.3695,-3.2168,-2.9642,-2.8911,-2.7921,-2.6596,-2.6338,-2.6143,-2.5723,-2.5322,-2.5068,-2.5,-2.459,-2.415,-2.3809,-2.3369,-2.3164,-2.3144,-2.3144,-2.3144,-2.3144,-2.3144,-2.3144,-2.3144,-2.3144,-2.3144,-2.3144,-2.3144,-2.3144,-2.3144,-2.3144,-2.3144,-2.3144,-2.3144,-2.3144,-2.3144,-2.3144,-2.3144,-2.3144,-2.3144,-2.3144,-2.3144,-2.3144,-2.3144,-2.3144,-2.3144,-2.3144,-2.3144,-2.3144,-2.3144,-2.3144,-2.3144,-2.3144,-2.3144,-2.3144,-2.3144,-2.3135,-2.3066,-2.2871,-2.2386,-2.208,-2.0503,-1.8573,-1.7454,-1.6896,-1.4733,-1.4088,-1.4088,-1.4088,-1.4088,-1.4088,-1.4088,-1.4088,-1.4088,-1.4088,-1.4088,-1.4082,-1.4068,-1.3935,-1.3707,-1.3327,-1.2953,-1.2705,-1.2565,-1.2378,-1.2351,-4.1279,-4.0262,-3.986,-3.9697,-3.9697,-3.9697,-3.9697,-3.9697,-3.9697,-3.9697,-3.9697,-3.9697,-3.9697,-3.9697,-3.9496,-3.9195,-3.8868,-3.8642,-3.8253,-3.7764,-3.7927,-3.76,-3.6973,-3.7098,-3.6897,-3.6433,-3.637,-3.5246,-3.3132,-3.1951,-3.0419,-2.8777,-2.8204,-2.7597,-2.6918,-2.6523,-2.6299,-2.6123,-2.5723,-2.5498,-2.5459,-2.5059,-2.4746,-2.458,-2.3926,-2.3428,-2.3144,-2.3144,-2.3144,-2.3144,-2.3144,-2.3144,-2.3144,-2.3144,-2.3144,-2.3144,-2.3144,-2.3144,-2.3144,-2.3144,-2.3144,-2.3144,-2.3144,-2.3144,-2.3144,-2.3144,-2.3144,-2.3144,-2.3144,-2.3144,-2.3144,-2.3144,-2.3144,-2.3144,-2.3144,-2.3144,-2.3144,-2.3144,-2.3144,-2.3144,-2.3144,-2.3144,-2.3144,-2.3144,-2.3144,-2.3115,-2.292,-2.2715,-2.2215,-2.1034,-1.9437,-1.8112,-1.6614,-1.5197,-1.4453,-1.4088,-1.4088,-1.4088,-1.4088,-1.4088,-1.4088,-1.4088,-1.4088,-1.4088,-1.4088,-1.4088,-1.4068,-1.3935,-1.3728,-1.3567,-1.3206,-1.3026,-1.2913,-1.2705,-1.2612,-4.0802,-3.9998,-3.9772,-3.9697,-3.9697,-3.9697,-3.9697,-3.9697,-3.9697,-3.9697,-3.9697,-3.9697,-3.9697,-3.9697,-3.9697,-3.9509,-3.9157,-3.9132,-3.8831,-3.8341,-3.8467,-3.8065,-3.7324,-3.7362,-3.7061,-3.6363,-3.5966,-3.435,-3.1825,-3.0721,-2.9454,-2.7986,-2.7871,-2.7656,-2.7246,-2.6934,-2.6748,-2.6562,-2.6172,-2.5947,-2.5889,-2.5508,-2.5205,-2.501,-2.4492,-2.3926,-2.3389,-2.3213,-2.3144,-2.3144,-2.3144,-2.3144,-2.3144,-2.3144,-2.3144,-2.3144,-2.3144,-2.3144,-2.3144,-2.3144,-2.3144,-2.3144,-2.3144,-2.3144,-2.3144,-2.3144,-2.3144,-2.3144,-2.3144,-2.3144,-2.3144,-2.3144,-2.3144,-2.3144,-2.3144,-2.3144,-2.3144,-2.3144,-2.3144,-2.3144,-2.3144,-2.3144,-2.3144,-2.3144,-2.3144,-2.3144,-2.2871,-2.2725,-2.2351,-2.1126,-1.9125,-1.8254,-1.6985,-1.5587,-1.4585,-1.4088,-1.4088,-1.4088,-1.4088,-1.4088,-1.4088,-1.4088,-1.4088,-1.4088,-1.4088,-1.4088,-1.4021,-1.3895,-1.3781,-1.3674,-1.35,-1.33,-1.3166,-1.3026,-1.2893,-4.099,-4.0388,-3.9923,-3.9697,-3.9697,-3.9697,-3.9697,-3.9697,-3.9697,-3.9697,-3.9697,-3.9697,-3.9697,-3.9697,-3.9697,-3.9672,-3.9634,-3.9609,-3.9346,-3.8944,-3.9346,-3.8705,-3.7349,-3.7713,-3.7252,-3.6193,-3.4969,-3.2967,-3.0628,-3.0214,-2.9377,-2.8475,-2.8232,-2.8037,-2.7666,-2.7578,-2.7393,-2.7012,-2.6572,-2.6348,-2.6328,-2.5908,-2.5498,-2.5166,-2.5019,-2.4609,-2.3857,-2.3418,-2.3203,-2.3184,-2.3144,-2.3144,-2.3144,-2.3144,-2.3144,-2.3144,-2.3144,-2.3144,-2.3144,-2.3144,-2.3144,-2.3144,-2.3144,-2.3144,-2.3144,-2.3144,-2.3144,-2.3144,-2.3144,-2.3144,-2.3144,-2.3144,-2.3144,-2.3144,-2.3144,-2.3144,-2.3144,-2.3144,-2.3144,-2.3144,-2.3144,-2.3144,-2.3144,-2.3144,-2.3144,-2.3135,-2.3096,-2.3057,-2.293,-2.2303,-2.1383,-1.9454,-1.7656,-1.6259,-1.5106,-1.4088,-1.4088,-1.4088,-1.4088,-1.4088,-1.4088,-1.4088,-1.4088,-1.4088,-1.4088,-1.4088,-1.4088,-1.3968,-1.3908,-1.3801,-1.3667,-1.3581,-1.348,-1.3327,-1.3086,-4.045,-3.9961,-3.9772,-3.9697,-3.9697,-3.9697,-3.9697,-3.9697,-3.9697,-3.9697,-3.9697,-3.9697,-3.9697,-3.9697,-3.9697,-3.9697,-3.9697,-3.9685,-3.9597,-3.9484,-3.9609,-3.9007,-3.799,-3.7914,-3.6924,-3.5126,-3.3662,-3.2039,-3.0421,-2.9408,-2.8698,-2.8398,-2.8301,-2.8232,-2.8066,-2.7822,-2.7578,-2.7412,-2.6748,-2.6387,-2.6348,-2.5967,-2.5664,-2.5527,-2.5244,-2.4922,-2.4648,-2.3975,-2.3603,-2.3574,-2.3301,-2.3144,-2.3144,-2.3144,-2.3144,-2.3144,-2.3144,-2.3144,-2.3144,-2.3144,-2.3144,-2.3144,-2.3144,-2.3144,-2.3144,-2.3144,-2.3144,-2.3144,-2.3144,-2.3144,-2.3144,-2.3144,-2.3144,-2.3144,-2.3144,-2.3144,-2.3144,-2.3144,-2.3144,-2.3144,-2.3144,-2.3144,-2.3144,-2.3144,-2.3144,-2.3144,-2.3144,-2.3144,-2.3018,-2.2379,-2.0916,-1.9024,-1.7892,-1.68,-1.5319,-1.4291,-1.4088,-1.4088,-1.4088,-1.4088,-1.4088,-1.4088,-1.4088,-1.4088,-1.4088,-1.4088,-1.4088,-1.4055,-1.3988,-1.3981,-1.3915,-1.3854,-1.3801,-1.3627,-1.3394,-4.0187,-3.971,-3.9697,-3.9697,-3.9697,-3.9697,-3.9697,-3.9697,-3.9697,-3.9697,-3.9697,-3.9697,-3.9697,-3.9697,-3.9697,-3.9697,-3.9697,-3.9697,-3.9697,-3.9697,-3.9697,-3.9082,-3.7941,-3.7035,-3.567,-3.3679,-3.2241,-3.0824,-2.9618,-2.8698,-2.8291,-2.8291,-2.8301,-2.8291,-2.8281,-2.8037,-2.7851,-2.7607,-2.7148,-2.6709,-2.6406,-2.6123,-2.5908,-2.5723,-2.5469,-2.5332,-2.5264,-2.4639,-2.4111,-2.3789,-2.3369,-2.3154,-2.3144,-2.3144,-2.3144,-2.3144,-2.3144,-2.3144,-2.3144,-2.3144,-2.3144,-2.3144,-2.3144,-2.3144,-2.3144,-2.3144,-2.3144,-2.3144,-2.3144,-2.3144,-2.3144,-2.3144,-2.3144,-2.3144,-2.3144,-2.3144,-2.3144,-2.3144,-2.3144,-2.3144,-2.3144,-2.3144,-2.3144,-2.3144,-2.3144,-2.3144,-2.3144,-2.3144,-2.2911,-2.237,-2.1012,-1.9618,-1.846,-1.7118,-1.5411,-1.4592,-1.4179,-1.4088,-1.4088,-1.4088,-1.4088,-1.4088,-1.4088,-1.4088,-1.4088,-1.4088,-1.4088,-1.4088,-1.4048,-1.4082,-1.4088,-1.4028,-1.3935,-1.3908,-1.3687,-4.0162,-3.9722,-3.9697,-3.9697,-3.9697,-3.9697,-3.9697,-3.9697,-3.9697,-3.9697,-3.9697,-3.9697,-3.9697,-3.9697,-3.9697,-3.9697,-3.9697,-3.9697,-3.9697,-3.9697,-3.9634,-3.898,-3.7593,-3.5805,-3.4082,-3.2264,-3.1084,-2.9754,-2.8611,-2.8466,-2.831,-2.8301,-2.8301,-2.8301,-2.8281,-2.8281,-2.8086,-2.7793,-2.7656,-2.7207,-2.6553,-2.6377,-2.6201,-2.582,-2.5732,-2.5674,-2.5596,-2.5185,-2.4619,-2.3916,-2.3467,-2.3242,-2.3193,-2.3164,-2.3144,-2.3144,-2.3144,-2.3144,-2.3144,-2.3144,-2.3144,-2.3144,-2.3144,-2.3144,-2.3144,-2.3144,-2.3144,-2.3144,-2.3144,-2.3144,-2.3144,-2.3144,-2.3144,-2.3144,-2.3144,-2.3144,-2.3144,-2.3144,-2.3144,-2.3144,-2.3144,-2.3144,-2.3144,-2.3144,-2.3144,-2.3144,-2.3144,-2.3144,-2.3047,-2.265,-2.2254,-2.1003,-1.9359,-1.7879,-1.6279,-1.5483,-1.497,-1.4249,-1.4215,-1.4168,-1.4108,-1.4088,-1.4088,-1.4088,-1.4088,-1.4088,-1.4088,-1.4088,-1.4088,-1.4088,-1.4088,-1.4088,-1.4062,-1.4015,-1.3814,-3.9823,-3.9697,-3.9697,-3.9697,-3.9697,-3.9697,-3.9697,-3.9697,-3.9697,-3.9697,-3.9697,-3.9697,-3.9697,-3.9697,-3.9697,-3.9697,-3.9697,-3.9697,-3.9697,-3.9697,-3.9697,-3.8407,-3.6804,-3.5442,-3.3476,-3.1208,-3.0716,-2.9946,-2.8447,-2.8584,-2.8574,-2.8301,-2.8301,-2.8301,-2.8301,-2.8301,-2.8242,-2.8096,-2.7803,-2.7588,-2.7256,-2.6689,-2.6348,-2.6221,-2.5918,-2.5762,-2.5693,-2.5303,-2.4834,-2.4297,-2.3848,-2.3623,-2.3574,-2.332,-2.3144,-2.3144,-2.3144,-2.3144,-2.3144,-2.3144,-2.3144,-2.3144,-2.3144,-2.3144,-2.3144,-2.3144,-2.3144,-2.3144,-2.3144,-2.3144,-2.3144,-2.3144,-2.3144,-2.3144,-2.3144,-2.3144,-2.3144,-2.3144,-2.3144,-2.3144,-2.3144,-2.3144,-2.3144,-2.3144,-2.3144,-2.3144,-2.3144,-2.3144,-2.3144,-2.3028,-2.2621,-2.1612,-2.019,-1.8754,-1.7518,-1.67,-1.5778,-1.4656,-1.4389,-1.4295,-1.4195,-1.4088,-1.4088,-1.4088,-1.4088,-1.4088,-1.4088,-1.4088,-1.4088,-1.4088,-1.4088,-1.4088,-1.4088,-1.4041,-1.3781,-3.9697,-3.9697,-3.9697,-3.9697,-3.9697,-3.9697,-3.9697,-3.9697,-3.9697,-3.9697,-3.9697,-3.9697,-3.9697,-3.9697,-3.9697,-3.9697,-3.9697,-3.9697,-3.9697,-3.9581,-3.9025,-3.7752,-3.5991,-3.4437,-3.2299,-3.0516,-3.0175,-2.9377,-2.8535,-2.8721,-2.8662,-2.8369,-2.8301,-2.8301,-2.8301,-2.8291,-2.8193,-2.8047,-2.791,-2.7793,-2.7373,-2.7119,-2.6728,-2.6475,-2.6113,-2.5947,-2.5742,-2.5478,-2.5146,-2.4678,-2.415,-2.3789,-2.375,-2.3379,-2.3144,-2.3144,-2.3144,-2.3144,-2.3144,-2.3144,-2.3144,-2.3144,-2.3144,-2.3144,-2.3144,-2.3144,-2.3144,-2.3144,-2.3144,-2.3144,-2.3144,-2.3144,-2.3144,-2.3144,-2.3144,-2.3144,-2.3144,-2.3144,-2.3144,-2.3144,-2.3144,-2.3144,-2.3144,-2.3144,-2.3144,-2.3144,-2.3144,-2.3144,-2.3135,-2.3028,-2.2892,-2.2004,-2.0971,-1.9608,-1.8305,-1.7309,-1.6147,-1.5103,-1.4489,-1.4409,-1.4262,-1.4115,-1.4088,-1.4088,-1.4088,-1.4088,-1.4088,-1.4088,-1.4088,-1.4088,-1.4088,-1.4088,-1.4088,-1.4082,-1.3808,-3.9697,-3.9697,-3.9697,-3.9697,-3.9697,-3.9697,-3.9697,-3.9697,-3.9697,-3.9697,-3.9697,-3.9697,-3.9697,-3.9697,-3.9697,-3.9697,-3.9697,-3.9697,-3.9697,-3.9141,-3.817,-3.6614,-3.5479,-3.3082,-3.1275,-3.0219,-2.9381,-2.9055,-2.874,-2.8896,-2.876,-2.8486,-2.8359,-2.8301,-2.8301,-2.8291,-2.8086,-2.7949,-2.8115,-2.793,-2.751,-2.7432,-2.7168,-2.6592,-2.626,-2.6035,-2.581,-2.5674,-2.5518,-2.5156,-2.4316,-2.3945,-2.3828,-2.3447,-2.3164,-2.3144,-2.3144,-2.3144,-2.3144,-2.3144,-2.3144,-2.3144,-2.3144,-2.3144,-2.3144,-2.3144,-2.3144,-2.3144,-2.3144,-2.3144,-2.3144,-2.3144,-2.3144,-2.3144,-2.3144,-2.3144,-2.3144,-2.3144,-2.3144,-2.3144,-2.3144,-2.3144,-2.3144,-2.3144,-2.3144,-2.3144,-2.3144,-2.3144,-2.3144,-2.3047,-2.3038,-2.2892,-2.1752,-2.0474,-1.9175,-1.7903,-1.6557,-1.5356,-1.473,-1.4449,-1.4302,-1.4175,-1.4115,-1.4088,-1.4088,-1.4088,-1.4088,-1.4088,-1.4088,-1.4088,-1.4088,-1.4088,-1.4088,-1.4088,-1.3921,-3.9697,-3.9697,-3.9697,-3.9697,-3.9697,-3.9697,-3.9697,-3.9697,-3.9697,-3.9697,-3.9697,-3.9697,-3.9697,-3.9697,-3.9697,-3.9697,-3.9697,-3.9697,-3.9697,-3.9362,-3.693,-3.5614,-3.4674,-3.2835,-3.1282,-3.0169,-2.9912,-2.9668,-2.9404,-2.9258,-2.9209,-2.8818,-2.8447,-2.8301,-2.832,-2.831,-2.8271,-2.8184,-2.8262,-2.8203,-2.7969,-2.7734,-2.7432,-2.6836,-2.624,-2.5869,-2.5771,-2.5732,-2.5684,-2.541,-2.4805,-2.4277,-2.4121,-2.3535,-2.3164,-2.3144,-2.3144,-2.3144,-2.3144,-2.3144,-2.3144,-2.3144,-2.3144,-2.3144,-2.3144,-2.3144,-2.3144,-2.3144,-2.3144,-2.3144,-2.3144,-2.3144,-2.3144,-2.3144,-2.3144,-2.3144,-2.3144,-2.3144,-2.3144,-2.3144,-2.3144,-2.3144,-2.3144,-2.3144,-2.3144,-2.3144,-2.3144,-2.3144,-2.3144,-2.3144,-2.3144,-2.3047,-2.2045,-2.0678,-1.9379,-1.7998,-1.6533,-1.5588,-1.4986,-1.4616,-1.4462,-1.4249,-1.4188,-1.4128,-1.4088,-1.4088,-1.4088,-1.4088,-1.4088,-1.4088,-1.4088,-1.4088,-1.4088,-1.4088,-1.4062,-3.9697,-3.9697,-3.9697,-3.9697,-3.9697,-3.9697,-3.9697,-3.9697,-3.9697,-3.9697,-3.9697,-3.9697,-3.9697,-3.9697,-3.9697,-3.9697,-3.9697,-3.9697,-3.9697,-3.9037,-3.6823,-3.5252,-3.4428,-3.2748,-3.0887,-2.9746,-2.998,-2.9941,-2.9678,-2.958,-2.9443,-2.918,-2.8623,-2.8457,-2.8506,-2.8408,-2.8301,-2.8281,-2.8301,-2.8301,-2.8232,-2.8086,-2.7607,-2.6982,-2.6221,-2.5732,-2.5732,-2.5732,-2.5732,-2.5566,-2.5098,-2.4619,-2.4307,-2.3623,-2.3193,-2.3144,-2.3144,-2.3144,-2.3144,-2.3144,-2.3144,-2.3144,-2.3144,-2.3144,-2.3144,-2.3144,-2.3144,-2.3144,-2.3144,-2.3144,-2.3144,-2.3144,-2.3144,-2.3144,-2.3144,-2.3144,-2.3144,-2.3144,-2.3144,-2.3144,-2.3144,-2.3144,-2.3144,-2.3144,-2.3144,-2.3144,-2.3144,-2.3144,-2.3144,-2.3144,-2.3144,-2.2862,-2.1943,-2.081,-1.9447,-1.7995,-1.6408,-1.5609,-1.5281,-1.495,-1.477,-1.4516,-1.4269,-1.4202,-1.4128,-1.4088,-1.4088,-1.4088,-1.4088,-1.4088,-1.4088,-1.4088,-1.4088,-1.4088,-1.4068,-3.9697,-3.9697,-3.9697,-3.9697,-3.9697,-3.9697,-3.9697,-3.9697,-3.9697,-3.9697,-3.9697,-3.9697,-3.9697,-3.9697,-3.9697,-3.9697,-3.9697,-3.9697,-3.9581,-3.8687,-3.6499,-3.5145,-3.4227,-3.2282,-3.0748,-2.9853,-3.0176,-3.0117,-2.9922,-2.9697,-2.9726,-2.9531,-2.8926,-2.8711,-2.8789,-2.8603,-2.8389,-2.832,-2.8301,-2.8301,-2.8301,-2.8232,-2.7822,-2.7031,-2.6338,-2.584,-2.5771,-2.5732,-2.5732,-2.5713,-2.5312,-2.4912,-2.4434,-2.375,-2.3242,-2.3252,-2.3203,-2.3144,-2.3144,-2.3144,-2.3144,-2.3144,-2.3144,-2.3144,-2.3144,-2.3144,-2.3144,-2.3144,-2.3144,-2.3144,-2.3144,-2.3144,-2.3144,-2.3144,-2.3144,-2.3144,-2.3144,-2.3144,-2.3144,-2.3144,-2.3144,-2.3144,-2.3144,-2.3144,-2.3144,-2.3144,-2.3144,-2.3144,-2.3144,-2.296,-2.295,-2.2315,-2.1302,-1.9662,-1.8211,-1.7654,-1.6081,-1.5785,-1.5404,-1.5237,-1.5044,-1.4796,-1.4529,-1.4269,-1.4175,-1.4128,-1.4095,-1.4088,-1.4088,-1.4088,-1.4088,-1.4088,-1.4088,-1.4088,-1.4062,-3.9697,-3.9697,-3.9697,-3.9697,-3.9697,-3.9697,-3.9697,-3.9697,-3.9697,-3.9697,-3.9697,-3.9697,-3.9697,-3.9697,-3.9697,-3.9697,-3.9697,-3.9581,-3.9025,-3.7914,-3.5945,-3.4736,-3.3417,-3.1862,-3.0752,-3.0742,-3.0723,-3.0644,-3.0518,-3.0312,-3.0068,-2.9971,-2.9541,-2.9238,-2.9023,-2.8818,-2.8613,-2.8389,-2.832,-2.8301,-2.8301,-2.8203,-2.79,-2.71,-2.6504,-2.6103,-2.582,-2.5752,-2.5732,-2.5693,-2.5293,-2.5078,-2.4824,-2.417,-2.376,-2.3555,-2.3301,-2.3144,-2.3144,-2.3144,-2.3144,-2.3144,-2.3144,-2.3144,-2.3144,-2.3144,-2.3144,-2.3144,-2.3144,-2.3144,-2.3144,-2.3144,-2.3144,-2.3144,-2.3144,-2.3144,-2.3144,-2.3144,-2.3144,-2.3144,-2.3144,-2.3144,-2.3144,-2.3144,-2.3144,-2.3144,-2.3144,-2.3144,-2.3144,-2.2862,-2.2492,-2.1587,-2.0494,-1.8572,-1.6655,-1.6466,-1.5785,-1.5819,-1.5578,-1.5464,-1.5264,-1.5057,-1.481,-1.4543,-1.4282,-1.4148,-1.4122,-1.4095,-1.4088,-1.4088,-1.4088,-1.4088,-1.4088,-1.4088,-1.4088,-3.9697,-3.9697,-3.9697,-3.9697,-3.9697,-3.9697,-3.9697,-3.9697,-3.9697,-3.9697,-3.9697,-3.9697,-3.9697,-3.9697,-3.9697,-3.9697,-3.9581,-3.8792,-3.8137,-3.7133,-3.5277,-3.3845,-3.2975,-3.1546,-3.0995,-3.0879,-3.0889,-3.0898,-3.084,-3.041,-3.0351,-3.0361,-2.9922,-2.9551,-2.9453,-2.9121,-2.8867,-2.8603,-2.8418,-2.8301,-2.8262,-2.8125,-2.7685,-2.7344,-2.6748,-2.6309,-2.6103,-2.581,-2.5742,-2.5693,-2.5527,-2.543,-2.5215,-2.4824,-2.4238,-2.3838,-2.3408,-2.3144,-2.3144,-2.3144,-2.3144,-2.3144,-2.3144,-2.3144,-2.3144,-2.3144,-2.3144,-2.3144,-2.3144,-2.3144,-2.3144,-2.3144,-2.3144,-2.3144,-2.3144,-2.3144,-2.3144,-2.3144,-2.3144,-2.3144,-2.3144,-2.3144,-2.3144,-2.3144,-2.3144,-2.3144,-2.3144,-2.3144,-2.3144,-2.2589,-2.2031,-2.0854,-1.9579,-1.794,-1.6285,-1.6008,-1.5825,-1.5778,-1.5738,-1.5618,-1.5478,-1.5271,-1.5044,-1.4796,-1.4543,-1.4302,-1.4122,-1.4088,-1.4088,-1.4088,-1.4088,-1.4088,-1.4088,-1.4088,-1.4088,-3.9697,-3.9697,-3.9697,-3.9697,-3.9697,-3.9697,-3.9697,-3.9697,-3.9697,-3.9697,-3.9697,-3.9697,-3.9697,-3.9581,-3.9362,-3.9141,-3.9141,-3.769,-3.6811,-3.5922,-3.4281,-3.3067,-3.2311,-3.1662,-3.0898,-3.0898,-3.0898,-3.0898,-3.084,-3.0566,-3.0605,-3.0605,-3.0107,-2.9902,-2.9971,-2.9434,-2.9121,-2.8799,-2.8516,-2.831,-2.8203,-2.7978,-2.7734,-2.7627,-2.6914,-2.6494,-2.6318,-2.5947,-2.5762,-2.5732,-2.5703,-2.5713,-2.5654,-2.5303,-2.4756,-2.4111,-2.3574,-2.3291,-2.3144,-2.3144,-2.3144,-2.3144,-2.3144,-2.3144,-2.3144,-2.3144,-2.3144,-2.3144,-2.3144,-2.3144,-2.3144,-2.3144,-2.3144,-2.3144,-2.3144,-2.3144,-2.3144,-2.3144,-2.3144,-2.3144,-2.3144,-2.3144,-2.3144,-2.3144,-2.3144,-2.3144,-2.3144,-2.3144,-2.296,-2.2031,-2.1302,-2.0034,-1.8672,-1.7304,-1.6197,-1.592,-1.5825,-1.5812,-1.5798,-1.5738,-1.5618,-1.5478,-1.5257,-1.505,-1.4803,-1.4563,-1.4329,-1.4088,-1.4088,-1.4088,-1.4088,-1.4088,-1.4088,-1.4088,-1.4088,-3.9697,-3.9697,-3.9697,-3.9697,-3.9697,-3.9697,-3.9697,-3.9697,-3.9697,-3.9697,-3.9697,-3.9697,-3.9697,-3.9349,-3.8348,-3.7902,-3.7358,-3.6259,-3.5057,-3.4181,-3.3293,-3.2311,-3.1441,-3.1112,-3.0898,-3.0898,-3.0898,-3.0898,-3.0869,-3.0791,-3.0791,-3.0801,-3.0732,-3.0576,-3.0234,-2.9697,-2.9307,-2.8926,-2.8516,-2.8301,-2.8281,-2.8213,-2.7998,-2.7656,-2.7187,-2.6758,-2.6435,-2.6035,-2.5742,-2.5732,-2.5732,-2.5732,-2.5664,-2.5322,-2.5098,-2.4727,-2.4219,-2.3545,-2.3271,-2.3213,-2.3164,-2.3164,-2.3144,-2.3144,-2.3144,-2.3144,-2.3144,-2.3144,-2.3144,-2.3144,-2.3144,-2.3144,-2.3144,-2.3144,-2.3144,-2.3144,-2.3144,-2.3144,-2.3144,-2.3144,-2.3144,-2.3144,-2.3144,-2.3144,-2.3144,-2.3144,-2.3144,-2.3135,-2.2775,-2.1943,-2.0755,-1.9579,-1.8495,-1.7124,-1.6386,-1.6109,-1.5825,-1.5825,-1.5825,-1.5825,-1.5718,-1.5598,-1.5524,-1.5311,-1.505,-1.471,-1.4362,-1.4168,-1.4115,-1.4088,-1.4088,-1.4088,-1.4088,-1.4088,-1.4088,-3.9697,-3.9697,-3.9697,-3.9697,-3.9697,-3.9697,-3.9697,-3.9697,-3.9697,-3.9697,-3.9697,-3.9697,-3.9245,-3.8465,-3.7678,-3.7037,-3.6151,-3.4736,-3.3856,-3.2975,-3.2311,-3.1556,-3.1112,-3.0898,-3.0898,-3.0898,-3.0898,-3.0898,-3.0898,-3.0898,-3.0898,-3.0898,-3.0889,-3.0791,-3.0459,-2.9902,-2.9672,-2.929,-2.8829,-2.832,-2.8301,-2.8281,-2.8203,-2.7998,-2.7363,-2.6953,-2.6641,-2.6074,-2.5762,-2.5732,-2.5732,-2.5732,-2.5703,-2.5537,-2.5361,-2.5029,-2.4756,-2.4209,-2.3652,-2.3535,-2.3369,-2.3184,-2.3144,-2.3144,-2.3144,-2.3144,-2.3144,-2.3144,-2.3144,-2.3144,-2.3144,-2.3144,-2.3144,-2.3144,-2.3144,-2.3144,-2.3144,-2.3144,-2.3144,-2.3144,-2.3144,-2.3144,-2.3144,-2.3144,-2.3144,-2.3144,-2.3047,-2.3047,-2.2677,-2.1943,-2.0755,-1.9314,-1.8311,-1.7217,-1.685,-1.648,-1.6015,-1.592,-1.5825,-1.5812,-1.5778,-1.5691,-1.5605,-1.5424,-1.5124,-1.477,-1.4409,-1.4222,-1.4142,-1.4108,-1.4088,-1.4088,-1.4088,-1.4088,-1.4088,-3.9697,-3.9697,-3.9697,-3.9697,-3.9697,-3.9697,-3.9697,-3.9697,-3.9697,-3.9697,-3.9581,-3.9245,-3.8243,-3.7026,-3.6476,-3.5606,-3.4637,-3.3191,-3.2644,-3.2092,-3.1546,-3.1005,-3.0898,-3.0898,-3.0898,-3.0898,-3.0898,-3.0898,-3.0898,-3.0898,-3.0898,-3.0898,-3.0898,-3.0879,-3.0654,-3.0039,-2.9574,-2.9192,-2.8682,-2.832,-2.8301,-2.8301,-2.8291,-2.8027,-2.7549,-2.7012,-2.6894,-2.6191,-2.5752,-2.5732,-2.5732,-2.5732,-2.5713,-2.5674,-2.5566,-2.5303,-2.5068,-2.4648,-2.4111,-2.3809,-2.3574,-2.3301,-2.3144,-2.3144,-2.3144,-2.3144,-2.3144,-2.3144,-2.3144,-2.3144,-2.3144,-2.3144,-2.3144,-2.3144,-2.3144,-2.3144,-2.3144,-2.3144,-2.3144,-2.3144,-2.3144,-2.3144,-2.3144,-2.3144,-2.3144,-2.3144,-2.3047,-2.296,-2.2492,-2.1933,-2.0944,-1.9588,-1.8856,-1.8041,-1.7762,-1.7304,-1.6662,-1.6015,-1.592,-1.5818,-1.5792,-1.5732,-1.5651,-1.5431,-1.5231,-1.507,-1.485,-1.4502,-1.4168,-1.4122,-1.4088,-1.4088,-1.4088,-1.4088,-1.4088,-3.9697,-3.9697,-3.9697,-3.9697,-3.9697,-3.9697,-3.9697,-3.9697,-3.9697,-3.9697,-3.9349,-3.836,-3.7049,-3.5508,-3.4392,-3.3733,-3.3191,-3.1777,-3.145,-3.1228,-3.0889,-3.0898,-3.0898,-3.0898,-3.0898,-3.0898,-3.0898,-3.0898,-3.0898,-3.0898,-3.0898,-3.0898,-3.0898,-3.0898,-3.0625,-3.0019,-2.918,-2.8878,-2.834,-2.831,-2.8301,-2.8301,-2.8301,-2.8115,-2.7539,-2.7012,-2.6973,-2.624,-2.5752,-2.5752,-2.5732,-2.5732,-2.5732,-2.5732,-2.5654,-2.5557,-2.5322,-2.4912,-2.4482,-2.3984,-2.3574,-2.3291,-2.3144,-2.3144,-2.3144,-2.3144,-2.3144,-2.3144,-2.3144,-2.3144,-2.3144,-2.3144,-2.3144,-2.3144,-2.3144,-2.3144,-2.3144,-2.3144,-2.3144,-2.3144,-2.3144,-2.3144,-2.3144,-2.3144,-2.3144,-2.3144,-2.3047,-2.296,-2.2403,-2.1845,-2.1123,-2.0223,-1.967,-1.9222,-1.9131,-1.8311,-1.685,-1.6204,-1.6109,-1.592,-1.5818,-1.5752,-1.5698,-1.5651,-1.5504,-1.5404,-1.5264,-1.4897,-1.4549,-1.4229,-1.4102,-1.4155,-1.4122,-1.4088,-1.4088,-3.9697,-3.9697,-3.9697,-3.9697,-3.9697,-3.9697,-3.9697,-3.9697,-3.9697,-3.9129,-3.836,-3.769,-3.6151,-3.4292,-3.3519,-3.253,-3.1767,-3.1218,-3.1005,-3.0898,-3.0898,-3.0898,-3.0898,-3.0898,-3.0898,-3.0898,-3.0898,-3.0898,-3.0898,-3.0898,-3.0898,-3.0898,-3.0898,-3.0898,-3.0596,-2.9867,-2.9011,-2.8516,-2.8301,-2.8301,-2.8301,-2.8301,-2.8301,-2.8223,-2.7793,-2.7275,-2.6992,-2.6455,-2.6064,-2.581,-2.5742,-2.5732,-2.5732,-2.5732,-2.5732,-2.5723,-2.5488,-2.5205,-2.4746,-2.4189,-2.3603,-2.3252,-2.3144,-2.3144,-2.3154,-2.3144,-2.3144,-2.3144,-2.3144,-2.3144,-2.3144,-2.3144,-2.3144,-2.3144,-2.3144,-2.3144,-2.3144,-2.3144,-2.3144,-2.3144,-2.3144,-2.3144,-2.3144,-2.3144,-2.3144,-2.3144,-2.3047,-2.295,-2.2492,-2.212,-2.1578,-2.0854,-2.0305,-1.9579,-1.9497,-1.8218,-1.6763,-1.648,-1.6298,-1.6015,-1.5825,-1.5818,-1.5778,-1.5772,-1.5738,-1.5591,-1.5418,-1.5217,-1.489,-1.4456,-1.4295,-1.4289,-1.4222,-1.4102,-1.4088,-3.9546,-3.9685,-3.9697,-3.9697,-3.9697,-3.9697,-3.9697,-3.9697,-3.9697,-3.8908,-3.7465,-3.7037,-3.5497,-3.3508,-3.253,-3.1988,-3.1218,-3.0889,-3.0898,-3.0898,-3.0898,-3.0898,-3.0898,-3.0898,-3.0898,-3.0898,-3.0898,-3.0898,-3.0898,-3.0898,-3.0898,-3.0898,-3.0898,-3.0898,-3.0684,-2.9867,-2.8991,-2.8486,-2.8301,-2.8301,-2.8301,-2.8301,-2.8301,-2.8232,-2.7851,-2.7432,-2.7021,-2.6553,-2.6143,-2.5869,-2.5732,-2.5732,-2.5732,-2.5732,-2.5732,-2.5693,-2.5586,-2.5391,-2.498,-2.4434,-2.3789,-2.3467,-2.3379,-2.3291,-2.3174,-2.3144,-2.3144,-2.3144,-2.3144,-2.3144,-2.3144,-2.3144,-2.3144,-2.3144,-2.3144,-2.3144,-2.3144,-2.3144,-2.3144,-2.3144,-2.3144,-2.3144,-2.3144,-2.3144,-2.3144,-2.3144,-2.3047,-2.3047,-2.295,-2.2677,-2.2403,-2.1667,-2.0935,-2.0215,-1.9488,-1.8133,-1.7037,-1.6857,-1.6574,-1.6015,-1.5825,-1.5825,-1.5825,-1.5805,-1.5765,-1.5712,-1.5578,-1.5384,-1.5023,-1.4603,-1.4442,-1.4255,-1.4202,-1.4088,-1.4088,-3.9207,-3.9672,-3.9685,-3.9697,-3.9697,-3.9697,-3.9697,-3.9697,-3.9697,-3.8908,-3.7358,-3.6174,-3.4736,-3.3077,-3.1883,-3.1228,-3.1112,-3.0995,-3.0995,-3.1005,-3.1218,-3.1122,-3.0898,-3.0898,-3.0898,-3.0898,-3.0898,-3.0898,-3.0898,-3.0898,-3.0898,-3.085,-3.082,-3.0752,-3.0771,-3.001,-2.9141,-2.8418,-2.831,-2.8301,-2.8301,-2.8301,-2.8301,-2.8203,-2.7978,-2.7588,-2.7041,-2.6826,-2.6387,-2.584,-2.584,-2.582,-2.5742,-2.5732,-2.5732,-2.5723,-2.5381,-2.5185,-2.5049,-2.4639,-2.4238,-2.375,-2.3564,-2.3418,-2.3213,-2.3144,-2.3144,-2.3144,-2.3144,-2.3144,-2.3144,-2.3144,-2.3144,-2.3144,-2.3144,-2.3144,-2.3144,-2.3144,-2.3144,-2.3144,-2.3144,-2.3144,-2.3144,-2.3144,-2.3144,-2.3144,-2.3144,-2.3144,-2.3144,-2.2677,-2.2394,-2.1578,-2.0755,-1.977,-1.8864,-1.8141,-1.7412,-1.7232,-1.6763,-1.6109,-1.5825,-1.5825,-1.5825,-1.5825,-1.5805,-1.5765,-1.5671,-1.5558,-1.5124,-1.4696,-1.4322,-1.4128,-1.4095,-1.4088,-1.4088,-3.8969,-3.9182,-3.9534,-3.9697,-3.9697,-3.9697,-3.9697,-3.9697,-3.9581,-3.8908,-3.737,-3.5945,-3.4515,-3.2975,-3.1883,-3.1112,-3.1102,-3.2102,-3.2102,-3.1112,-3.1767,-3.1546,-3.1218,-3.0898,-3.0898,-3.0898,-3.0898,-3.0898,-3.0898,-3.0898,-3.0898,-3.0859,-3.0615,-3.0283,-3.0039,-2.959,-2.915,-2.8457,-2.8301,-2.8301,-2.8301,-2.8301,-2.8291,-2.8281,-2.8125,-2.7725,-2.7119,-2.7012,-2.668,-2.5947,-2.5918,-2.5996,-2.5801,-2.5732,-2.5732,-2.5732,-2.5518,-2.5527,-2.5498,-2.5264,-2.4795,-2.416,-2.3643,-2.3477,-2.3164,-2.3144,-2.3144,-2.3144,-2.3154,-2.3154,-2.3144,-2.3144,-2.3144,-2.3144,-2.3144,-2.3144,-2.3144,-2.3144,-2.3144,-2.3144,-2.3144,-2.3144,-2.3144,-2.3144,-2.3144,-2.3144,-2.3144,-2.3144,-2.3144,-2.2217,-2.1667,-2.0854,-2.0034,-1.9047,-1.8141,-1.7311,-1.6857,-1.6574,-1.6292,-1.6015,-1.5825,-1.5825,-1.5825,-1.5825,-1.5825,-1.5812,-1.5671,-1.5484,-1.5164,-1.4783,-1.4462,-1.4175,-1.4088,-1.4088,-1.4088,-3.8693,-3.8931,-3.9459,-3.9697,-3.9697,-3.9697,-3.9697,-3.9697,-3.9697,-3.9141,-3.8137,-3.6703,-3.5606,-3.4504,-3.3201,-3.2436,-3.254,-3.3314,-3.3088,-3.1988,-3.253,-3.1977,-3.1334,-3.1005,-3.0898,-3.0898,-3.0898,-3.0898,-3.0898,-3.0898,-3.0898,-3.0781,-3.043,-3.0059,-2.9717,-2.9505,-2.9123,-2.8457,-2.8301,-2.8301,-2.8301,-2.8301,-2.8301,-2.8291,-2.8174,-2.7891,-2.7393,-2.7178,-2.709,-2.6299,-2.6055,-2.6162,-2.5889,-2.5732,-2.5732,-2.5732,-2.5732,-2.5723,-2.5693,-2.5459,-2.4941,-2.4414,-2.3945,-2.374,-2.3574,-2.3506,-2.3428,-2.3369,-2.3252,-2.3193,-2.3193,-2.3184,-2.3174,-2.3184,-2.3174,-2.3184,-2.3144,-2.3144,-2.3144,-2.3144,-2.3144,-2.3144,-2.3144,-2.3144,-2.3144,-2.3144,-2.3144,-2.3144,-2.3047,-2.2129,-2.1123,-2.0305,-1.9397,-1.8495,-1.749,-1.6567,-1.6109,-1.5825,-1.5825,-1.5825,-1.5825,-1.5825,-1.5825,-1.5825,-1.5825,-1.5778,-1.5611,-1.5398,-1.5177,-1.4957,-1.471,-1.4429,-1.4155,-1.4108,-1.4128,-3.8304,-3.8894,-3.9433,-3.9672,-3.9697,-3.9697,-3.9697,-3.9697,-3.9697,-3.9685,-3.9478,-3.7914,-3.7026,-3.6918,-3.5727,-3.4969,-3.4969,-3.5178,-3.4403,-3.3631,-3.3845,-3.2644,-3.1767,-3.1218,-3.1228,-3.1005,-3.0898,-3.0898,-3.0898,-3.0898,-3.0898,-3.0791,-3.042,-3.0049,-2.9687,-2.9368,-2.8947,-2.8437,-2.8301,-2.8301,-2.8301,-2.8301,-2.8301,-2.8301,-2.8232,-2.7861,-2.7519,-2.7441,-2.6973,-2.6475,-2.6221,-2.6094,-2.5928,-2.5752,-2.5732,-2.5732,-2.5732,-2.5732,-2.5693,-2.542,-2.5283,-2.498,-2.499,-2.4795,-2.4375,-2.3945,-2.3838,-2.3672,-2.3535,-2.3379,-2.3281,-2.3262,-2.3252,-2.3252,-2.3242,-2.3213,-2.3154,-2.3144,-2.3144,-2.3144,-2.3144,-2.3144,-2.3144,-2.3144,-2.3144,-2.3144,-2.3144,-2.3144,-2.2872,-2.2138,-2.1042,-1.9861,-1.8948,-1.7933,-1.7023,-1.6103,-1.592,-1.5825,-1.5825,-1.5825,-1.5825,-1.5825,-1.5825,-1.5825,-1.5825,-1.5765,-1.5658,-1.5498,-1.5297,-1.5084,-1.4903,-1.4703,-1.4442,-1.4242,-1.4215,-3.7739,-3.8304,-3.8868,-3.932,-3.9659,-3.9697,-3.9697,-3.9697,-3.9697,-3.9697,-3.9581,-3.8137,-3.769,-3.7358,-3.5956,-3.5508,-3.5727,-3.6054,-3.5727,-3.5387,-3.5387,-3.4281,-3.3304,-3.2311,-3.1872,-3.1218,-3.1005,-3.0898,-3.0898,-3.0898,-3.0898,-3.082,-3.042,-3.0127,-2.9766,-2.9287,-2.8779,-2.8418,-2.8301,-2.8301,-2.8301,-2.8301,-2.8301,-2.8301,-2.8301,-2.792,-2.7676,-2.7842,-2.7432,-2.6875,-2.6768,-2.6621,-2.624,-2.5928,-2.5732,-2.5732,-2.5732,-2.5732,-2.5713,-2.5615,-2.5518,-2.5488,-2.5498,-2.5078,-2.4648,-2.4355,-2.4258,-2.4102,-2.3867,-2.3701,-2.3701,-2.3691,-2.3584,-2.3496,-2.3457,-2.3369,-2.3291,-2.3144,-2.3144,-2.3144,-2.3144,-2.3144,-2.3144,-2.3144,-2.3144,-2.3144,-2.3144,-2.3144,-2.2775,-2.2041,-2.1042,-1.977,-1.8403,-1.7397,-1.6749,-1.5825,-1.5825,-1.5825,-1.5825,-1.5825,-1.5825,-1.5825,-1.5825,-1.5825,-1.5825,-1.5812,-1.5765,-1.5598,-1.5431,-1.5284,-1.5117,-1.493,-1.4743,-1.4556,-1.4416,-3.7374,-3.7751,-3.8291,-3.8856,-3.932,-3.9358,-3.9484,-3.9659,-3.9697,-3.9697,-3.9594,-3.8804,-3.8348,-3.8348,-3.7595,-3.7275,-3.7275,-3.7926,-3.7583,-3.6703,-3.7133,-3.5715,-3.4504,-3.3406,-3.2644,-3.1883,-3.1228,-3.0898,-3.1005,-3.0889,-3.0898,-3.085,-3.042,-3.0146,-2.9775,-2.9248,-2.873,-2.8437,-2.8301,-2.8301,-2.8301,-2.8301,-2.8301,-2.8301,-2.8301,-2.8057,-2.7803,-2.8096,-2.7812,-2.7226,-2.7119,-2.6963,-2.6475,-2.5986,-2.5742,-2.5732,-2.5732,-2.5732,-2.5723,-2.5723,-2.5723,-2.5732,-2.5723,-2.5478,-2.5137,-2.4853,-2.4746,-2.4609,-2.4307,-2.4092,-2.416,-2.4189,-2.3984,-2.3789,-2.3682,-2.3574,-2.3379,-2.3174,-2.3144,-2.3144,-2.3144,-2.3144,-2.3144,-2.3144,-2.3144,-2.3144,-2.3144,-2.3144,-2.2677,-2.1854,-2.0854,-1.967,-1.8126,-1.685,-1.6204,-1.5825,-1.5825,-1.5825,-1.5825,-1.5825,-1.5825,-1.5825,-1.5825,-1.5825,-1.5825,-1.5812,-1.5798,-1.5725,-1.5585,-1.5464,-1.5411,-1.5351,-1.5164,-1.4917,-1.4803,-3.7149,-3.7249,-3.7789,-3.8341,-3.8768,-3.8793,-3.9057,-3.9534,-3.9459,-3.9609,-3.9659,-3.9697,-3.9581,-3.9362,-3.9037,-3.9141,-3.9037,-3.9245,-3.8792,-3.7678,-3.7914,-3.7037,-3.5606,-3.4181,-3.3631,-3.2861,-3.2322,-3.1998,-3.1334,-3.1334,-3.1325,-3.0966,-3.0527,-3.0195,-2.9795,-2.9346,-2.8887,-2.8535,-2.8359,-2.8301,-2.8301,-2.8301,-2.8301,-2.8301,-2.8252,-2.8144,-2.7939,-2.792,-2.7949,-2.7549,-2.7207,-2.7109,-2.6435,-2.5977,-2.5781,-2.5732,-2.5732,-2.5732,-2.5732,-2.5732,-2.5732,-2.5732,-2.5723,-2.5664,-2.5439,-2.5264,-2.5156,-2.5039,-2.4766,-2.4678,-2.4717,-2.458,-2.4385,-2.4141,-2.3965,-2.3662,-2.3291,-2.3154,-2.3144,-2.3144,-2.3144,-2.3144,-2.3144,-2.3144,-2.3144,-2.3144,-2.3144,-2.3144,-2.2501,-2.1667,-2.0666,-1.9488,-1.7755,-1.648,-1.6109,-1.5825,-1.5825,-1.5825,-1.5825,-1.5825,-1.5825,-1.5825,-1.5825,-1.5825,-1.5825,-1.5825,-1.5805,-1.5752,-1.5732,-1.5718,-1.5698,-1.5772,-1.5598,-1.5271,-1.5117,-3.681,-3.7236,-3.7776,-3.8103,-3.8216,-3.8216,-3.8291,-3.8417,-3.8417,-3.8906,-3.9559,-3.9672,-3.9697,-3.9697,-3.9697,-3.9697,-3.9697,-3.9697,-3.9465,-3.9129,-3.9025,-3.8243,-3.7145,-3.6259,-3.5167,-3.3957,-3.3417,-3.3417,-3.2758,-3.2426,-3.1872,-3.1102,-3.0664,-3.042,-2.9932,-2.9512,-2.9131,-2.8623,-2.8408,-2.8301,-2.8301,-2.8301,-2.8301,-2.8301,-2.8262,-2.8262,-2.8144,-2.8164,-2.8193,-2.8018,-2.7383,-2.6758,-2.5947,-2.581,-2.5742,-2.5732,-2.5732,-2.5732,-2.5732,-2.5732,-2.5732,-2.5732,-2.5732,-2.5732,-2.5684,-2.5615,-2.5527,-2.54,-2.5312,-2.5254,-2.5176,-2.498,-2.4766,-2.4502,-2.4248,-2.376,-2.3281,-2.3223,-2.3193,-2.3144,-2.3144,-2.3164,-2.3164,-2.3144,-2.3144,-2.3144,-2.3144,-2.296,-2.2315,-2.1489,-2.0404,-1.9123,-1.7196,-1.6103,-1.592,-1.5825,-1.5825,-1.5825,-1.5825,-1.5825,-1.5825,-1.5825,-1.5825,-1.5825,-1.5825,-1.5825,-1.5825,-1.5818,-1.5812,-1.5825,-1.5825,-1.5825,-1.5758,-1.5491,-1.5384,-3.6533,-3.6847,-3.7149,-3.7425,-3.7613,-3.7638,-3.7764,-3.7977,-3.8002,-3.8341,-3.8944,-3.9207,-3.9446,-3.9647,-3.9697,-3.9697,-3.9697,-3.9697,-3.9594,-3.9697,-3.9594,-3.9245,-3.857,-3.7796,-3.6799,-3.5497,-3.5068,-3.4637,-3.4069,-3.3191,-3.2416,-3.1757,-3.1391,-3.0566,-3.0019,-2.9629,-2.9238,-2.8643,-2.8398,-2.832,-2.8301,-2.8301,-2.8301,-2.8301,-2.8301,-2.8301,-2.8301,-2.8301,-2.8291,-2.8066,-2.748,-2.6826,-2.6191,-2.5879,-2.5752,-2.5732,-2.5732,-2.5732,-2.5732,-2.5732,-2.5732,-2.5732,-2.5732,-2.5732,-2.5732,-2.5664,-2.5664,-2.5566,-2.5547,-2.5498,-2.5508,-2.5371,-2.5117,-2.4853,-2.4658,-2.4326,-2.3945,-2.373,-2.3477,-2.3144,-2.3203,-2.335,-2.3301,-2.3144,-2.3144,-2.3144,-2.3144,-2.3144,-2.2403,-2.14,-2.0223,-1.9039,-1.7296,-1.6103,-1.5825,-1.5825,-1.5825,-1.5825,-1.592,-1.5825,-1.5825,-1.5825,-1.5825,-1.5825,-1.5825,-1.5825,-1.5825,-1.5825,-1.5825,-1.5825,-1.5825,-1.5825,-1.5745,-1.5685,-1.5598,-3.637,-3.637,-3.6383,-3.6634,-3.7036,-3.7073,-3.7324,-3.7701,-3.7776,-3.7826,-3.799,-3.8442,-3.8994,-3.9433,-3.9697,-3.9697,-3.9697,-3.9697,-3.9697,-3.9697,-3.9697,-3.9478,-3.9129,-3.8465,-3.7914,-3.7145,-3.6499,-3.6054,-3.5508,-3.4403,-3.3519,-3.2964,-3.1755,-3.0391,-2.9805,-2.9414,-2.9092,-2.8564,-2.8301,-2.8301,-2.8301,-2.8301,-2.8301,-2.8301,-2.8301,-2.8301,-2.8301,-2.8301,-2.8301,-2.7969,-2.749,-2.6777,-2.6269,-2.5879,-2.5791,-2.5732,-2.5732,-2.5732,-2.5732,-2.5732,-2.5732,-2.5732,-2.5732,-2.5732,-2.5732,-2.5732,-2.5732,-2.5723,-2.5703,-2.5703,-2.5713,-2.5664,-2.541,-2.5117,-2.4941,-2.4756,-2.4434,-2.416,-2.3769,-2.332,-2.3369,-2.3525,-2.333,-2.3174,-2.3144,-2.3144,-2.3144,-2.3144,-2.2775,-2.1578,-2.0395,-1.9222,-1.7762,-1.6842,-1.6008,-1.6197,-1.6292,-1.6386,-1.6567,-1.6197,-1.5825,-1.5825,-1.5825,-1.5825,-1.5825,-1.5825,-1.5825,-1.5825,-1.5825,-1.5825,-1.5825,-1.5818,-1.5778,-1.5732,-1.5752,-3.637,-3.637,-3.637,-3.6445,-3.6533,-3.6533,-3.6584,-3.6671,-3.6722,-3.6897,-3.7312,-3.7487,-3.8015,-3.9044,-3.9521,-3.9647,-3.9559,-3.9597,-3.9659,-3.9697,-3.9572,-3.9622,-3.9519,-3.898,-3.9221,-3.865,-3.7736,-3.7228,-3.6764,-3.5583,-3.4159,-3.3138,-3.1418,-3.0305,-2.9629,-2.9358,-2.9075,-2.8535,-2.8301,-2.8301,-2.8301,-2.8301,-2.8301,-2.8301,-2.8301,-2.8301,-2.8301,-2.8301,-2.8301,-2.8037,-2.748,-2.6709,-2.6162,-2.583,-2.5762,-2.5732,-2.5732,-2.5732,-2.5732,-2.5732,-2.5732,-2.5732,-2.5732,-2.5732,-2.5732,-2.5732,-2.5732,-2.5732,-2.5723,-2.5723,-2.5723,-2.5723,-2.5537,-2.5185,-2.4932,-2.4736,-2.4473,-2.4385,-2.4199,-2.3867,-2.3682,-2.3545,-2.3223,-2.3144,-2.3144,-2.3144,-2.3144,-2.3047,-2.296,-2.1765,-2.0576,-1.9488,-1.8311,-1.703,-1.6109,-1.6943,-1.7131,-1.7225,-1.7037,-1.6567,-1.6197,-1.5825,-1.5825,-1.5825,-1.5825,-1.5825,-1.5825,-1.5825,-1.5825,-1.5825,-1.5825,-1.5818,-1.5778,-1.5853,-1.6041]},{"header":{"parameterUnit":"m.s-1","parameterCategory":1,"la1":31.0,"la2":29.5877,"lo1":-88.7671,"lo2":-86.6584,"dy":0.0162,"dx":0.0185,"nx":115,"ny":88,"refTime":"2023-08-03T00:00:00:Z","depth":0,"parameterNumber":3,"parameterNumberName":"V-component_of_WINDS"},"data":[0.0,0.0,0.0,0.0,0.0,0.0,0.0,0.0,0.0,0.0,0.0,0.0,0.0,0.0,0.0,0.0,0.0,0.0,0.0,0.0,0.0,0.0,0.0,0.0,0.0,0.0,0.0,0.0,0.0,0.0,0.0,0.0,0.0,0.0,0.0,0.0,0.0,0.0,0.0,0.0,0.0,0.0,0.0,0.0,0.0,0.0,0.0,0.0,0.0,0.0,0.0,0.0,0.0,0.0,0.0,0.0,0.0,0.0,0.0,0.0,0.0,0.0,0.0,0.0,0.0,0.0,0.0,0.0,0.0,0.0,0.0,0.0,0.0,0.0,0.0,0.0,0.0,0.0,0.0,0.0,0.0,0.0,0.0,0.0,0.0,0.0,0.0,0.0,0.0,0.0,0.0,0.0,0.0,0.0,0.0,0.0,0.0,0.0,0.0,0.0,0.0,0.0,0.0,0.0,0.0,0.0,0.0,0.0,0.0,0.0,0.0,0.0,0.0,0.0,0.0,0.0,0.0,0.0,0.0,0.0,0.0,0.0,0.0,0.0,0.0,0.0,0.0,0.0,0.0,0.0,0.0,0.0,0.0,0.0,0.0,0.0,0.0,0.0,0.0,0.0,0.0,0.0,0.0,0.0,0.0,0.0,0.0,0.0,0.0,0.0,0.0,0.0,0.0,0.0,0.0,0.0,0.0,0.0,0.0,0.0,0.0,0.0,0.0,0.0,0.0,0.0,0.0,0.0,0.0,0.0,0.0,0.0,0.0,0.0,0.0,0.0,0.0,0.0,0.0,0.0,0.0,0.0,0.0,0.0,0.0,0.0,0.0,0.0,0.0,0.0,0.0,0.0,0.0,0.0,0.0,0.0,0.0,0.0,0.0,0.0,0.0,0.0,0.0,0.0,0.0,0.0,0.0,0.0,0.0,0.0,0.0,0.0,0.0,0.0,0.0,0.0,0.0,0.0,0.0,0.0,0.0,0.0,0.0,0.0,0.0,0.0,0.0,0.0,0.0,0.0,0.0,0.0,0.0,0.0,0.0,0.0,0.0,0.0,0.0,0.0,0.0,0.0,0.0,0.0,0.0,0.0,0.0,0.0,0.0,0.0,0.0,0.0,0.0,0.0,0.0,0.0,0.0,0.0,0.0,0.0,0.0,0.0,0.0,0.0,0.0,0.0,0.0,0.0,0.0,0.0,0.0,0.0,0.0,0.0,0.0,0.0,0.0,0.0,0.0,0.0,0.0,0.0,0.0,0.0,0.0,0.0,0.0,0.0,0.0,0.0,0.0,0.0,0.0,0.0,0.0,0.0,0.0,0.0,0.0,0.0,0.0,0.0,0.0,0.0,0.0,0.0,0.0,0.0,0.0,0.0,0.0,0.0,0.0,0.0,0.0,0.0,0.0,0.0,0.0,0.0,0.0,0.0,0.0,0.0,0.0,0.0,0.0,0.0,0.0,0.0,0.0,0.0,0.0,0.0,0.0,0.0,0.0,0.0,0.0,0.0,0.0,0.0,0.0,0.0,0.0,0.0,0.0,0.0,0.0,0.0,0.0,0.0,0.0,0.0,0.0,0.0,0.0,0.0,0.0,0.0,0.0,0.0,0.0,0.0,0.0,0.0,0.0,0.0,0.0,0.0,0.0,0.0,0.0,0.0,0.0,0.0,0.0,0.0,0.0,0.0,0.0,0.0,0.0,0.0,0.0,0.0,0.0,0.0,0.0,0.0,0.0,0.0,0.0,0.0,0.0,0.0,0.0,0.0,0.0,0.0,0.0,0.0,0.0,0.0,0.0,0.0,0.0,0.0,0.0,0.0,0.0,0.0,0.0,0.0,0.0,0.0,0.0,0.0,0.0,0.0,0.0,0.0,0.0,0.0,0.0,0.0,0.0,0.0,0.0,0.0,0.0,0.0,0.0,0.0,0.0,0.0,0.0,0.0,0.0,0.0,0.0,0.0,0.0,0.0,0.0,0.0,0.0,0.0,0.0,0.0,0.0,0.0,0.0,0.0,0.0,0.0,0.0,0.0,0.0,0.0,0.0,0.0,0.0,0.0,0.0,0.0,0.0,0.0,0.0,0.0,0.0,0.0,0.0,0.0,0.0,0.0,0.0,0.0,0.0,0.0,0.0,0.0,0.0,0.0,0.0,0.0,0.0,0.0,0.0,0.0,0.0,0.0,0.0,0.0,0.0,0.0,0.0,0.0,0.0,0.0,0.0,0.0,0.0,0.0,0.0,0.0,0.0,0.0,0.0,0.0,0.0,0.0,0.0,0.0,0.0,0.0,0.0,0.0,0.0,0.0,0.0,0.0,0.0,0.0,0.0,0.0,0.0,0.0,0.0,0.0,0.0,0.0,0.0,0.0,0.0,0.0,0.0,0.0,0.0,0.0,0.0,0.0,0.0,0.0,0.0,0.0,0.0,0.0,0.0,0.0,0.0,0.0,0.0,0.0,0.0,0.0,0.0,0.0,0.0,0.0,0.0,0.0,0.0,0.0,0.0,0.0,0.0,0.0,0.0,0.0,0.0,0.0,0.0,0.0,0.0,0.0,0.0,0.0,0.0,0.0,0.0,0.0,0.0,0.0,0.0,0.0,0.0,0.0,0.0,0.0,0.0,0.0,0.0,0.0,0.0,0.0,0.0,0.0,0.0,0.0,0.0,0.0,0.0,0.0,0.0,0.0,0.0,0.0,0.0,0.0,0.0,0.0,0.0,0.0,0.0,0.0,0.0,0.0,0.0,0.0,0.0,0.0,0.0,0.0,0.0,0.0,0.0,0.0,0.0,0.0,0.0,0.0,0.0,0.0,0.0,0.0,0.0,0.0,0.0,0.0,0.0,0.0,0.0,0.0,0.0,0.0,0.0,0.0,0.0,0.0,0.0,0.0,0.0,0.0,0.0,0.0,0.0,0.0,0.0,0.0,0.0,0.0,0.0,0.0,0.0,0.0,0.0,0.0,0.0,0.0,0.0,0.0,0.0,0.0,0.0,0.0,0.0,0.0,0.0,0.0,0.0,0.0,0.0,0.0,0.0,0.0,0.0,0.0,0.0,0.0,0.0,0.0,0.0,0.0,0.0,0.0,0.0,0.0,0.0,0.0,0.0,0.0,0.0,0.0,0.0,0.0,0.0,0.0,0.0,0.0,0.0,0.0,0.0,0.0,0.0,0.0,0.0,0.0,0.0,0.0,0.0,0.0,0.0,0.0,0.0,0.0,0.0,0.0,0.0,0.0,0.0,0.0,0.0,0.0,0.0,0.0,0.0,0.0,0.0,0.0,0.0,0.0,0.0,0.0,0.0,0.0,0.0,0.0,0.0,0.0,0.0,0.0,0.0,0.0,0.0,0.0,0.0,0.0,0.0,0.0,0.0,0.0,0.0,0.0,0.0,0.0,0.0,0.0,0.0,0.0,0.0,0.0,0.0,0.0,0.0,0.0,0.0,0.0,0.0,0.0,0.0,0.0,0.0,0.0,0.0,0.0,0.0,0.0,0.0,0.0,0.0,0.0,0.0,0.0,0.0,0.0,0.0,0.0,0.0,0.0,0.0,0.0,0.0,0.0,0.0,0.0,0.0,0.0,0.0,0.0,0.0,0.0,0.0,0.0,0.0,0.0,0.0,0.0,0.0,0.0,0.0,0.0,0.0,0.0,0.0,0.0,0.0,0.0,0.0,0.0,0.0,0.0,0.0,0.0,0.0,0.0,0.0,0.0,0.0,0.0,0.0,0.0,0.0,0.0,0.0,0.0,0.0,0.0,0.0,0.0,0.0,0.0,0.0,0.0,0.0,0.0,0.0,0.0,0.0,0.0,0.0,0.0,0.0,0.0,0.0,0.0,0.0,0.0,0.0,0.0,0.0,0.0,0.0,0.0,0.0,0.0,0.0,0.0,0.0,0.0,0.0,0.0,0.0,0.0,0.0,0.0,0.0,0.0,0.0,0.0,0.0,0.0,0.0,0.0,0.0,0.0,0.0,0.0,0.0,0.0,0.0,0.0,0.0,0.0,0.0,0.0,0.0,0.0,0.0,0.0,0.0,0.0,0.0,0.0,0.0,0.0,0.0,0.0,0.0,0.0,0.0,0.0,0.0,0.0,0.0,0.0,0.0,0.0,0.0,0.0,0.0,0.0,0.0,0.0,0.0,0.0,0.0,0.0,0.0,0.0,0.0,0.0,0.0,0.0,0.0,0.0,0.0,0.0,0.0,0.0,0.0,0.0,0.0,0.0,0.0,0.0,0.0,0.0,0.0,0.0,0.0,0.0,0.0,0.0,0.0,0.0,-1.4727,0.0,0.0,0.0,0.0,0.0,0.0,0.0,0.0,0.0,0.0,0.0,0.0,0.0,0.0,0.0,0.0,0.0,0.0,0.0,0.0,0.0,0.0,0.0,0.0,0.0,0.0,0.0,0.0,0.0,0.0,0.0,0.0,0.0,0.0,0.0,0.0,0.0,0.0,0.0,0.0,0.0,0.0,0.0,0.0,0.0,0.0,0.0,0.0,0.0,0.0,0.0,0.0,0.0,0.0,0.0,0.0,0.0,0.0,0.0,0.0,0.0,0.0,0.0,0.0,0.0,0.0,0.0,0.0,0.0,0.0,0.0,0.0,0.0,0.0,0.0,0.0,0.0,0.0,0.0,0.0,0.0,0.0,0.0,0.0,0.0,0.0,0.0,0.0,0.0,0.0,0.0,0.0,0.0,0.0,0.0,0.0,0.0,0.0,0.0,0.0,0.0,0.0,0.0,0.0,0.0,0.0,0.0,0.0,0.0,0.0,-1.759,-1.6738,-1.6769,-1.6173,-1.488,0.0,0.0,0.0,0.0,0.0,0.0,0.0,0.0,0.0,0.0,0.0,0.0,0.0,0.0,0.0,0.0,0.0,0.0,0.0,0.0,0.0,0.0,0.0,0.0,0.0,0.0,0.0,0.0,0.0,0.0,0.0,0.0,0.0,0.0,0.0,0.0,0.0,0.0,0.0,0.0,0.0,0.0,0.0,0.0,0.0,0.0,0.0,0.0,0.0,0.0,0.0,0.0,0.0,0.0,0.0,0.0,0.0,0.0,0.0,0.0,0.0,0.0,0.0,0.0,0.0,0.0,0.0,0.0,0.0,0.0,0.0,0.0,0.0,0.0,0.0,0.0,0.0,0.0,0.0,0.0,0.0,0.0,0.0,0.0,0.0,0.0,0.0,0.0,0.0,0.0,0.0,0.0,0.0,0.0,0.0,0.0,0.0,0.0,0.0,0.0,0.0,0.0,0.0,0.0,0.0,0.0,0.0,0.0,0.0,0.0,0.0,0.0,-1.7043,-1.655,-1.5027,0.0,0.0,0.0,0.0,0.0,0.0,0.0,0.0,0.0,0.0,0.0,0.0,0.0,0.0,0.0,0.0,0.0,0.0,0.0,0.0,0.0,0.0,0.0,0.0,0.0,0.0,0.0,0.0,0.0,0.0,0.0,0.0,0.0,0.0,0.0,0.0,0.0,0.0,0.0,0.0,0.0,0.0,0.0,0.0,0.0,0.0,0.0,0.0,0.0,0.0,0.0,0.0,0.0,0.0,0.0,0.0,0.0,0.0,0.0,0.0,0.0,0.0,0.0,0.0,0.0,0.0,0.0,0.0,0.0,0.0,0.0,0.0,0.0,0.0,0.0,0.0,0.0,0.0,0.0,0.0,0.0,0.0,0.0,0.0,0.0,0.0,0.0,0.0,0.0,0.0,0.0,0.0,0.0,0.0,0.0,0.0,0.0,0.0,0.0,0.0,0.0,0.0,0.0,0.0,0.0,0.0,0.0,0.0,0.0,0.0,-1.8448,-1.6758,-1.6752,0.0,-1.543,0.0,0.0,0.0,0.0,0.0,0.0,0.0,0.0,0.0,0.0,0.0,0.0,0.0,0.0,0.0,0.0,0.0,0.0,0.0,0.0,0.0,0.0,0.0,0.0,0.0,0.0,0.0,0.0,0.0,0.0,0.0,0.0,0.0,0.0,0.0,0.0,0.0,0.0,0.0,0.0,0.0,0.0,0.0,0.0,0.0,0.0,0.0,0.0,0.0,0.0,0.0,0.0,0.0,0.0,0.0,0.0,0.0,0.0,0.0,0.0,0.0,0.0,0.0,0.0,0.0,0.0,0.0,0.0,0.0,0.0,0.0,0.0,0.0,0.0,0.0,0.0,0.0,0.0,0.0,0.0,0.0,0.0,0.0,0.0,0.0,0.0,0.0,0.0,0.0,0.0,0.0,0.0,0.0,0.0,0.0,0.0,0.0,0.0,0.0,0.0,0.0,0.0,0.0,0.0,0.0,0.0,0.0,0.0,0.0,0.0,-2.0139,-1.8646,-1.8041,-1.7445,0.0,0.0,0.0,0.0,0.0,0.0,0.0,0.0,0.0,0.0,0.0,0.0,0.0,0.0,0.0,0.0,0.0,0.0,0.0,0.0,0.0,0.0,0.0,0.0,0.0,0.0,0.0,0.0,0.0,0.0,0.0,0.0,0.0,0.0,0.0,0.0,0.0,0.0,0.0,0.0,0.0,0.0,0.0,0.0,0.0,0.0,0.0,0.0,0.0,0.0,0.0,0.0,0.0,0.0,0.0,0.0,0.0,0.0,0.0,0.0,0.0,0.0,0.0,0.0,0.0,0.0,0.0,0.0,0.0,0.0,0.0,0.0,0.0,0.0,0.0,0.0,0.0,0.0,0.0,0.0,0.0,0.0,0.0,0.0,0.0,0.0,0.0,0.0,0.0,0.0,0.0,0.0,0.0,0.0,0.0,0.0,0.0,0.0,0.0,0.0,0.0,0.0,0.0,0.0,0.0,0.0,0.0,0.0,0.0,0.0,-2.2052,-2.1175,-1.9772,-1.889,-1.8205,-1.7655,0.0,0.0,0.0,0.0,0.0,0.0,0.0,0.0,0.0,0.0,0.0,0.0,0.0,0.0,0.0,0.0,0.0,0.0,0.0,0.0,0.0,0.0,0.0,0.0,0.0,0.0,0.0,0.0,0.0,0.0,0.0,0.0,0.0,0.0,0.0,0.0,0.0,0.0,0.0,0.0,0.0,0.0,0.0,0.0,0.0,0.0,0.0,0.0,0.0,0.0,0.0,0.0,0.0,0.0,0.0,0.0,0.0,0.0,0.0,0.0,0.0,0.0,0.0,0.0,0.0,0.0,0.0,0.0,0.0,0.0,0.0,0.0,0.0,0.0,0.0,0.0,0.0,0.0,0.0,0.0,0.0,0.0,0.0,0.0,0.0,0.0,0.0,0.0,0.0,0.0,0.0,0.0,0.0,0.0,0.0,0.0,0.0,0.0,0.0,0.0,0.0,0.0,0.0,0.0,0.0,0.0,0.0,0.0,-2.3437,-2.2457,-2.1011,-1.925,-1.871,-1.8216,0.0,0.0,0.0,0.0,0.0,0.0,0.0,0.0,0.0,0.0,0.0,0.0,0.0,0.0,0.0,0.0,0.0,0.0,0.0,0.0,0.0,0.0,0.0,0.0,0.0,0.0,0.0,0.0,0.0,0.0,0.0,0.0,0.0,0.0,0.0,0.0,0.0,0.0,0.0,0.0,0.0,0.0,0.0,0.0,0.0,0.0,0.0,0.0,0.0,0.0,0.0,0.0,0.0,0.0,0.0,0.0,0.0,0.0,0.0,0.0,0.0,0.0,0.0,0.0,0.0,0.0,0.0,0.0,0.0,0.0,0.0,0.0,0.0,0.0,0.0,0.0,0.0,0.0,0.0,0.0,0.0,0.0,0.0,0.0,0.0,0.0,0.0,0.0,0.0,0.0,0.0,0.0,0.0,0.0,0.0,0.0,0.0,0.0,0.0,0.0,0.0,0.0,0.0,0.0,0.0,0.0,0.0,0.0,0.0,-2.3841,-2.3056,-2.2224,-2.1185,-2.0653,-2.0176,0.0,0.0,0.0,0.0,0.0,0.0,0.0,0.0,0.0,0.0,0.0,0.0,0.0,0.0,0.0,0.0,0.0,0.0,0.0,0.0,0.0,0.0,0.0,0.0,0.0,0.0,0.0,0.0,0.0,0.0,0.0,0.0,0.0,0.0,0.0,0.0,0.0,0.0,0.0,0.0,0.0,0.0,0.0,0.0,0.0,0.0,0.0,0.0,0.0,0.0,0.0,0.0,0.0,0.0,0.0,0.0,0.0,0.0,0.0,0.0,0.0,0.0,0.0,0.0,0.0,0.0,0.0,0.0,0.0,0.0,0.0,0.0,0.0,0.0,0.0,0.0,0.0,0.0,0.0,0.0,0.0,0.0,0.0,0.0,0.0,0.0,0.0,0.0,0.0,0.0,0.0,0.0,0.0,0.0,0.0,0.0,0.0,0.0,0.0,0.0,0.0,0.0,0.0,0.0,0.0,0.0,0.0,0.0,0.0,-2.373,0.0,-2.2786,-2.2071,-2.1694,-2.1142,0.0,0.0,0.0,0.0,0.0,0.0,0.0,0.0,0.0,0.0,0.0,0.0,0.0,0.0,0.0,0.0,0.0,0.0,0.0,0.0,0.0,0.0,0.0,0.0,0.0,0.0,0.0,0.0,0.0,0.0,0.0,0.0,0.0,0.0,0.0,0.0,0.0,0.0,0.0,0.0,0.0,0.0,0.0,0.0,0.0,0.0,0.0,0.0,0.0,0.0,0.0,0.0,0.0,0.0,0.0,0.0,0.0,0.0,0.0,0.0,0.0,0.0,0.0,0.0,0.0,0.0,0.0,0.0,0.0,0.0,0.0,0.0,0.0,0.0,0.0,0.0,0.0,0.0,0.0,0.0,0.0,0.0,0.0,0.0,0.0,0.0,0.0,0.0,0.0,0.0,0.0,0.0,0.0,0.0,0.0,0.0,0.0,0.0,0.0,0.0,0.0,0.0,0.0,0.0,0.0,0.0,0.0,0.0,-2.4268,-2.3201,-2.3138,-2.2636,-2.1568,-2.1518,-2.0978,0.0,0.0,0.0,0.0,0.0,0.0,0.0,0.0,0.0,0.0,0.0,0.0,0.0,0.0,0.0,0.0,0.0,0.0,0.0,0.0,0.0,0.0,0.0,0.0,0.0,0.0,0.0,0.0,0.0,0.0,0.0,0.0,0.0,0.0,0.0,0.0,0.0,0.0,0.0,0.0,0.0,0.0,0.0,0.0,0.0,0.0,0.0,0.0,0.0,0.0,0.0,0.0,0.0,0.0,0.0,0.0,0.0,0.0,0.0,0.0,0.0,0.0,0.0,0.0,0.0,0.0,0.0,0.0,0.0,0.0,0.0,0.0,0.0,0.0,0.0,0.0,0.0,0.0,0.0,0.0,0.0,0.0,0.0,0.0,0.0,0.0,0.0,0.0,0.0,0.0,0.0,0.0,0.0,0.0,0.0,0.0,0.0,0.0,0.0,0.0,0.0,0.0,0.0,0.0,0.0,0.0,0.0,0.0,0.0,-2.3163,-2.3125,-2.2915,-2.2623,-2.1882,-2.1317,0.0,0.0,0.0,0.0,0.0,0.0,0.0,0.0,0.0,0.0,0.0,0.0,0.0,0.0,0.0,0.0,0.0,0.0,0.0,0.0,0.0,0.0,0.0,0.0,0.0,0.0,0.0,0.0,0.0,0.0,0.0,0.0,0.0,0.0,0.0,0.0,0.0,0.0,0.0,0.0,0.0,0.0,0.0,0.0,0.0,0.0,0.0,0.0,0.0,0.0,0.0,0.0,0.0,0.0,0.0,0.0,0.0,0.0,0.0,0.0,0.0,0.0,0.0,0.0,0.0,0.0,0.0,0.0,0.0,0.0,0.0,0.0,0.0,0.0,0.0,0.0,0.0,0.0,0.0,0.0,0.0,0.0,0.0,0.0,0.0,0.0,0.0,0.0,0.0,0.0,0.0,0.0,0.0,0.0,0.0,0.0,0.0,0.0,0.0,0.0,0.0,0.0,0.0,0.0,0.0,0.0,0.0,0.0,0.0,-2.3741,-2.3766,-2.3503,-2.3138,-2.246,-2.1907,-2.1493,0.0,0.0,0.0,0.0,0.0,0.0,0.0,0.0,0.0,0.0,0.0,0.0,0.0,0.0,0.0,0.0,0.0,0.0,0.0,0.0,0.0,0.0,0.0,0.0,0.0,0.0,0.0,0.0,0.0,0.0,0.0,0.0,0.0,0.0,0.0,0.0,0.0,0.0,0.0,0.0,0.0,0.0,0.0,0.0,0.0,0.0,0.0,0.0,0.0,0.0,0.0,0.0,0.0,0.0,0.0,0.0,0.0,0.0,0.0,0.0,0.0,0.0,0.0,0.0,0.0,0.0,0.0,0.0,0.0,0.0,0.0,0.0,0.0,0.0,0.0,0.0,0.0,0.0,0.0,0.0,0.0,0.0,0.0,0.0,0.0,0.0,0.0,0.0,0.0,0.0,0.0,0.0,0.0,0.0,0.0,0.0,0.0,0.0,0.0,0.0,0.0,0.0,0.0,0.0,0.0,0.0,0.0,0.0,-2.4883,-2.4908,-2.4381,-2.3228,-2.309,-2.2636,0.0,0.0,0.0,0.0,0.0,0.0,0.0,0.0,0.0,0.0,0.0,0.0,0.0,0.0,0.0,0.0,0.0,0.0,0.0,0.0,0.0,0.0,0.0,0.0,0.0,0.0,0.0,0.0,0.0,0.0,0.0,0.0,0.0,0.0,0.0,0.0,0.0,0.0,0.0,0.0,0.0,0.0,0.0,0.0,0.0,0.0,0.0,0.0,0.0,0.0,0.0,0.0,0.0,0.0,0.0,0.0,0.0,0.0,0.0,0.0,0.0,0.0,0.0,0.0,0.0,0.0,0.0,0.0,0.0,0.0,0.0,0.0,0.0,0.0,0.0,0.0,0.0,0.0,0.0,0.0,0.0,0.0,0.0,0.0,0.0,0.0,0.0,0.0,0.0,0.0,0.0,0.0,0.0,0.0,0.0,0.0,0.0,0.0,0.0,0.0,0.0,0.0,0.0,0.0,0.0,0.0,0.0,0.0,0.0,-2.5398,-2.5812,-2.5511,-2.4342,-2.3577,-2.294,0.0,0.0,0.0,0.0,0.0,0.0,0.0,0.0,0.0,0.0,0.0,0.0,0.0,0.0,0.0,0.0,0.0,0.0,0.0,0.0,0.0,0.0,0.0,0.0,0.0,0.0,0.0,0.0,0.0,0.0,0.0,0.0,0.0,0.0,0.0,0.0,0.0,0.0,0.0,0.0,0.0,0.0,0.0,0.0,0.0,0.0,0.0,0.0,0.0,0.0,0.0,0.0,0.0,0.0,0.0,0.0,0.0,0.0,0.0,0.0,0.0,0.0,0.0,0.0,0.0,0.0,0.0,0.0,0.0,0.0,0.0,0.0,0.0,0.0,0.0,0.0,0.0,0.0,0.0,0.0,0.0,0.0,0.0,0.0,0.0,0.0,0.0,0.0,0.0,0.0,0.0,0.0,0.0,0.0,0.0,0.0,0.0,0.0,0.0,0.0,0.0,0.0,0.0,0.0,0.0,0.0,0.0,0.0,-2.59,-2.5963,-2.6289,-2.6219,-2.5523,-2.4632,-2.4066,0.0,0.0,0.0,0.0,0.0,0.0,0.0,0.0,0.0,0.0,0.0,0.0,0.0,0.0,0.0,0.0,0.0,0.0,0.0,0.0,0.0,0.0,0.0,0.0,0.0,0.0,0.0,0.0,0.0,0.0,0.0,0.0,0.0,0.0,0.0,0.0,0.0,0.0,0.0,0.0,0.0,0.0,0.0,0.0,0.0,0.0,0.0,0.0,0.0,0.0,0.0,0.0,0.0,0.0,0.0,0.0,0.0,0.0,0.0,0.0,0.0,0.0,0.0,0.0,0.0,0.0,0.0,0.0,0.0,0.0,0.0,0.0,0.0,0.0,0.0,0.0,0.0,0.0,0.0,0.0,0.0,0.0,0.0,0.0,0.0,0.0,0.0,0.0,0.0,0.0,0.0,0.0,0.0,0.0,0.0,0.0,0.0,0.0,0.0,0.0,0.0,0.0,0.0,0.0,0.0,0.0,0.0,0.0,-2.6961,-2.6602,-2.6521,-2.6533,-2.6564,-2.5967,-2.5511,0.0,0.0,0.0,0.0,0.0,0.0,0.0,0.0,0.0,0.0,0.0,0.0,0.0,0.0,0.0,0.0,0.0,0.0,0.0,0.0,0.0,0.0,0.0,0.0,0.0,0.0,0.0,0.0,0.0,0.0,0.0,0.0,0.0,0.0,0.0,0.0,0.0,0.0,0.0,0.0,0.0,0.0,0.0,0.0,0.0,0.0,0.0,0.0,0.0,0.0,0.0,0.0,0.0,0.0,0.0,0.0,0.0,0.0,0.0,0.0,0.0,0.0,0.0,0.0,0.0,0.0,0.0,0.0,0.0,0.0,0.0,0.0,0.0,0.0,0.0,0.0,0.0,0.0,0.0,0.0,0.0,0.0,0.0,0.0,0.0,0.0,0.0,0.0,0.0,0.0,0.0,0.0,0.0,0.0,0.0,0.0,0.0,0.0,0.0,0.0,0.0,0.0,0.0,0.0,0.0,0.0,0.0,0.0,-2.6426,-2.7404,-2.685,-2.6782,-2.7417,-2.6276,-2.5868,0.0,0.0,0.0,0.0,0.0,0.0,0.0,0.0,0.0,0.0,0.0,0.0,0.0,0.0,0.0,0.0,0.0,0.0,0.0,0.0,0.0,0.0,0.0,0.0,0.0,0.0,0.0,0.0,0.0,0.0,0.0,0.0,0.0,0.0,0.0,0.0,0.0,0.0,0.0,0.0,0.0,0.0,0.0,0.0,0.0,0.0,0.0,0.0,-2.1688,0.0,0.0,0.0,0.0,0.0,0.0,0.0,0.0,0.0,0.0,0.0,0.0,0.0,0.0,0.0,0.0,0.0,0.0,0.0,0.0,0.0,0.0,0.0,0.0,0.0,0.0,0.0,0.0,0.0,0.0,0.0,0.0,0.0,0.0,0.0,0.0,0.0,0.0,0.0,0.0,0.0,0.0,0.0,0.0,0.0,0.0,0.0,0.0,0.0,0.0,0.0,0.0,0.0,0.0,0.0,0.0,0.0,0.0,0.0,-2.6598,-2.7657,-2.7284,-2.7471,-2.8233,-2.7601,-2.7258,0.0,0.0,0.0,0.0,0.0,0.0,0.0,0.0,0.0,0.0,0.0,0.0,0.0,0.0,0.0,0.0,0.0,0.0,0.0,0.0,0.0,0.0,0.0,0.0,0.0,0.0,0.0,0.0,0.0,0.0,0.0,0.0,0.0,0.0,0.0,0.0,0.0,0.0,0.0,0.0,0.0,0.0,0.0,0.0,0.0,0.0,0.0,0.0,0.0,0.0,0.0,0.0,0.0,0.0,0.0,0.0,0.0,0.0,0.0,0.0,0.0,0.0,0.0,0.0,0.0,0.0,0.0,0.0,0.0,0.0,0.0,0.0,0.0,0.0,0.0,0.0,0.0,0.0,0.0,0.0,0.0,0.0,0.0,0.0,0.0,0.0,0.0,0.0,0.0,0.0,0.0,0.0,0.0,0.0,0.0,0.0,0.0,0.0,0.0,0.0,0.0,0.0,0.0,0.0,0.0,0.0,0.0,-2.6595,-2.7297,-2.8051,-2.7999,-2.8312,-2.9192,-2.9192,-2.8955,-2.838,0.0,0.0,0.0,0.0,0.0,0.0,0.0,0.0,0.0,0.0,0.0,0.0,0.0,0.0,0.0,0.0,0.0,0.0,0.0,0.0,0.0,0.0,0.0,0.0,0.0,0.0,0.0,0.0,0.0,0.0,0.0,0.0,0.0,0.0,0.0,0.0,0.0,0.0,-2.3304,-2.4471,0.0,0.0,0.0,0.0,0.0,0.0,0.0,0.0,-2.3537,0.0,0.0,0.0,0.0,0.0,0.0,0.0,0.0,0.0,0.0,0.0,0.0,0.0,0.0,0.0,0.0,0.0,0.0,0.0,0.0,0.0,0.0,0.0,0.0,0.0,0.0,0.0,0.0,0.0,0.0,0.0,0.0,0.0,0.0,0.0,0.0,0.0,0.0,0.0,0.0,0.0,0.0,0.0,0.0,0.0,0.0,0.0,0.0,0.0,0.0,0.0,0.0,0.0,0.0,0.0,0.0,-2.8457,-2.8566,-2.8989,-2.9827,-2.9192,-2.9192,-3.0086,-3.0072,-3.0029,-2.99,0.0,0.0,0.0,0.0,0.0,0.0,0.0,0.0,0.0,0.0,0.0,0.0,0.0,0.0,0.0,0.0,0.0,0.0,0.0,0.0,0.0,0.0,0.0,0.0,0.0,0.0,0.0,0.0,0.0,0.0,0.0,0.0,0.0,0.0,0.0,0.0,0.0,0.0,0.0,-2.5179,-2.5597,0.0,0.0,0.0,0.0,0.0,0.0,0.0,0.0,-2.4399,0.0,0.0,0.0,0.0,0.0,0.0,0.0,0.0,0.0,0.0,0.0,0.0,0.0,0.0,0.0,0.0,0.0,0.0,0.0,0.0,0.0,0.0,0.0,0.0,0.0,0.0,0.0,0.0,0.0,0.0,0.0,0.0,0.0,0.0,0.0,0.0,0.0,0.0,0.0,0.0,0.0,0.0,0.0,0.0,0.0,0.0,0.0,0.0,0.0,0.0,0.0,0.0,0.0,0.0,0.0,-2.8989,-2.8989,-2.9442,-3.0269,-2.9889,-3.0072,-3.0896,-3.0896,-3.0911,0.0,0.0,0.0,0.0,0.0,0.0,0.0,0.0,0.0,0.0,0.0,0.0,0.0,0.0,0.0,0.0,0.0,0.0,0.0,0.0,0.0,0.0,0.0,0.0,0.0,0.0,0.0,0.0,0.0,0.0,0.0,0.0,0.0,0.0,0.0,0.0,0.0,0.0,0.0,0.0,-2.5782,-2.6219,-2.6351,0.0,0.0,0.0,0.0,0.0,0.0,-2.5067,-2.5067,0.0,0.0,0.0,0.0,0.0,0.0,0.0,0.0,0.0,0.0,0.0,0.0,0.0,0.0,0.0,0.0,0.0,0.0,0.0,0.0,0.0,0.0,0.0,0.0,0.0,0.0,0.0,0.0,0.0,0.0,0.0,0.0,0.0,0.0,0.0,0.0,0.0,0.0,0.0,0.0,0.0,0.0,0.0,0.0,0.0,0.0,0.0,0.0,0.0,0.0,0.0,0.0,0.0,0.0,0.0,-2.9504,-2.9504,-2.9827,-3.0524,-3.0524,-3.0837,-3.1482,-3.1467,-3.1467,0.0,0.0,0.0,0.0,0.0,0.0,0.0,0.0,0.0,0.0,0.0,0.0,0.0,0.0,0.0,0.0,0.0,0.0,0.0,0.0,0.0,0.0,0.0,0.0,0.0,0.0,0.0,0.0,0.0,0.0,0.0,0.0,0.0,0.0,0.0,0.0,0.0,0.0,0.0,0.0,0.0,-2.6708,-2.6708,-2.6708,0.0,0.0,0.0,0.0,-2.6048,-2.6048,0.0,0.0,0.0,0.0,0.0,0.0,0.0,0.0,0.0,0.0,0.0,0.0,0.0,0.0,0.0,0.0,0.0,0.0,0.0,0.0,0.0,0.0,0.0,0.0,0.0,0.0,0.0,0.0,0.0,0.0,0.0,0.0,0.0,0.0,0.0,0.0,0.0,0.0,0.0,0.0,0.0,0.0,0.0,0.0,0.0,0.0,0.0,0.0,0.0,0.0,0.0,0.0,0.0,0.0,0.0,0.0,-3.1219,-3.1219,-3.1292,-3.1351,-3.1351,-3.1409,-3.1467,-3.1467,-3.1467,0.0,0.0,0.0,0.0,0.0,0.0,0.0,0.0,0.0,0.0,0.0,0.0,0.0,0.0,0.0,0.0,0.0,0.0,0.0,0.0,0.0,0.0,0.0,0.0,0.0,0.0,0.0,0.0,0.0,0.0,0.0,0.0,0.0,0.0,0.0,0.0,0.0,0.0,0.0,0.0,0.0,-2.6708,-2.6708,-2.6708,-2.6708,0.0,0.0,-2.7536,-2.7536,-2.7571,0.0,0.0,0.0,0.0,0.0,0.0,0.0,0.0,0.0,0.0,0.0,0.0,0.0,0.0,0.0,0.0,0.0,0.0,0.0,0.0,0.0,0.0,0.0,0.0,0.0,0.0,0.0,0.0,0.0,0.0,0.0,0.0,0.0,0.0,0.0,0.0,0.0,0.0,0.0,0.0,0.0,0.0,0.0,0.0,0.0,0.0,0.0,0.0,0.0,0.0,0.0,0.0,0.0,0.0,0.0,-3.1467,-3.1467,-3.1467,-3.1467,-3.1467,-3.1467,-3.1467,-3.1467,-3.1467,-3.1467,0.0,0.0,0.0,0.0,0.0,0.0,0.0,0.0,0.0,0.0,0.0,0.0,0.0,0.0,0.0,0.0,0.0,0.0,0.0,0.0,0.0,0.0,0.0,0.0,0.0,0.0,0.0,0.0,0.0,0.0,0.0,0.0,0.0,0.0,0.0,0.0,0.0,0.0,0.0,0.0,0.0,0.0,-2.7926,-2.7811,0.0,0.0,0.0,-2.8305,-2.875,0.0,0.0,0.0,0.0,0.0,0.0,0.0,0.0,0.0,0.0,0.0,0.0,0.0,0.0,0.0,0.0,0.0,0.0,0.0,0.0,0.0,0.0,0.0,0.0,0.0,0.0,0.0,0.0,0.0,0.0,0.0,0.0,0.0,0.0,0.0,0.0,0.0,0.0,0.0,0.0,0.0,0.0,0.0,0.0,0.0,0.0,0.0,0.0,0.0,0.0,0.0,0.0,0.0,0.0,0.0,0.0,0.0,-3.1721,-3.1943,-3.1943,-3.1779,-3.1779,-3.1721,-3.1779,-3.1629,0.0,0.0,0.0,0.0,0.0,0.0,0.0,0.0,0.0,0.0,0.0,0.0,0.0,0.0,0.0,0.0,0.0,0.0,0.0,0.0,0.0,0.0,0.0,0.0,0.0,0.0,0.0,-2.3789,0.0,0.0,0.0,0.0,0.0,0.0,0.0,0.0,0.0,0.0,0.0,0.0,0.0,0.0,-2.8332,-2.8943,-2.8733,-2.8665,0.0,0.0,-2.9059,-2.978,-2.9866,-2.9848,0.0,0.0,0.0,0.0,0.0,0.0,0.0,0.0,0.0,0.0,0.0,0.0,0.0,0.0,0.0,0.0,0.0,0.0,0.0,0.0,0.0,0.0,0.0,0.0,0.0,0.0,0.0,0.0,0.0,0.0,0.0,0.0,0.0,0.0,0.0,0.0,0.0,0.0,0.0,0.0,0.0,0.0,0.0,0.0,0.0,0.0,0.0,0.0,0.0,0.0,0.0,0.0,0.0,0.0,0.0,-3.2467,-3.3051,-3.3051,-3.2482,-3.2437,-3.2452,-3.2437,-3.1854,-3.1839,0.0,0.0,0.0,0.0,0.0,0.0,0.0,0.0,0.0,0.0,0.0,0.0,0.0,0.0,0.0,0.0,0.0,0.0,0.0,0.0,0.0,0.0,0.0,0.0,0.0,0.0,0.0,0.0,0.0,0.0,0.0,0.0,0.0,0.0,0.0,0.0,0.0,0.0,0.0,0.0,0.0,-2.8924,-2.9011,-2.8977,-2.8996,0.0,0.0,-3.0108,-3.056,-3.063,-3.0523,-3.0229,0.0,0.0,0.0,0.0,0.0,0.0,0.0,0.0,0.0,0.0,0.0,0.0,0.0,0.0,0.0,0.0,0.0,0.0,0.0,0.0,0.0,0.0,0.0,0.0,0.0,0.0,0.0,0.0,0.0,0.0,0.0,0.0,0.0,0.0,0.0,0.0,0.0,0.0,0.0,0.0,0.0,0.0,0.0,0.0,0.0,0.0,0.0,0.0,0.0,0.0,0.0,0.0,0.0,-3.2527,-3.2527,-3.3155,-3.3365,-3.314,-3.3125,-3.311,-3.3125,-3.2886,-3.2677,0.0,0.0,0.0,0.0,0.0,0.0,0.0,0.0,0.0,0.0,0.0,0.0,0.0,0.0,0.0,0.0,0.0,0.0,0.0,0.0,0.0,0.0,0.0,0.0,0.0,0.0,0.0,0.0,-2.5151,-2.5944,-2.7292,0.0,0.0,0.0,0.0,0.0,0.0,0.0,0.0,0.0,0.0,-2.9837,-3.0277,-3.0128,0.0,0.0,-3.0642,-3.108,-3.1739,-3.2057,-3.2192,-3.2061,-3.2086,0.0,0.0,0.0,0.0,0.0,0.0,0.0,0.0,0.0,0.0,0.0,0.0,0.0,0.0,0.0,0.0,0.0,0.0,0.0,0.0,0.0,0.0,0.0,0.0,0.0,0.0,0.0,0.0,0.0,0.0,0.0,0.0,0.0,0.0,0.0,0.0,0.0,0.0,0.0,0.0,0.0,0.0,0.0,0.0,0.0,0.0,0.0,0.0,0.0,0.0,0.0,0.0,-3.2811,-3.2811,-3.3649,-3.4008,-3.3799,-3.3784,-3.3784,-3.3784,-3.3604,-3.3365,0.0,0.0,0.0,0.0,0.0,0.0,0.0,0.0,0.0,0.0,0.0,0.0,0.0,0.0,0.0,0.0,0.0,0.0,0.0,0.0,0.0,0.0,0.0,0.0,0.0,0.0,0.0,0.0,-2.6287,-2.7354,-2.8878,0.0,0.0,0.0,0.0,0.0,0.0,0.0,0.0,0.0,0.0,-3.0615,-3.1123,-3.1082,-3.1076,-3.1342,-3.1516,-3.193,-3.2592,-3.2983,-3.3153,-3.3052,0.0,0.0,0.0,0.0,0.0,0.0,0.0,0.0,0.0,0.0,0.0,0.0,0.0,0.0,0.0,0.0,0.0,0.0,0.0,0.0,0.0,0.0,0.0,0.0,0.0,0.0,0.0,0.0,0.0,0.0,-3.4095,0.0,0.0,0.0,0.0,0.0,0.0,0.0,0.0,0.0,0.0,0.0,0.0,0.0,0.0,0.0,0.0,0.0,0.0,0.0,0.0,0.0,0.0,-3.3484,-3.3484,-3.4756,-3.5115,-3.4487,-3.4457,-3.4457,-3.4457,-3.3844,-3.3799,-3.4382,0.0,0.0,0.0,0.0,0.0,0.0,0.0,0.0,0.0,0.0,0.0,0.0,0.0,0.0,0.0,0.0,0.0,0.0,0.0,0.0,0.0,0.0,0.0,0.0,0.0,0.0,-2.5766,-2.6642,-2.7614,0.0,0.0,0.0,0.0,0.0,0.0,0.0,0.0,0.0,0.0,-3.119,-3.1173,-3.119,-3.1528,-3.17,-3.1752,-3.2161,-3.2613,-3.3075,-3.3184,-3.3078,0.0,0.0,0.0,0.0,0.0,0.0,0.0,0.0,0.0,0.0,0.0,0.0,0.0,0.0,0.0,0.0,0.0,0.0,0.0,0.0,0.0,0.0,0.0,0.0,0.0,0.0,0.0,-3.516,-3.5175,0.0,0.0,0.0,0.0,0.0,0.0,0.0,0.0,0.0,0.0,0.0,-3.5489,-3.5489,0.0,0.0,0.0,0.0,0.0,0.0,0.0,0.0,0.0,0.0,0.0,0.0,-3.4158,-3.4188,-3.504,-3.54,-3.5175,-3.516,-3.516,-3.516,-3.4951,-3.4711,-3.4472,0.0,0.0,0.0,0.0,0.0,0.0,0.0,0.0,0.0,0.0,0.0,0.0,0.0,0.0,0.0,0.0,0.0,0.0,0.0,0.0,0.0,0.0,0.0,0.0,0.0,-2.7519,0.0,0.0,0.0,0.0,0.0,0.0,0.0,0.0,0.0,0.0,0.0,-3.119,-3.119,-3.119,-3.119,-3.119,-3.1329,-3.1428,0.0,0.0,0.0,0.0,0.0,0.0,0.0,0.0,0.0,0.0,0.0,0.0,0.0,0.0,-3.3311,-3.3036,-3.2999,-3.2999,-3.2981,0.0,0.0,0.0,0.0,0.0,0.0,0.0,0.0,0.0,0.0,0.0,0.0,0.0,0.0,-3.6043,0.0,-3.5848,0.0,0.0,0.0,0.0,0.0,0.0,0.0,0.0,-3.5489,-3.5489,-3.5489,-3.5489,-3.5489,0.0,-3.5489,-3.5489,0.0,0.0,0.0,0.0,0.0,0.0,0.0,0.0,-3.4472,-3.4502,-3.516,-3.5489,-3.5489,-3.5489,-3.5489,-3.5489,-3.5489,-3.5304,-3.4894,-3.4031,-3.3573,0.0,0.0,0.0,0.0,0.0,0.0,0.0,0.0,0.0,0.0,0.0,0.0,0.0,0.0,0.0,0.0,0.0,0.0,0.0,0.0,0.0,0.0,0.0,-2.8947,0.0,0.0,0.0,0.0,0.0,0.0,0.0,0.0,0.0,-3.2087,-3.1968,-3.1867,-3.1613,-3.1579,-3.1478,-3.1241,0.0,0.0,0.0,0.0,0.0,0.0,0.0,-3.3807,-3.3807,-3.3807,-3.3807,-3.3807,-3.3807,-3.3807,-3.3807,0.0,0.0,-3.3807,-3.3807,-3.3807,-3.3807,-3.3385,-3.3201,-3.3697,-3.2981,-3.2375,0.0,0.0,0.0,0.0,0.0,0.0,0.0,0.0,-3.7135,-3.7045,0.0,-3.6507,0.0,0.0,0.0,0.0,0.0,-3.5519,0.0,0.0,-3.5489,-3.5489,-3.5489,-3.5489,-3.5489,-3.5489,-3.5489,-3.5489,-3.5489,-3.5489,0.0,0.0,0.0,0.0,0.0,0.0,-3.4517,-3.4547,-3.5175,-3.5489,-3.5489,-3.5489,-3.5489,-3.5554,-3.5554,-3.5655,-3.567,-3.5636,-3.566,-3.5796,-3.6408,0.0,0.0,0.0,0.0,0.0,0.0,0.0,0.0,0.0,0.0,0.0,0.0,0.0,0.0,0.0,0.0,0.0,0.0,0.0,0.0,-3.0179,0.0,0.0,0.0,0.0,0.0,0.0,0.0,0.0,0.0,0.0,-3.3474,-3.3406,-3.3119,-3.2357,0.0,0.0,0.0,0.0,-3.1967,-3.2368,-3.2858,-3.3302,-3.368,-3.3762,-3.3807,-3.3807,0.0,0.0,-3.3807,-3.3807,-3.3807,-3.3807,-3.3807,-3.3807,-3.3807,-3.3807,-3.3807,-3.3807,-3.3788,-3.3807,-3.3807,-3.3733,-3.3678,-3.8153,0.0,0.0,0.0,0.0,-3.706,-3.7135,-3.715,-3.733,-3.7315,-3.715,-3.7135,0.0,0.0,0.0,0.0,0.0,0.0,-3.5489,-3.5489,-3.5489,-3.5489,-3.5489,-3.5489,-3.5489,-3.5489,-3.5489,-3.5489,-3.5489,-3.5489,-3.54,-3.522,0.0,0.0,0.0,0.0,-3.5205,-3.522,-3.54,-3.5489,-3.5489,-3.5489,-3.5703,-3.629,-3.6814,-3.7125,-3.7171,-3.6721,-3.6469,-3.6541,-3.6685,0.0,0.0,0.0,0.0,0.0,0.0,0.0,0.0,0.0,0.0,0.0,0.0,0.0,0.0,0.0,0.0,0.0,0.0,0.0,-3.0299,-3.0474,-3.0948,0.0,0.0,0.0,0.0,0.0,0.0,0.0,0.0,0.0,-3.4979,-3.4049,-3.3136,0.0,0.0,-3.2628,-3.1376,-3.1732,-3.2008,-3.1648,-3.2213,0.0,-3.284,-3.3372,-3.3807,-3.3807,-3.3807,-3.3807,-3.3807,-3.3807,-3.3807,-3.3807,-3.3807,-3.3807,-3.3807,-3.3807,-3.3807,-3.3807,-3.3807,-3.3807,-3.3807,-3.3807,-3.3807,-4.0711,-3.9305,-3.8527,-3.8197,-3.8227,-3.8482,-3.8601,-3.8601,-3.8586,-3.8452,-3.8182,-3.7913,-3.7659,-3.7404,-3.7404,0.0,0.0,0.0,-3.6252,-3.6252,-3.6252,-3.6133,-3.5908,-3.5893,-3.5744,-3.5504,-3.5489,-3.5489,-3.5489,-3.5489,-3.5489,-3.5489,0.0,0.0,-3.5489,-3.5489,-3.5489,-3.5489,-3.5489,-3.5489,-3.5504,-3.5782,-3.629,-3.704,-3.7573,-3.7921,-3.8246,-3.7825,-3.7802,-3.8105,-3.8131,-3.797,0.0,0.0,0.0,0.0,0.0,0.0,0.0,0.0,0.0,0.0,0.0,-3.3198,-3.3354,0.0,0.0,0.0,-3.1436,-3.1347,-3.1781,-3.2003,0.0,0.0,0.0,0.0,0.0,0.0,0.0,-3.4336,-3.5081,-3.5639,-3.5605,-3.4844,-3.3998,-3.3254,-3.3558,-3.3406,-3.2239,0.0,-3.2201,-3.1939,-3.2248,-3.255,-3.2745,-3.3361,-3.3807,-3.3807,-3.3807,-3.3807,-3.3807,-3.3807,-3.3807,-3.3807,-3.3807,-3.3807,-3.3807,-3.3807,-3.3807,-3.3807,-3.3807,-3.3807,-3.3807,-3.3807,-3.3807,-4.3195,-4.2417,-4.0591,-3.9738,-3.9634,-4.0217,-4.0472,-4.0487,-4.0472,-4.0142,-3.9529,-3.8841,-3.8182,-3.7569,-3.7509,0.0,-3.7479,-3.7434,-3.7389,-3.7404,-3.7404,-3.7105,-3.6567,-3.6507,-3.6178,-3.5594,-3.5534,-3.5489,-3.5489,-3.5489,-3.5489,-3.5489,-3.5489,-3.5489,-3.5489,-3.5489,-3.5489,-3.5489,-3.5489,-3.5504,-3.5619,-3.6275,-3.7084,-3.7863,-3.7921,-3.8302,-3.8978,-3.8962,-3.9315,-4.007,-4.0087,-3.9783,-3.9123,0.0,0.0,0.0,0.0,0.0,0.0,0.0,0.0,0.0,0.0,0.0,0.0,0.0,0.0,0.0,-3.3713,0.0,-3.3764,-3.4366,0.0,0.0,0.0,-3.5791,-3.5808,-3.574,-3.5707,-3.5723,0.0,0.0,-3.5639,-3.5622,-3.5368,-3.4675,-3.459,-3.4303,-3.3508,-3.2865,-3.2627,-3.2934,-3.2862,-3.2862,-3.3355,-3.3731,-3.3972,-3.3972,-3.3844,-3.3807,-3.3807,-3.3807,-3.3807,-3.3807,-3.3807,-3.3807,-3.3807,-3.3807,-3.3807,-3.3807,-3.3807,-3.3807,-3.3807,-3.3807,-3.3807,-4.5214,-4.4526,-4.3554,-4.2297,-4.0935,-4.1085,-4.1145,-4.1145,-4.1145,-4.1055,-4.0861,-4.0217,-3.9544,-3.8916,-3.8392,-3.8153,-3.8138,-3.7644,-3.7404,-3.7404,-3.7404,-3.733,-3.7165,-3.6716,-3.6402,-3.6222,-3.5744,-3.5489,-3.5489,-3.5489,-3.5489,-3.5489,-3.5489,-3.5489,-3.5489,-3.5489,-3.5489,-3.5489,-3.5489,-3.5782,-3.6337,-3.71,-3.7847,-3.8635,-3.9226,-3.9627,-3.9799,-3.9782,-3.9901,-4.007,-4.0087,-4.0036,-3.9834,-3.9292,0.0,0.0,0.0,0.0,0.0,0.0,0.0,0.0,0.0,-3.7064,-3.6333,0.0,-3.5366,0.0,-3.4762,-3.4659,-3.5168,-3.5843,0.0,0.0,-3.7253,-3.7364,-3.7347,-3.6857,-3.6502,-3.6502,-3.5977,-3.5639,-3.5639,-3.5639,-3.5554,-3.5385,-3.5351,-3.4878,-3.3626,-3.3761,-3.3804,-3.3451,-3.387,-3.4287,-3.4403,-3.457,-3.4679,-3.4697,-3.4211,-3.3825,-3.3807,-3.3807,-3.3807,-3.3807,-3.3807,-3.3807,-3.3807,-3.3807,-3.3807,-3.3807,-3.3807,-3.3807,-3.3807,-3.3807,-3.3807,-4.6381,-4.5693,-4.5035,-4.3958,-4.2671,-4.2357,-4.2252,-4.2222,-4.1938,-4.1818,-4.1773,-4.1115,-4.0472,-3.9843,-3.9454,-3.9125,-3.8841,-3.8467,-3.8302,-3.8302,-3.8302,-3.8138,-3.7838,-3.7494,-3.718,-3.6881,-3.6252,-3.5938,-3.5923,-3.5654,-3.5489,-3.5489,-3.5489,-3.5489,-3.5489,-3.5489,-3.5489,-3.5504,-3.5793,-3.652,-3.7568,-3.806,-3.8635,-3.942,-3.985,-4.0087,-4.0087,-4.0087,-4.0087,-4.0087,-4.0087,-4.0087,-4.007,-3.9698,-3.9478,0.0,0.0,0.0,0.0,0.0,0.0,0.0,0.0,0.0,0.0,0.0,-3.6652,-3.6669,-3.6357,-3.6307,-3.6669,-3.7036,-3.7451,-3.7858,-3.7922,-3.7922,-3.7922,-3.7533,-3.728,-3.728,-3.6603,-3.6129,-3.6146,-3.5842,-3.5639,-3.5639,-3.5639,-3.5318,-3.4617,-3.467,-3.4685,-3.4333,-3.4758,-3.5232,-3.5432,-3.5223,-3.499,-3.4917,-3.4339,-3.3807,-3.3807,-3.3807,-3.3807,-3.3807,-3.3807,-3.3807,-3.3807,-3.3807,-3.3807,-3.3807,-3.3807,-3.3807,-3.3807,-3.3807,-3.3807,-4.6965,-4.6396,-4.5708,-4.5095,-4.4511,-4.3778,-4.3419,-4.3299,-4.2731,-4.2447,-4.2404,-4.1758,-4.1145,-4.0531,-4.0531,-4.0172,-3.9559,-3.9559,-3.9499,-3.9424,-3.9424,-3.914,-3.8646,-3.8467,-3.8138,-3.7644,-3.6941,-3.6611,-3.6582,-3.5953,-3.5639,-3.5624,-3.5564,-3.5489,-3.5504,-3.5554,-3.5619,-3.5668,-3.6372,-3.7464,-3.8854,-3.8924,-3.9262,-4.007,-4.0087,-4.0087,-4.0087,-4.0087,-4.0087,-4.0087,-4.0087,-4.0087,-4.0087,-4.0087,-4.0087,0.0,-4.0087,0.0,0.0,0.0,0.0,0.0,0.0,0.0,0.0,-3.8058,-3.8007,-3.7922,-3.799,-3.8041,-3.8041,-3.8142,-3.8193,-3.8193,-3.8176,-3.8193,-3.8193,-3.8108,-3.8058,-3.8041,-3.7398,-3.6924,-3.6891,-3.6248,-3.5774,-3.5808,-3.569,-3.5588,-3.5582,-3.5403,-3.5301,-3.5348,-3.5616,-3.6053,-3.6456,-3.5944,-3.5385,-3.5155,-3.4559,-3.3935,-3.3807,-3.3807,-3.3807,-3.3807,-3.3807,-3.3807,-3.3807,-3.3807,-3.3807,-3.3807,-3.3807,-3.3807,-3.3807,-3.3807,-3.3807,-4.7234,-4.7055,-4.6396,-4.6067,-4.5843,-4.4646,-4.3823,-4.3329,-4.3195,-4.2851,-4.2372,-4.2237,-4.1803,-4.122,-4.119,-4.0831,-4.0217,-4.0217,-3.9933,-3.9424,-3.9424,-3.9634,-3.9933,-3.8901,-3.8616,-3.896,-3.7808,-3.7225,-3.7225,-3.6611,-3.6297,-3.6282,-3.5759,-3.5489,-3.5569,0.0,0.0,0.0,-3.718,-3.8005,-3.8859,-3.8924,-3.9246,-4.007,-4.0087,0.0,-4.0087,-4.0087,-4.0087,-4.0087,-4.0087,0.0,0.0,0.0,0.0,0.0,0.0,0.0,0.0,0.0,0.0,0.0,-3.958,-3.9428,-3.8853,-3.8785,-3.8548,-3.799,-3.843,-3.8785,-3.8785,-3.9326,-3.9665,-3.9665,-3.9665,-3.9665,-3.9648,-3.914,-3.8785,-3.8768,-3.8142,-3.7702,-3.7652,-3.7043,-3.6552,-3.6485,-3.6011,-3.5656,-3.5639,-3.5586,-3.5545,-3.5572,-3.6369,-3.7218,-3.8089,-3.7496,-3.6652,-3.6174,-3.5349,-3.4596,-3.4027,-3.388,-3.3844,-3.388,-3.3807,-3.3825,-3.3825,-3.3807,-3.3807,-3.3807,-3.3807,-3.3807,-3.3807,-3.3807,-3.3807,-4.7309,0.0,-4.6591,-4.6322,0.0,-4.5229,-4.4616,-4.4257,-4.3614,-4.3135,-4.2851,-4.2851,-4.2476,-4.1863,-4.1863,-4.1504,-4.0891,-4.0891,-4.0696,-4.0397,-4.0382,-4.0561,-4.0861,-3.9843,-3.9559,-3.9843,-3.8527,-3.7898,-3.7853,-3.7255,-3.6941,-3.6926,-3.6312,-3.615,-3.6542,-3.7335,-3.7722,-3.7758,-3.8117,-3.8706,-3.9456,-3.9506,-3.9662,-4.007,-4.0087,0.0,0.0,0.0,0.0,0.0,0.0,0.0,0.0,0.0,0.0,-4.0087,-4.0087,-4.0087,-4.0087,-4.0087,-4.0087,-4.0087,-4.0087,-3.9935,-3.9546,-3.9529,-3.9377,-3.9039,-3.9326,-3.9529,-3.9529,-3.9868,-4.0087,-4.0087,-4.0087,-4.0087,-4.0037,-3.9749,-3.9529,-3.9462,-3.887,-3.843,-3.843,-3.7466,-3.6823,-3.6738,-3.6113,-3.5639,-3.5667,-3.6037,-3.6522,-3.7041,-3.7524,-3.8083,-3.8491,-3.8028,-3.7404,-3.6872,-3.6193,-3.555,-3.511,-3.5037,-3.5018,-3.5,-3.4706,-3.4394,-3.4357,-3.4082,-3.3807,-3.3807,-3.3807,-3.3807,-3.3807,-3.3807,-3.3807,-4.7414,-4.7264,-4.6726,-4.6501,-4.6456,-4.5768,-4.5409,-4.5214,0.0,0.0,0.0,-4.3344,-4.3045,-4.2536,-4.2536,-4.2177,-4.1564,-4.1564,-4.1504,-4.1384,-4.1384,-4.1444,-4.1519,-4.0876,-4.0576,-4.0516,-3.9334,-3.8676,-3.8542,-3.7898,-3.7599,-3.7524,-3.6956,-3.7112,-3.8013,-3.8753,-3.9216,-3.9322,-3.9157,-3.943,-4.0054,-4.0087,-4.0087,-4.0087,-4.0087,-4.0087,-4.0087,-4.0087,-4.0087,-4.0087,-4.0087,-4.0087,-4.0087,-4.0087,-4.0087,-4.0087,-4.0087,-4.0087,-4.0087,-4.0087,-4.0087,-4.0087,-4.0087,-4.0087,-4.0087,-4.0087,-4.0087,-4.0087,-4.0087,-4.007,-4.0087,-4.0087,-4.0087,-4.0087,-4.0087,-4.0087,-4.0087,-4.0087,-4.0054,-4.002,-3.9529,-3.9191,-3.914,-3.8058,-3.7094,-3.6924,-3.6366,-3.5785,-3.5844,-3.6457,-3.721,-3.7964,-3.8201,-3.8496,-3.8585,-3.823,-3.7698,-3.747,-3.6909,-3.6486,-3.634,-3.6285,-3.6285,-3.6138,-3.5679,-3.533,-3.5155,-3.4614,-3.4045,-3.4009,-3.3899,-3.3807,-3.3807,-3.3807,-3.3807,-4.7818,-4.7294,-4.7204,-4.716,-4.7115,-4.6456,-4.5843,-4.5229,-4.4496,-4.3853,-4.3344,-4.3344,-4.3269,-4.3195,-4.3195,-4.2836,-4.2237,-4.2222,-4.1923,-4.1399,-4.1384,-4.1683,-4.2177,-4.1564,-4.125,-4.119,-4.0472,-3.9828,-3.9245,-3.8586,-3.8257,-3.8167,-3.7599,-3.8065,-3.9495,-3.9846,-4.0242,-4.0862,-4.0273,-3.9986,-4.007,-4.0087,-4.0087,-4.0087,-4.0087,-4.0087,-4.0087,-4.0087,-4.0087,-4.0087,-4.0087,-4.0087,-4.0087,-4.0087,-4.0087,-4.0087,-4.0087,-4.0087,-4.0087,-4.0087,-4.0087,-4.0087,-4.0087,-4.0087,-4.0087,-4.0087,-4.0087,-4.0087,-4.0087,-4.0087,-4.0087,-4.0087,-4.0087,-4.0087,-4.0087,-4.0087,-4.0087,-4.0087,-4.0087,-4.007,-4.0003,-3.9901,-3.9783,-3.9123,-3.8328,-3.7787,-3.7009,-3.6531,-3.632,-3.6416,-3.6764,-3.7285,-3.7773,-3.8183,-3.8559,-3.8634,-3.823,-3.7599,-3.7422,-3.7129,-3.6597,-3.6505,-3.6486,-3.6358,-3.6248,-3.6101,-3.6064,-3.544,-3.4807,-3.4669,-3.4192,-3.3844,-3.3807,-3.3807,-3.3807,-4.8117,-4.7803,-4.7444,-4.7309,-4.7279,-4.698,-4.6471,-4.5843,-4.5544,-4.4811,-4.3898,-4.3868,-4.3868,-4.3868,-4.3868,-4.3703,-4.3419,-4.3404,-4.306,-4.2476,-4.2447,-4.2596,-4.2791,-4.2222,-4.1923,-4.1878,-4.125,-4.0591,-3.9963,-3.9634,-3.9305,-3.9002,-3.9174,-3.9724,-4.0577,-4.1067,-4.1241,-4.1187,-4.046,-4.0087,-4.0087,-4.0087,-4.0087,-4.0087,-4.0087,-4.0087,-4.0087,-4.0087,-4.0087,-4.0087,-4.0087,-4.0087,-4.0087,-4.0087,-4.0087,-4.0087,-4.0087,-4.0087,-4.0087,-4.0087,-4.0087,-4.0087,-4.0087,-4.0087,-4.0087,-4.0087,-4.0087,-4.0087,-4.0087,-4.0087,-4.0087,-4.0087,-4.0087,-4.0087,-4.0087,-4.0087,-4.0087,-4.0087,-4.0087,-4.0087,-4.0087,-4.0087,-4.0087,-3.9445,-3.8903,-3.8447,-3.755,-3.6791,-3.6635,-3.6759,-3.6999,-3.747,-3.7755,-3.8099,-3.8578,-3.8707,-3.8524,-3.8175,-3.8138,-3.7991,-3.7643,-3.7588,-3.7588,-3.7569,-3.7257,-3.678,-3.645,-3.5587,-3.4963,-3.4376,-3.4119,-3.3825,-3.3807,-3.3807,-3.3807,-4.8551,-4.8237,-4.7743,-4.7429,-4.7309,-4.7309,-4.701,-4.6561,-4.6546,-4.5873,-4.484,-4.4616,-4.4541,-4.4526,-4.4392,-4.4317,-4.4302,-4.4167,-4.3808,-4.3374,-4.3344,-4.3344,-4.3284,-4.2806,-4.2506,-4.2327,-4.1848,-4.1265,-4.0681,-4.0621,-4.0424,-4.0035,-4.0723,-4.1297,-4.1684,-4.2265,-4.2269,-4.1677,-4.0798,-4.0257,-4.0087,-4.0087,-4.0087,-4.0087,-4.0087,-4.0087,-4.0087,-4.0087,-4.0087,-4.0087,-4.0087,-4.0087,-4.0087,-4.0087,-4.0087,-4.0087,-4.0087,-4.0087,-4.0087,-4.0087,-4.0087,-4.0087,-4.0087,-4.0087,-4.0087,-4.0087,-4.0087,-4.0087,-4.0087,-4.0087,-4.0087,-4.0087,-4.0087,-4.0087,-4.0087,-4.0087,-4.0087,-4.0087,-4.0087,-4.0087,-4.0087,-4.0087,-3.9986,-3.9597,-3.9208,-3.8836,-3.7855,-3.7043,-3.6893,-3.698,-3.7284,-3.765,-3.7911,-3.8234,-3.8627,-3.8707,-3.8689,-3.8707,-3.867,-3.8597,-3.856,-3.8634,-3.867,-3.8524,-3.8175,-3.7643,-3.6945,-3.6211,-3.5459,-3.4816,-3.4412,-3.4064,-3.3844,-3.3807,-3.3807,-4.9344,-4.8356,-4.8192,-4.7848,-4.7324,-4.7309,-4.7264,-4.7204,-4.7204,-4.683,-4.6082,-4.5484,-4.5214,-4.5125,-4.4601,-4.4377,-4.4302,-4.3703,-4.3419,-4.3344,-4.3344,-4.3344,-4.3344,-4.3254,-4.2925,-4.2447,-4.2297,-4.1938,-4.1309,-4.134,-4.1351,-4.1511,-4.1746,-4.2312,-4.301,-4.3233,-4.3267,-4.3183,-4.183,-4.0764,-4.0121,-4.0087,-4.0087,-4.0087,-4.0087,-4.0087,-4.0087,-4.0087,-4.0087,-4.0087,-4.0087,-4.0087,-4.0087,-4.0087,-4.0087,-4.0087,-4.0087,-4.0087,-4.0087,-4.0087,-4.0087,-4.0087,-4.0087,-4.0087,-4.0087,-4.0087,-4.0087,-4.0087,-4.0087,-4.0087,-4.0087,-4.0087,-4.0087,-4.0087,-4.0087,-4.0087,-4.0087,-4.0087,-4.0087,-4.0087,-4.0087,-4.0087,-4.0054,-3.9952,-3.9681,-3.9174,-3.8278,-3.7499,-3.7039,-3.687,-3.698,-3.737,-3.7964,-3.8546,-3.8707,-3.8707,-3.8707,-3.8707,-3.8707,-3.8707,-3.8707,-3.8707,-3.8707,-3.8689,-3.8634,-3.8395,-3.8138,-3.7808,-3.6872,-3.5679,-3.5055,-3.4587,-3.4045,-3.3807,-3.3807,-4.9359,-4.879,-4.8027,-4.7563,-4.7324,-4.7309,-4.7309,-4.7309,-4.7309,-4.7145,-4.6905,-4.6606,-4.6277,-4.5888,-4.5618,-4.5289,-4.4885,-4.4616,-4.4047,-4.3389,-4.3344,-4.3344,-4.3344,-4.3344,-4.318,-4.2955,-4.2925,-4.2596,-4.2151,-4.2105,-4.2591,-4.3249,-4.3392,-4.3641,-4.4039,-4.4063,-4.3876,-4.3403,-4.2811,-4.2151,-4.1373,-4.0527,-4.0087,-4.0087,-4.0087,-4.0087,-4.0087,-4.0087,-4.0087,-4.0087,-4.0087,-4.0087,-4.0087,-4.0087,-4.0087,-4.0087,-4.0087,-4.0087,-4.0087,-4.0087,-4.0087,-4.0087,-4.0087,-4.0087,-4.0087,-4.0087,-4.0087,-4.0087,-4.0087,-4.0087,-4.0087,-4.0087,-4.0087,-4.0087,-4.0087,-4.0087,-4.0087,-4.0087,-4.0087,-4.0087,-4.0087,-4.0087,-4.0087,-4.0087,-3.9952,-3.9512,-3.87,-3.7838,-3.7496,-3.7222,-3.7068,-3.7279,-3.8068,-3.8627,-3.8707,-3.8707,-3.8707,-3.8707,-3.8707,-3.8707,-3.8707,-3.8707,-3.8707,-3.8707,-3.8707,-3.8487,-3.7936,-3.7734,-3.7147,-3.6064,-3.4945,-3.4174,-3.3862,-3.3807,-3.3807,-4.9583,-4.909,-4.7848,-4.7309,-4.7309,-4.7309,-4.7309,-4.7309,-4.7309,-4.7309,-4.7309,-4.7309,-4.704,-4.6606,-4.6411,-4.6037,-4.5589,-4.5379,-4.4691,-4.3703,-4.3778,-4.3688,-4.3374,-4.3539,-4.3509,-4.3359,-4.3329,-4.3232,-4.303,-4.3005,-4.3717,-4.4798,-4.4818,-4.477,-4.4902,-4.4891,-4.4502,-4.3792,-4.3538,-4.3149,-4.2489,-4.1356,-4.0578,-4.0392,-4.0239,-4.0087,-4.0087,-4.0087,-4.0087,-4.0087,-4.0087,-4.0087,-4.0087,-4.0087,-4.0087,-4.0087,-4.0087,-4.0087,-4.0087,-4.0087,-4.0087,-4.0087,-4.0087,-4.0087,-4.0087,-4.0087,-4.0087,-4.0087,-4.0087,-4.0087,-4.0087,-4.0087,-4.0087,-4.0087,-4.0087,-4.0087,-4.0087,-4.0087,-4.0087,-4.0087,-4.0087,-4.0087,-4.0087,-4.0087,-4.0054,-3.9901,-3.9191,-3.8379,-3.8238,-3.7912,-3.7691,-3.7577,-3.8168,-3.8573,-3.8669,-3.8707,-3.8707,-3.8707,-3.8707,-3.8707,-3.8707,-3.8707,-3.8707,-3.8707,-3.8707,-3.8615,-3.8303,-3.7881,-3.7312,-3.5826,-3.478,-3.4156,-3.3844,-3.3825,-3.3807,-5.0421,-4.9119,-4.7848,-4.7309,-4.7309,-4.7309,-4.7309,-4.7309,-4.7309,-4.7309,-4.7309,-4.7309,-4.7294,-4.7189,-4.6636,-4.6322,-4.6172,-4.5618,-4.496,-4.4362,-4.4855,-4.4511,-4.3434,-4.3958,-4.3928,-4.3374,-4.3344,-4.3741,-4.4523,-4.4111,-4.4684,-4.6305,-4.5821,-4.5563,-4.5604,-4.5618,-4.528,-4.4553,-4.3859,-4.342,-4.3301,-4.2591,-4.183,-4.1238,-4.0476,-4.0121,-4.0087,-4.0087,-4.0087,-4.0087,-4.0087,-4.0087,-4.0087,-4.0087,-4.0087,-4.0087,-4.0087,-4.0087,-4.0087,-4.0087,-4.0087,-4.0087,-4.0087,-4.0087,-4.0087,-4.0087,-4.0087,-4.0087,-4.0087,-4.0087,-4.0087,-4.0087,-4.0087,-4.0087,-4.0087,-4.0087,-4.0087,-4.0087,-4.0087,-4.0087,-4.0087,-4.0087,-4.0087,-4.0087,-4.0087,-4.007,-3.9952,-3.9614,-3.8969,-3.8829,-3.856,-3.8292,-3.83,-3.84,-3.8634,-3.8707,-3.8707,-3.8707,-3.8707,-3.8707,-3.8707,-3.8707,-3.8707,-3.8707,-3.8707,-3.8689,-3.8652,-3.8285,-3.7661,-3.6615,-3.5587,-3.4908,-3.4523,-3.4009,-3.3935,-4.9194,-4.7982,-4.7504,-4.7309,-4.7309,-4.7309,-4.7309,-4.7309,-4.7309,-4.7309,-4.7309,-4.7309,-4.7309,-4.7309,-4.707,-4.6711,-4.6322,-4.6052,-4.5589,-4.5005,-4.52,-4.4811,-4.4062,-4.4212,-4.3973,-4.3419,-4.3344,-4.4113,-4.5602,-4.6057,-4.6617,-4.7191,-4.7172,-4.6851,-4.6389,-4.594,-4.5551,-4.5246,-4.4553,-4.4164,-4.4096,-4.3403,-4.2861,-4.2574,-4.1441,-4.0578,-4.0087,-4.0087,-4.0087,-4.0087,-4.0087,-4.0087,-4.0087,-4.0087,-4.0087,-4.0087,-4.0087,-4.0087,-4.0087,-4.0087,-4.0087,-4.0087,-4.0087,-4.0087,-4.0087,-4.0087,-4.0087,-4.0087,-4.0087,-4.0087,-4.0087,-4.0087,-4.0087,-4.0087,-4.0087,-4.0087,-4.0087,-4.0087,-4.0087,-4.0087,-4.0087,-4.0087,-4.0087,-4.0087,-4.0087,-4.0037,-3.9698,-3.9343,-3.9067,-3.874,-3.8562,-3.8404,-3.8438,-3.858,-3.8656,-3.8707,-3.8707,-3.8707,-3.8707,-3.8707,-3.8707,-3.8707,-3.8707,-3.8707,-3.8707,-3.8707,-3.8652,-3.8285,-3.7716,-3.7276,-3.6285,-3.5789,-3.5477,-3.4908,-3.4651,-4.8626,-4.7668,-4.7399,-4.7309,-4.7309,-4.7309,-4.7309,-4.7309,-4.7309,-4.7309,-4.7309,-4.7309,-4.7309,-4.7309,-4.7309,-4.7085,-4.6666,-4.6636,-4.6277,-4.5693,-4.5843,-4.5364,-4.4481,-4.4526,-4.4167,-4.3528,-4.363,-4.4765,-4.6523,-4.7306,-4.783,-4.823,-4.8274,-4.7902,-4.7192,-4.665,-4.6329,-4.6007,-4.5331,-4.4942,-4.484,-4.4181,-4.3656,-4.3318,-4.2422,-4.1441,-4.051,-4.0206,-4.0087,-4.0087,-4.0087,-4.0087,-4.0087,-4.0087,-4.0087,-4.0087,-4.0087,-4.0087,-4.0087,-4.0087,-4.0087,-4.0087,-4.0087,-4.0087,-4.0087,-4.0087,-4.0087,-4.0087,-4.0087,-4.0087,-4.0087,-4.0087,-4.0087,-4.0087,-4.0087,-4.0087,-4.0087,-4.0087,-4.0087,-4.0087,-4.0087,-4.0087,-4.0087,-4.0087,-4.0087,-4.0087,-3.9614,-3.936,-3.9304,-3.9112,-3.8783,-3.8704,-3.8831,-3.8824,-3.8752,-3.8707,-3.8707,-3.8707,-3.8707,-3.8707,-3.8707,-3.8707,-3.8707,-3.8707,-3.8707,-3.8707,-3.8524,-3.8175,-3.7863,-3.7569,-3.7092,-3.6541,-3.6174,-3.5789,-3.5422,-4.885,-4.8132,-4.7578,-4.7309,-4.7309,-4.7309,-4.7309,-4.7309,-4.7309,-4.7309,-4.7309,-4.7309,-4.7309,-4.7309,-4.7309,-4.7279,-4.7234,-4.7204,-4.689,-4.6411,-4.689,-4.6127,-4.4511,-4.4945,-4.4593,-4.3518,-4.4358,-4.5794,-4.7389,-4.7655,-4.8175,-4.8827,-4.89,-4.8562,-4.7919,-4.7767,-4.7445,-4.6786,-4.6024,-4.5635,-4.5602,-4.4874,-4.4164,-4.3589,-4.3335,-4.2625,-4.1322,-4.0561,-4.0189,-4.0155,-4.0087,-4.0087,-4.0087,-4.0087,-4.0087,-4.0087,-4.0087,-4.0087,-4.0087,-4.0087,-4.0087,-4.0087,-4.0087,-4.0087,-4.0087,-4.0087,-4.0087,-4.0087,-4.0087,-4.0087,-4.0087,-4.0087,-4.0087,-4.0087,-4.0087,-4.0087,-4.0087,-4.0087,-4.0087,-4.0087,-4.0087,-4.0087,-4.0087,-4.0087,-4.0087,-4.007,-4.0003,-3.9935,-3.9918,-3.9825,-3.9795,-3.9448,-3.9195,-3.9013,-3.8846,-3.8707,-3.8707,-3.8707,-3.8707,-3.8707,-3.8707,-3.8707,-3.8707,-3.8707,-3.8707,-3.8707,-3.8707,-3.8377,-3.8212,-3.7918,-3.7551,-3.7312,-3.7037,-3.6615,-3.5954,-4.8207,-4.7623,-4.7399,-4.7309,-4.7309,-4.7309,-4.7309,-4.7309,-4.7309,-4.7309,-4.7309,-4.7309,-4.7309,-4.7309,-4.7309,-4.7309,-4.7309,-4.7294,-4.7189,-4.7055,-4.7204,-4.6486,-4.5274,-4.5185,-4.4992,-4.4557,-4.5285,-4.64,-4.7523,-4.8225,-4.8719,-4.894,-4.9018,-4.89,-4.8612,-4.8189,-4.7767,-4.7479,-4.6329,-4.5703,-4.5635,-4.4976,-4.4451,-4.4215,-4.3724,-4.3166,-4.2692,-4.1525,-4.0882,-4.0832,-4.0358,-4.0087,-4.0087,-4.0087,-4.0087,-4.0087,-4.0087,-4.0087,-4.0087,-4.0087,-4.0087,-4.0087,-4.0087,-4.0087,-4.0087,-4.0087,-4.0087,-4.0087,-4.0087,-4.0087,-4.0087,-4.0087,-4.0087,-4.0087,-4.0087,-4.0087,-4.0087,-4.0087,-4.0087,-4.0087,-4.0087,-4.0087,-4.0087,-4.0087,-4.0087,-4.0087,-4.0087,-4.0087,-4.007,-3.9961,-3.9755,-3.9441,-3.926,-3.9102,-3.8888,-3.8737,-3.8707,-3.8707,-3.8707,-3.8707,-3.8707,-3.8707,-3.8707,-3.8707,-3.8707,-3.8707,-3.8707,-3.8615,-3.8432,-3.8414,-3.823,-3.8065,-3.7918,-3.7441,-3.6798,-4.7893,-4.7324,-4.7309,-4.7309,-4.7309,-4.7309,-4.7309,-4.7309,-4.7309,-4.7309,-4.7309,-4.7309,-4.7309,-4.7309,-4.7309,-4.7309,-4.7309,-4.7309,-4.7309,-4.7309,-4.7309,-4.6576,-4.5417,-4.5127,-4.5248,-4.5515,-4.626,-4.7239,-4.8096,-4.8719,-4.9001,-4.9001,-4.9018,-4.9001,-4.8984,-4.8562,-4.824,-4.7817,-4.7022,-4.6261,-4.5737,-4.5246,-4.4874,-4.4553,-4.4113,-4.3876,-4.3758,-4.2675,-4.1762,-4.1204,-4.0476,-4.0104,-4.0087,-4.0087,-4.0087,-4.0087,-4.0087,-4.0087,-4.0087,-4.0087,-4.0087,-4.0087,-4.0087,-4.0087,-4.0087,-4.0087,-4.0087,-4.0087,-4.0087,-4.0087,-4.0087,-4.0087,-4.0087,-4.0087,-4.0087,-4.0087,-4.0087,-4.0087,-4.0087,-4.0087,-4.0087,-4.0087,-4.0087,-4.0087,-4.0087,-4.0087,-4.0087,-4.0087,-4.0086,-3.9944,-3.9727,-3.9563,-3.9363,-3.9135,-3.8873,-3.8771,-3.8695,-3.8707,-3.8707,-3.8707,-3.8707,-3.8707,-3.8707,-3.8707,-3.8707,-3.8707,-3.8707,-3.8707,-3.8597,-3.8689,-3.8707,-3.8542,-3.8285,-3.8212,-3.7606,-4.7863,-4.7339,-4.7309,-4.7309,-4.7309,-4.7309,-4.7309,-4.7309,-4.7309,-4.7309,-4.7309,-4.7309,-4.7309,-4.7309,-4.7309,-4.7309,-4.7309,-4.7309,-4.7309,-4.7309,-4.7234,-4.6661,-4.5604,-4.5216,-4.5434,-4.6292,-4.7186,-4.8081,-4.8815,-4.9058,-4.9035,-4.9018,-4.9018,-4.9018,-4.8984,-4.8984,-4.8646,-4.8139,-4.7902,-4.7124,-4.5991,-4.5686,-4.5382,-4.4722,-4.457,-4.4468,-4.4333,-4.3623,-4.2642,-4.1424,-4.0646,-4.0257,-4.0172,-4.0121,-4.0087,-4.0087,-4.0087,-4.0087,-4.0087,-4.0087,-4.0087,-4.0087,-4.0087,-4.0087,-4.0087,-4.0087,-4.0087,-4.0087,-4.0087,-4.0087,-4.0087,-4.0087,-4.0087,-4.0087,-4.0087,-4.0087,-4.0087,-4.0087,-4.0087,-4.0087,-4.0087,-4.0087,-4.0087,-4.0087,-4.0087,-4.0087,-4.0087,-4.0087,-4.0121,-4.0033,-3.9941,-3.9709,-3.9473,-3.9459,-3.9301,-3.9306,-3.9254,-3.9148,-3.9056,-3.8927,-3.8762,-3.8707,-3.8707,-3.8707,-3.8707,-3.8707,-3.8707,-3.8707,-3.8707,-3.8707,-3.8707,-3.8707,-3.8634,-3.8505,-3.7955,-4.7459,-4.7309,-4.7309,-4.7309,-4.7309,-4.7309,-4.7309,-4.7309,-4.7309,-4.7309,-4.7309,-4.7309,-4.7309,-4.7309,-4.7309,-4.7309,-4.7309,-4.7309,-4.7309,-4.7309,-4.7309,-4.7008,-4.6269,-4.5773,-4.6076,-4.715,-4.7983,-4.8628,-4.9024,-4.9509,-4.9492,-4.9018,-4.9018,-4.9018,-4.9018,-4.9018,-4.8917,-4.8663,-4.8156,-4.7784,-4.7208,-4.6227,-4.5635,-4.5415,-4.4891,-4.4621,-4.4502,-4.3826,-4.3014,-4.2083,-4.1305,-4.0916,-4.0832,-4.0392,-4.0087,-4.0087,-4.0087,-4.0087,-4.0087,-4.0087,-4.0087,-4.0087,-4.0087,-4.0087,-4.0087,-4.0087,-4.0087,-4.0087,-4.0087,-4.0087,-4.0087,-4.0087,-4.0087,-4.0087,-4.0087,-4.0087,-4.0087,-4.0087,-4.0087,-4.0087,-4.0087,-4.0087,-4.0087,-4.0087,-4.0087,-4.0087,-4.0087,-4.0087,-4.0087,-4.0087,-3.9982,-3.9804,-3.9625,-3.9764,-3.9812,-3.9824,-3.9799,-3.9726,-3.9533,-3.9276,-3.9001,-3.8707,-3.8707,-3.8707,-3.8707,-3.8707,-3.8707,-3.8707,-3.8707,-3.8707,-3.8707,-3.8707,-3.8707,-3.8579,-3.7863,-4.7309,-4.7309,-4.7309,-4.7309,-4.7309,-4.7309,-4.7309,-4.7309,-4.7309,-4.7309,-4.7309,-4.7309,-4.7309,-4.7309,-4.7309,-4.7309,-4.7309,-4.7309,-4.7309,-4.7381,-4.7764,-4.7461,-4.6904,-4.6752,-4.7216,-4.7671,-4.8762,-4.9134,-4.9176,-4.9746,-4.9644,-4.9137,-4.9018,-4.9018,-4.9018,-4.9001,-4.8832,-4.8578,-4.8342,-4.8139,-4.7411,-4.6972,-4.6295,-4.5855,-4.5229,-4.4942,-4.4587,-4.413,-4.3555,-4.2743,-4.183,-4.1204,-4.1136,-4.0493,-4.0087,-4.0087,-4.0087,-4.0087,-4.0087,-4.0087,-4.0087,-4.0087,-4.0087,-4.0087,-4.0087,-4.0087,-4.0087,-4.0087,-4.0087,-4.0087,-4.0087,-4.0087,-4.0087,-4.0087,-4.0087,-4.0087,-4.0087,-4.0087,-4.0087,-4.0087,-4.0087,-4.0087,-4.0087,-4.0087,-4.0087,-4.0087,-4.0087,-4.0087,-4.007,-4.0087,-4.0052,-3.9901,-3.9859,-3.9982,-4.0166,-4.0287,-4.0472,-4.0394,-3.9808,-3.9588,-3.9184,-3.8781,-3.8707,-3.8707,-3.8707,-3.8707,-3.8707,-3.8707,-3.8707,-3.8707,-3.8707,-3.8707,-3.8707,-3.8689,-3.7936,-4.7309,-4.7309,-4.7309,-4.7309,-4.7309,-4.7309,-4.7309,-4.7309,-4.7309,-4.7309,-4.7309,-4.7309,-4.7309,-4.7309,-4.7309,-4.7309,-4.7309,-4.7309,-4.7309,-4.7694,-4.8201,-4.8369,-4.7512,-4.8361,-4.8622,-4.8597,-4.9631,-4.9822,-4.9779,-5.005,-4.9813,-4.934,-4.912,-4.9018,-4.9018,-4.9001,-4.8646,-4.8409,-4.8697,-4.8376,-4.7648,-4.7513,-4.7056,-4.6058,-4.5483,-4.5094,-4.4705,-4.4468,-4.4198,-4.3572,-4.2117,-4.1474,-4.1271,-4.0612,-4.0121,-4.0087,-4.0087,-4.0087,-4.0087,-4.0087,-4.0087,-4.0087,-4.0087,-4.0087,-4.0087,-4.0087,-4.0087,-4.0087,-4.0087,-4.0087,-4.0087,-4.0087,-4.0087,-4.0087,-4.0087,-4.0087,-4.0087,-4.0087,-4.0087,-4.0087,-4.0087,-4.0087,-4.0087,-4.0087,-4.0087,-4.0087,-4.0087,-4.0087,-4.0087,-4.0121,-4.0104,-4.0052,-4.0062,-4.0182,-4.0429,-4.0688,-4.0981,-4.1071,-4.0198,-3.9698,-3.9294,-3.8946,-3.8781,-3.8707,-3.8707,-3.8707,-3.8707,-3.8707,-3.8707,-3.8707,-3.8707,-3.8707,-3.8707,-3.8707,-3.8248,-4.7309,-4.7309,-4.7309,-4.7309,-4.7309,-4.7309,-4.7309,-4.7309,-4.7309,-4.7309,-4.7309,-4.7309,-4.7309,-4.7309,-4.7309,-4.7309,-4.7309,-4.7309,-4.7309,-4.7538,-4.9231,-4.9471,-4.9062,-4.9844,-5.0305,-5.0458,-5.129,-5.1386,-5.093,-5.0676,-5.0591,-4.9915,-4.9272,-4.9018,-4.9052,-4.9035,-4.8968,-4.8815,-4.8951,-4.8849,-4.8443,-4.8037,-4.7513,-4.6481,-4.5449,-4.4807,-4.4637,-4.457,-4.4485,-4.4012,-4.2963,-4.2049,-4.1779,-4.0764,-4.0121,-4.0087,-4.0087,-4.0087,-4.0087,-4.0087,-4.0087,-4.0087,-4.0087,-4.0087,-4.0087,-4.0087,-4.0087,-4.0087,-4.0087,-4.0087,-4.0087,-4.0087,-4.0087,-4.0087,-4.0087,-4.0087,-4.0087,-4.0087,-4.0087,-4.0087,-4.0087,-4.0087,-4.0087,-4.0087,-4.0087,-4.0087,-4.0087,-4.0087,-4.0087,-4.0087,-4.0087,-4.0121,-4.0391,-4.0582,-4.1089,-4.1393,-4.1706,-4.1693,-4.0895,-4.0157,-3.9735,-3.9148,-3.8982,-3.8817,-3.8707,-3.8707,-3.8707,-3.8707,-3.8707,-3.8707,-3.8707,-3.8707,-3.8707,-3.8707,-3.8634,-4.7309,-4.7309,-4.7309,-4.7309,-4.7309,-4.7309,-4.7309,-4.7309,-4.7309,-4.7309,-4.7309,-4.7309,-4.7309,-4.7309,-4.7309,-4.7309,-4.7309,-4.7309,-4.7309,-4.7779,-4.9311,-5.0112,-5.0327,-5.1158,-5.1917,-5.1522,-5.1928,-5.186,-5.1403,-5.1234,-5.0997,-5.0541,-4.9576,-4.9289,-4.9373,-4.9204,-4.9018,-4.8984,-4.9018,-4.9018,-4.89,-4.8646,-4.7817,-4.6735,-4.5415,-4.457,-4.457,-4.457,-4.457,-4.4282,-4.347,-4.2642,-4.21,-4.0916,-4.0172,-4.0087,-4.0087,-4.0087,-4.0087,-4.0087,-4.0087,-4.0087,-4.0087,-4.0087,-4.0087,-4.0087,-4.0087,-4.0087,-4.0087,-4.0087,-4.0087,-4.0087,-4.0087,-4.0087,-4.0087,-4.0087,-4.0087,-4.0087,-4.0087,-4.0087,-4.0087,-4.0087,-4.0087,-4.0087,-4.0087,-4.0087,-4.0087,-4.0087,-4.0087,-4.0087,-4.0087,-4.0204,-4.0625,-4.1063,-4.1704,-4.2139,-4.2468,-4.231,-4.1702,-4.1075,-4.0579,-3.9882,-3.9203,-3.9019,-3.8817,-3.8707,-3.8707,-3.8707,-3.8707,-3.8707,-3.8707,-3.8707,-3.8707,-3.8707,-3.8652,-4.7309,-4.7309,-4.7309,-4.7309,-4.7309,-4.7309,-4.7309,-4.7309,-4.7309,-4.7309,-4.7309,-4.7309,-4.7309,-4.7309,-4.7309,-4.7309,-4.7309,-4.7309,-4.7381,-4.7988,-4.9551,-5.0426,-5.0983,-5.2167,-5.2724,-5.1708,-5.2266,-5.2164,-5.1826,-5.1437,-5.1488,-5.115,-5.0101,-4.9729,-4.9864,-4.9543,-4.9171,-4.9052,-4.9018,-4.9018,-4.9018,-4.89,-4.8189,-4.6819,-4.5618,-4.4756,-4.4637,-4.457,-4.457,-4.4536,-4.3842,-4.3149,-4.232,-4.1136,-4.0257,-4.0273,-4.0189,-4.0087,-4.0087,-4.0087,-4.0087,-4.0087,-4.0087,-4.0087,-4.0087,-4.0087,-4.0087,-4.0087,-4.0087,-4.0087,-4.0087,-4.0087,-4.0087,-4.0087,-4.0087,-4.0087,-4.0087,-4.0087,-4.0087,-4.0087,-4.0087,-4.0087,-4.0087,-4.0087,-4.0087,-4.0087,-4.0087,-4.0087,-4.0087,-4.0171,-4.0154,-4.0466,-4.092,-4.169,-4.2386,-4.2621,-4.301,-4.2787,-4.2323,-4.1864,-4.1332,-4.0653,-3.9918,-3.9203,-3.8946,-3.8817,-3.8726,-3.8707,-3.8707,-3.8707,-3.8707,-3.8707,-3.8707,-3.8707,-3.8634,-4.7309,-4.7309,-4.7309,-4.7309,-4.7309,-4.7309,-4.7309,-4.7309,-4.7309,-4.7309,-4.7309,-4.7309,-4.7309,-4.7309,-4.7309,-4.7309,-4.7309,-4.7381,-4.7764,-4.8527,-4.9931,-5.0779,-5.1704,-5.2767,-5.3264,-5.3247,-5.3213,-5.3078,-5.2858,-5.2503,-5.208,-5.1911,-5.1166,-5.0642,-5.027,-4.9915,-4.956,-4.9171,-4.9052,-4.9018,-4.9018,-4.8849,-4.8325,-4.6938,-4.5906,-4.5213,-4.4722,-4.4604,-4.457,-4.4502,-4.3809,-4.3436,-4.2997,-4.1863,-4.1153,-4.0798,-4.0358,-4.0087,-4.0087,-4.0087,-4.0087,-4.0087,-4.0087,-4.0087,-4.0087,-4.0087,-4.0087,-4.0087,-4.0087,-4.0087,-4.0087,-4.0087,-4.0087,-4.0087,-4.0087,-4.0087,-4.0087,-4.0087,-4.0087,-4.0087,-4.0087,-4.0087,-4.0087,-4.0087,-4.0087,-4.0087,-4.0087,-4.0087,-4.0087,-4.0204,-4.0368,-4.0814,-4.1331,-4.2208,-4.3105,-4.3178,-4.3369,-4.3169,-4.28,-4.2488,-4.1937,-4.1368,-4.0689,-3.9955,-3.9239,-3.8872,-3.8799,-3.8726,-3.8707,-3.8707,-3.8707,-3.8707,-3.8707,-3.8707,-3.8707,-4.7309,-4.7309,-4.7309,-4.7309,-4.7309,-4.7309,-4.7309,-4.7309,-4.7309,-4.7309,-4.7309,-4.7309,-4.7309,-4.7309,-4.7309,-4.7309,-4.7381,-4.7904,-4.8377,-4.9054,-5.0381,-5.1377,-5.201,-5.3025,-5.3416,-5.3484,-5.3501,-5.3518,-5.3416,-5.2672,-5.257,-5.2587,-5.1826,-5.1183,-5.1014,-5.0439,-4.9999,-4.9543,-4.9221,-4.9018,-4.8951,-4.8714,-4.7953,-4.7361,-4.6329,-4.5568,-4.5213,-4.4705,-4.4587,-4.4502,-4.4215,-4.4045,-4.3673,-4.2997,-4.1982,-4.1288,-4.0544,-4.0087,-4.0087,-4.0087,-4.0087,-4.0087,-4.0087,-4.0087,-4.0087,-4.0087,-4.0087,-4.0087,-4.0087,-4.0087,-4.0087,-4.0087,-4.0087,-4.0087,-4.0087,-4.0087,-4.0087,-4.0087,-4.0087,-4.0087,-4.0087,-4.0087,-4.0087,-4.0087,-4.0087,-4.0087,-4.0087,-4.0087,-4.0087,-4.0336,-4.0577,-4.115,-4.175,-4.2523,-4.3267,-4.3391,-4.3479,-4.3351,-4.324,-4.291,-4.2525,-4.1956,-4.1332,-4.0653,-3.9955,-3.9294,-3.8799,-3.8707,-3.8707,-3.8707,-3.8707,-3.8707,-3.8707,-3.8707,-3.8707,-4.7309,-4.7309,-4.7309,-4.7309,-4.7309,-4.7309,-4.7309,-4.7309,-4.7309,-4.7309,-4.7309,-4.7309,-4.7309,-4.7381,-4.7538,-4.7694,-4.7694,-4.8677,-4.9296,-4.9899,-5.1064,-5.1905,-5.247,-5.2956,-5.3518,-5.3518,-5.3518,-5.3518,-5.3416,-5.2942,-5.301,-5.301,-5.2147,-5.1792,-5.1911,-5.098,-5.0439,-4.9881,-4.939,-4.9035,-4.8849,-4.846,-4.8037,-4.7851,-4.6616,-4.5889,-4.5585,-4.4942,-4.4621,-4.457,-4.4519,-4.4536,-4.4434,-4.3826,-4.2878,-4.1762,-4.0832,-4.0341,-4.0087,-4.0087,-4.0087,-4.0087,-4.0087,-4.0087,-4.0087,-4.0087,-4.0087,-4.0087,-4.0087,-4.0087,-4.0087,-4.0087,-4.0087,-4.0087,-4.0087,-4.0087,-4.0087,-4.0087,-4.0087,-4.0087,-4.0087,-4.0087,-4.0087,-4.0087,-4.0087,-4.0087,-4.0087,-4.0087,-4.0171,-4.0577,-4.092,-4.1534,-4.2185,-4.2828,-4.3321,-4.3444,-4.3479,-4.3442,-4.3406,-4.324,-4.291,-4.2525,-4.1919,-4.135,-4.0671,-4.001,-3.9368,-3.8707,-3.8707,-3.8707,-3.8707,-3.8707,-3.8707,-3.8707,-3.8707,-4.7309,-4.7309,-4.7309,-4.7309,-4.7309,-4.7309,-4.7309,-4.7309,-4.7309,-4.7309,-4.7309,-4.7309,-4.7309,-4.7523,-4.821,-4.8512,-4.8907,-4.9679,-5.0534,-5.1155,-5.176,-5.247,-5.311,-5.3348,-5.3518,-5.3518,-5.3518,-5.3518,-5.3467,-5.3331,-5.3331,-5.3348,-5.323,-5.2959,-5.2367,-5.1437,-5.076,-5.0101,-4.939,-4.9018,-4.8984,-4.8866,-4.8494,-4.7902,-4.709,-4.6346,-4.5788,-4.5094,-4.4587,-4.457,-4.457,-4.457,-4.4451,-4.3859,-4.347,-4.2828,-4.1948,-4.0781,-4.0307,-4.0206,-4.0121,-4.0121,-4.0087,-4.0087,-4.0087,-4.0087,-4.0087,-4.0087,-4.0087,-4.0087,-4.0087,-4.0087,-4.0087,-4.0087,-4.0087,-4.0087,-4.0087,-4.0087,-4.0087,-4.0087,-4.0087,-4.0087,-4.0087,-4.0087,-4.0087,-4.0087,-4.0087,-4.007,-4.0254,-4.0625,-4.1178,-4.175,-4.2284,-4.2921,-4.325,-4.3375,-4.3479,-4.3479,-4.3479,-4.3479,-4.3185,-4.2855,-4.2653,-4.2066,-4.135,-4.0414,-3.946,-3.8927,-3.8781,-3.8707,-3.8707,-3.8707,-3.8707,-3.8707,-3.8707,-4.7309,-4.7309,-4.7309,-4.7309,-4.7309,-4.7309,-4.7309,-4.7309,-4.7309,-4.7309,-4.7309,-4.7309,-4.7609,-4.8141,-4.8661,-4.915,-4.9758,-5.0779,-5.1394,-5.201,-5.247,-5.3041,-5.3348,-5.3518,-5.3518,-5.3518,-5.3518,-5.3518,-5.3518,-5.3518,-5.3518,-5.3518,-5.3501,-5.3331,-5.2756,-5.1792,-5.1136,-5.0477,-4.9683,-4.9052,-4.9018,-4.8984,-4.8849,-4.8494,-4.7394,-4.6684,-4.6143,-4.5162,-4.4621,-4.457,-4.457,-4.457,-4.4519,-4.4231,-4.3927,-4.3352,-4.2878,-4.1931,-4.0967,-4.0764,-4.0476,-4.0155,-4.0087,-4.0087,-4.0087,-4.0087,-4.0087,-4.0087,-4.0087,-4.0087,-4.0087,-4.0087,-4.0087,-4.0087,-4.0087,-4.0087,-4.0087,-4.0087,-4.0087,-4.0087,-4.0087,-4.0087,-4.0087,-4.0087,-4.0087,-4.0087,-4.0121,-4.0121,-4.0286,-4.0625,-4.1178,-4.1895,-4.2364,-4.2884,-4.305,-4.3214,-4.341,-4.3444,-4.3479,-4.3442,-4.3351,-4.3112,-4.2873,-4.2378,-4.1552,-4.0579,-3.9588,-3.9074,-3.8854,-3.8762,-3.8707,-3.8707,-3.8707,-3.8707,-3.8707,-4.7309,-4.7309,-4.7309,-4.7309,-4.7309,-4.7309,-4.7309,-4.7309,-4.7309,-4.7309,-4.7381,-4.7609,-4.8293,-4.9135,-4.952,-5.0149,-5.0871,-5.1849,-5.2241,-5.2627,-5.3025,-5.3433,-5.3518,-5.3518,-5.3518,-5.3518,-5.3518,-5.3518,-5.3518,-5.3518,-5.3518,-5.3518,-5.3518,-5.3484,-5.3095,-5.2029,-5.0967,-5.0308,-4.9429,-4.9052,-4.9018,-4.9018,-4.9001,-4.8545,-4.7716,-4.6786,-4.6583,-4.5365,-4.4604,-4.457,-4.457,-4.457,-4.4536,-4.4468,-4.4282,-4.3826,-4.342,-4.2692,-4.1762,-4.1238,-4.0832,-4.0358,-4.0087,-4.0087,-4.0087,-4.0087,-4.0087,-4.0087,-4.0087,-4.0087,-4.0087,-4.0087,-4.0087,-4.0087,-4.0087,-4.0087,-4.0087,-4.0087,-4.0087,-4.0087,-4.0087,-4.0087,-4.0087,-4.0087,-4.0087,-4.0087,-4.0121,-4.0171,-4.0368,-4.0607,-4.1105,-4.1768,-4.2103,-4.2501,-4.2619,-4.2828,-4.3124,-4.341,-4.3444,-4.3461,-4.3387,-4.3222,-4.3002,-4.2396,-4.1846,-4.1405,-4.0799,-3.9845,-3.8927,-3.8799,-3.8707,-3.8707,-3.8707,-3.8707,-3.8707,-4.7309,-4.7309,-4.7309,-4.7309,-4.7309,-4.7309,-4.7309,-4.7309,-4.7309,-4.7309,-4.7523,-4.8225,-4.9166,-5.0242,-5.0989,-5.1451,-5.1849,-5.2886,-5.3127,-5.328,-5.3501,-5.3518,-5.3518,-5.3518,-5.3518,-5.3518,-5.3518,-5.3518,-5.3518,-5.3518,-5.3518,-5.3518,-5.3518,-5.3518,-5.3044,-5.1995,-5.0541,-4.9767,-4.9086,-4.9035,-4.9018,-4.9018,-4.9018,-4.8697,-4.7699,-4.6786,-4.6718,-4.5449,-4.4604,-4.4604,-4.457,-4.457,-4.457,-4.457,-4.4434,-4.4265,-4.3859,-4.3149,-4.2405,-4.1542,-4.0832,-4.0341,-4.0087,-4.0087,-4.0087,-4.0087,-4.0087,-4.0087,-4.0087,-4.0087,-4.0087,-4.0087,-4.0087,-4.0087,-4.0087,-4.0087,-4.0087,-4.0087,-4.0087,-4.0087,-4.0087,-4.0087,-4.0087,-4.0087,-4.0087,-4.0087,-4.0121,-4.0171,-4.0417,-4.0655,-4.1013,-4.1464,-4.1707,-4.1937,-4.1979,-4.2364,-4.305,-4.3339,-4.3375,-4.3444,-4.3461,-4.3277,-4.313,-4.3002,-4.2598,-4.2323,-4.1937,-4.0928,-3.9974,-3.9093,-3.8744,-3.8891,-3.8799,-3.8707,-3.8707,-4.7309,-4.7309,-4.7309,-4.7309,-4.7309,-4.7309,-4.7309,-4.7309,-4.7309,-4.7679,-4.8225,-4.8677,-4.9758,-5.108,-5.1614,-5.2312,-5.287,-5.3264,-5.3433,-5.3518,-5.3518,-5.3518,-5.3518,-5.3518,-5.3518,-5.3518,-5.3518,-5.3518,-5.3518,-5.3518,-5.3518,-5.3518,-5.3518,-5.3518,-5.2993,-5.1993,-5.0503,-4.939,-4.9018,-4.9018,-4.9018,-4.9018,-4.9018,-4.8883,-4.8139,-4.7242,-4.6752,-4.5821,-4.5145,-4.4705,-4.4587,-4.457,-4.457,-4.457,-4.457,-4.4553,-4.4147,-4.3656,-4.2861,-4.1897,-4.0882,-4.0273,-4.0087,-4.0087,-4.0104,-4.0087,-4.0087,-4.0087,-4.0087,-4.0087,-4.0087,-4.0087,-4.0087,-4.0087,-4.0087,-4.0087,-4.0087,-4.0087,-4.0087,-4.0087,-4.0087,-4.0087,-4.0087,-4.0087,-4.0087,-4.0087,-4.0121,-4.0154,-4.0368,-4.0528,-4.0797,-4.115,-4.1402,-4.175,-4.181,-4.2404,-4.3105,-4.3214,-4.3304,-4.341,-4.3479,-4.3461,-4.3351,-4.3332,-4.324,-4.2837,-4.2359,-4.1809,-4.091,-3.9717,-3.9276,-3.9258,-3.9074,-3.8744,-3.8707,-4.713,-4.7294,-4.7309,-4.7309,-4.7309,-4.7309,-4.7309,-4.7309,-4.7309,-4.7834,-4.8825,-4.915,-5.0227,-5.1598,-5.2312,-5.2714,-5.3264,-5.3501,-5.3518,-5.3518,-5.3518,-5.3518,-5.3518,-5.3518,-5.3518,-5.3518,-5.3518,-5.3518,-5.3518,-5.3518,-5.3518,-5.3518,-5.3518,-5.3518,-5.3145,-5.1993,-5.0469,-4.934,-4.9018,-4.9018,-4.9018,-4.9018,-4.9018,-4.89,-4.824,-4.7513,-4.6802,-4.5991,-4.528,-4.4807,-4.457,-4.457,-4.457,-4.457,-4.457,-4.4502,-4.4316,-4.3978,-4.3267,-4.232,-4.1204,-4.0646,-4.0493,-4.0341,-4.0138,-4.0087,-4.0087,-4.0087,-4.0087,-4.0087,-4.0087,-4.0087,-4.0087,-4.0087,-4.0087,-4.0087,-4.0087,-4.0087,-4.0087,-4.0087,-4.0087,-4.0087,-4.0087,-4.0087,-4.0087,-4.0087,-4.0121,-4.0121,-4.0154,-4.0286,-4.0417,-4.075,-4.1087,-4.1446,-4.1793,-4.2462,-4.2976,-4.3069,-4.3178,-4.341,-4.3479,-4.3479,-4.3479,-4.3424,-4.3314,-4.3167,-4.28,-4.2268,-4.1277,-4.012,-3.968,-3.9166,-3.9019,-3.8707,-3.8707,-4.6726,-4.7279,-4.7294,-4.7309,-4.7309,-4.7309,-4.7309,-4.7309,-4.7309,-4.7834,-4.8907,-4.9789,-5.0779,-5.1921,-5.28,-5.328,-5.3348,-5.3416,-5.3416,-5.3433,-5.3264,-5.3365,-5.3518,-5.3518,-5.3518,-5.3518,-5.3518,-5.3518,-5.3518,-5.3518,-5.3518,-5.3433,-5.3382,-5.3264,-5.3298,-5.1978,-5.0473,-4.9221,-4.9035,-4.9018,-4.9018,-4.9018,-4.9018,-4.8849,-4.846,-4.7784,-4.6836,-4.6464,-4.5703,-4.4756,-4.4756,-4.4722,-4.4587,-4.457,-4.457,-4.4553,-4.3961,-4.3623,-4.3386,-4.2675,-4.1982,-4.1136,-4.0815,-4.0561,-4.0206,-4.0087,-4.0087,-4.0087,-4.0087,-4.0087,-4.0087,-4.0087,-4.0087,-4.0087,-4.0087,-4.0087,-4.0087,-4.0087,-4.0087,-4.0087,-4.0087,-4.0087,-4.0087,-4.0087,-4.0087,-4.0087,-4.0087,-4.0087,-4.0087,-4.0286,-4.04,-4.0797,-4.1178,-4.1682,-4.2121,-4.248,-4.2826,-4.292,-4.3105,-4.3375,-4.3479,-4.3479,-4.3479,-4.3479,-4.3424,-4.3314,-4.3057,-4.2745,-4.1552,-4.0377,-3.935,-3.8817,-3.8726,-3.8707,-3.8707,-4.6441,-4.6696,-4.7115,-4.7309,-4.7309,-4.7309,-4.7309,-4.7309,-4.7381,-4.7834,-4.8922,-4.9931,-5.093,-5.201,-5.28,-5.3348,-5.3332,-5.2644,-5.2644,-5.3348,-5.287,-5.3025,-5.3264,-5.3518,-5.3518,-5.3518,-5.3518,-5.3518,-5.3518,-5.3518,-5.3518,-5.345,-5.3027,-5.2452,-5.2029,-5.1251,-5.049,-4.9289,-4.9018,-4.9018,-4.9018,-4.9018,-4.9001,-4.8984,-4.8714,-4.802,-4.6972,-4.6786,-4.621,-4.4942,-4.4891,-4.5026,-4.4688,-4.457,-4.457,-4.457,-4.4198,-4.4215,-4.4164,-4.3758,-4.2946,-4.1847,-4.095,-4.0663,-4.0121,-4.0087,-4.0087,-4.0087,-4.0104,-4.0104,-4.0087,-4.0087,-4.0087,-4.0087,-4.0087,-4.0087,-4.0087,-4.0087,-4.0087,-4.0087,-4.0087,-4.0087,-4.0087,-4.0087,-4.0087,-4.0087,-4.0087,-4.0087,-4.0087,-4.0497,-4.075,-4.115,-4.1534,-4.2038,-4.248,-4.2846,-4.3069,-4.3178,-4.3286,-4.341,-4.3479,-4.3479,-4.3479,-4.3479,-4.3479,-4.3442,-4.3057,-4.2543,-4.1662,-4.0616,-3.9735,-3.8946,-3.8707,-3.8707,-3.8707,-4.6112,-4.6396,-4.7025,-4.7309,-4.7309,-4.7309,-4.7309,-4.7309,-4.7309,-4.7694,-4.8377,-4.9376,-5.0149,-5.0914,-5.1865,-5.2416,-5.2329,-5.1793,-5.1938,-5.2714,-5.2312,-5.2697,-5.3195,-5.3433,-5.3518,-5.3518,-5.3518,-5.3518,-5.3518,-5.3518,-5.3518,-5.3315,-5.2706,-5.2063,-5.1471,-5.0848,-5.019,-4.9289,-4.9018,-4.9018,-4.9018,-4.9018,-4.9018,-4.9001,-4.8798,-4.8308,-4.7445,-4.7073,-4.6921,-4.5551,-4.5128,-4.5314,-4.484,-4.457,-4.457,-4.457,-4.457,-4.4553,-4.4502,-4.4096,-4.32,-4.2286,-4.1474,-4.1119,-4.0832,-4.0713,-4.0578,-4.0476,-4.0273,-4.0172,-4.0172,-4.0155,-4.0138,-4.0155,-4.0138,-4.0155,-4.0087,-4.0087,-4.0087,-4.0087,-4.0087,-4.0087,-4.0087,-4.0087,-4.0087,-4.0087,-4.0087,-4.0087,-4.0121,-4.0546,-4.1013,-4.1402,-4.1835,-4.2284,-4.2752,-4.316,-4.3375,-4.3479,-4.3479,-4.3479,-4.3479,-4.3479,-4.3479,-4.3479,-4.3479,-4.3351,-4.2892,-4.2304,-4.1699,-4.1093,-4.0414,-3.9643,-3.8891,-3.8762,-3.8817,-4.5648,-4.6352,-4.6995,-4.7279,-4.7309,-4.7309,-4.7309,-4.7309,-4.7309,-4.7294,-4.7467,-4.8527,-4.9135,-4.9215,-5.0087,-5.0643,-5.0643,-5.0474,-5.1005,-5.1541,-5.1377,-5.2241,-5.287,-5.3264,-5.328,-5.3433,-5.3518,-5.3518,-5.3518,-5.3518,-5.3518,-5.3331,-5.2689,-5.2046,-5.142,-5.0612,-4.9886,-4.9255,-4.9018,-4.9018,-4.9018,-4.9018,-4.9018,-4.9018,-4.89,-4.8257,-4.7665,-4.753,-4.6718,-4.5855,-4.5415,-4.5196,-4.4908,-4.4604,-4.457,-4.457,-4.457,-4.457,-4.4502,-4.4028,-4.3792,-4.3267,-4.3284,-4.2946,-4.2219,-4.1474,-4.1288,-4.1001,-4.0764,-4.0493,-4.0324,-4.029,-4.0273,-4.0273,-4.0257,-4.0206,-4.0104,-4.0087,-4.0087,-4.0087,-4.0087,-4.0087,-4.0087,-4.0087,-4.0087,-4.0087,-4.0087,-4.0087,-4.0221,-4.0563,-4.1076,-4.1639,-4.2062,-4.2505,-4.294,-4.3356,-4.3444,-4.3479,-4.3479,-4.3479,-4.3479,-4.3479,-4.3479,-4.3479,-4.3479,-4.3314,-4.302,-4.258,-4.2029,-4.1442,-4.0946,-4.0396,-3.968,-3.9129,-3.9056,-4.4975,-4.5648,-4.6322,-4.686,-4.7264,-4.7309,-4.7309,-4.7309,-4.7309,-4.7309,-4.7381,-4.8377,-4.8677,-4.8907,-4.9947,-5.0242,-5.0087,-4.9852,-5.0087,-5.0304,-5.0304,-5.1064,-5.1776,-5.247,-5.2784,-5.3264,-5.3433,-5.3518,-5.3518,-5.3518,-5.3518,-5.3382,-5.2689,-5.2181,-5.1555,-5.0727,-4.9847,-4.9221,-4.9018,-4.9018,-4.9018,-4.9018,-4.9018,-4.9018,-4.9018,-4.8359,-4.7936,-4.8223,-4.7513,-4.6549,-4.6363,-4.6109,-4.5449,-4.4908,-4.457,-4.457,-4.457,-4.457,-4.4536,-4.4367,-4.4198,-4.4147,-4.4164,-4.3436,-4.2692,-4.2185,-4.2016,-4.1745,-4.1339,-4.1052,-4.1052,-4.1035,-4.0849,-4.0696,-4.0629,-4.0476,-4.0341,-4.0087,-4.0087,-4.0087,-4.0087,-4.0087,-4.0087,-4.0087,-4.0087,-4.0087,-4.0087,-4.0087,-4.0254,-4.0594,-4.1076,-4.1682,-4.2324,-4.279,-4.3069,-4.3479,-4.3479,-4.3479,-4.3479,-4.3479,-4.3479,-4.3479,-4.3479,-4.3479,-4.3479,-4.3442,-4.3314,-4.2855,-4.2396,-4.1992,-4.1534,-4.102,-4.0506,-3.9992,-3.9606,-4.4541,-4.499,-4.5633,-4.6307,-4.686,-4.6905,-4.7055,-4.7264,-4.7309,-4.7309,-4.7396,-4.7919,-4.821,-4.821,-4.8774,-4.9019,-4.9019,-4.8543,-4.8759,-4.9376,-4.9054,-5.0071,-5.0914,-5.1687,-5.2241,-5.28,-5.328,-5.3518,-5.3433,-5.3501,-5.3518,-5.3433,-5.2689,-5.2215,-5.1572,-5.0659,-4.9763,-4.9255,-4.9018,-4.9018,-4.9018,-4.9018,-4.9018,-4.9018,-4.9018,-4.8595,-4.8156,-4.8663,-4.8173,-4.7158,-4.6972,-4.6701,-4.5855,-4.501,-4.4587,-4.457,-4.457,-4.457,-4.4553,-4.4553,-4.4553,-4.457,-4.4553,-4.413,-4.3538,-4.3047,-4.2861,-4.2625,-4.21,-4.1728,-4.1847,-4.1897,-4.1542,-4.1204,-4.1018,-4.0832,-4.0493,-4.0138,-4.0087,-4.0087,-4.0087,-4.0087,-4.0087,-4.0087,-4.0087,-4.0087,-4.0087,-4.0087,-4.0286,-4.0672,-4.115,-4.1707,-4.2444,-4.305,-4.3339,-4.3479,-4.3479,-4.3479,-4.3479,-4.3479,-4.3479,-4.3479,-4.3479,-4.3479,-4.3479,-4.3442,-4.3406,-4.3204,-4.2818,-4.2488,-4.2341,-4.2176,-4.1662,-4.0983,-4.0671,-4.4272,-4.4392,-4.5035,-4.5693,-4.6202,-4.6232,-4.6546,-4.7115,-4.7025,-4.7204,-4.7264,-4.7309,-4.7381,-4.7538,-4.7779,-4.7694,-4.7779,-4.7609,-4.7904,-4.8661,-4.8527,-4.915,-5.0149,-5.1155,-5.1541,-5.2082,-5.2487,-5.2731,-5.3195,-5.3195,-5.3179,-5.3366,-5.2875,-5.23,-5.1606,-5.0828,-5.0033,-4.9424,-4.912,-4.9018,-4.9018,-4.9018,-4.9018,-4.9018,-4.8934,-4.8748,-4.8392,-4.8359,-4.8409,-4.7716,-4.7124,-4.6955,-4.5788,-4.4993,-4.4654,-4.457,-4.457,-4.457,-4.457,-4.457,-4.457,-4.457,-4.4553,-4.4451,-4.4062,-4.3758,-4.3572,-4.3369,-4.2895,-4.2743,-4.2811,-4.2574,-4.2236,-4.1813,-4.1508,-4.0984,-4.0341,-4.0104,-4.0087,-4.0087,-4.0087,-4.0087,-4.0087,-4.0087,-4.0087,-4.0087,-4.0087,-4.0087,-4.0385,-4.075,-4.1223,-4.1793,-4.26,-4.3214,-4.3375,-4.3479,-4.3479,-4.3479,-4.3479,-4.3479,-4.3479,-4.3479,-4.3479,-4.3479,-4.3479,-4.3479,-4.3424,-4.3277,-4.3222,-4.3185,-4.313,-4.3332,-4.2855,-4.1956,-4.1534,-4.3868,-4.4377,-4.502,-4.5409,-4.5544,-4.5544,-4.5633,-4.5783,-4.5783,-4.6367,-4.7145,-4.7279,-4.7309,-4.7309,-4.7309,-4.7309,-4.7309,-4.7309,-4.7452,-4.7679,-4.7764,-4.8293,-4.9069,-4.9679,-5.0458,-5.1303,-5.1704,-5.1704,-5.217,-5.24,-5.2784,-5.3332,-5.3112,-5.2689,-5.1843,-5.1116,-5.0456,-4.9576,-4.9204,-4.9018,-4.9018,-4.9018,-4.9018,-4.9018,-4.8951,-4.8951,-4.8748,-4.8781,-4.8832,-4.8528,-4.7428,-4.6346,-4.4942,-4.4705,-4.4587,-4.457,-4.457,-4.457,-4.457,-4.457,-4.457,-4.457,-4.457,-4.457,-4.4485,-4.4367,-4.4215,-4.3995,-4.3842,-4.3741,-4.3606,-4.3267,-4.2895,-4.2439,-4.1999,-4.1153,-4.0324,-4.0223,-4.0172,-4.0087,-4.0087,-4.0121,-4.0121,-4.0087,-4.0087,-4.0087,-4.0087,-4.0171,-4.0466,-4.0844,-4.1375,-4.1961,-4.2829,-4.3356,-4.3444,-4.3479,-4.3479,-4.3479,-4.3479,-4.3479,-4.3479,-4.3479,-4.3479,-4.3479,-4.3479,-4.3479,-4.3479,-4.3461,-4.3442,-4.3479,-4.3479,-4.3479,-4.3296,-4.2561,-4.2268,-4.3539,-4.3913,-4.4272,-4.4601,-4.4825,-4.4855,-4.5005,-4.5259,-4.5289,-4.5693,-4.6411,-4.6726,-4.701,-4.7249,-4.7309,-4.7309,-4.7309,-4.7309,-4.7396,-4.7309,-4.7396,-4.7609,-4.8057,-4.8594,-4.928,-5.0227,-5.055,-5.0871,-5.1229,-5.1849,-5.2383,-5.2853,-5.3026,-5.2942,-5.1995,-5.1319,-5.0642,-4.961,-4.9187,-4.9052,-4.9018,-4.9018,-4.9018,-4.9018,-4.9018,-4.9018,-4.9018,-4.9018,-4.9001,-4.8612,-4.7597,-4.6464,-4.5365,-4.4823,-4.4604,-4.457,-4.457,-4.457,-4.457,-4.457,-4.457,-4.457,-4.457,-4.457,-4.457,-4.4451,-4.4451,-4.4282,-4.4248,-4.4164,-4.4181,-4.3944,-4.3504,-4.3047,-4.2709,-4.2134,-4.1474,-4.1102,-4.0663,-4.0087,-4.0189,-4.0443,-4.0358,-4.0087,-4.0087,-4.0087,-4.0087,-4.0087,-4.0417,-4.0891,-4.1464,-4.2021,-4.281,-4.3356,-4.3479,-4.3479,-4.3479,-4.3479,-4.3444,-4.3479,-4.3479,-4.3479,-4.3479,-4.3479,-4.3479,-4.3479,-4.3479,-4.3479,-4.3479,-4.3479,-4.3479,-4.3479,-4.3259,-4.3094,-4.2855,-4.3344,-4.3344,-4.3359,-4.3658,-4.4137,-4.4182,-4.4481,-4.493,-4.502,-4.508,-4.5274,-4.5813,-4.6471,-4.6995,-4.7309,-4.7309,-4.7309,-4.7309,-4.7309,-4.7309,-4.7309,-4.7467,-4.7679,-4.8141,-4.8527,-4.9069,-4.9551,-4.9852,-5.0242,-5.1005,-5.1614,-5.1993,-5.233,-5.2638,-5.1623,-5.0947,-5.0388,-4.9475,-4.9018,-4.9018,-4.9018,-4.9018,-4.9018,-4.9018,-4.9018,-4.9018,-4.9018,-4.9018,-4.9018,-4.8443,-4.7614,-4.638,-4.55,-4.4823,-4.4671,-4.457,-4.457,-4.457,-4.457,-4.457,-4.457,-4.457,-4.457,-4.457,-4.457,-4.457,-4.457,-4.4553,-4.4519,-4.4519,-4.4536,-4.4451,-4.4012,-4.3504,-4.32,-4.2878,-4.232,-4.1847,-4.117,-4.0392,-4.0476,-4.0747,-4.0409,-4.0138,-4.0087,-4.0087,-4.0087,-4.0087,-4.0254,-4.0797,-4.1358,-4.1937,-4.2619,-4.3032,-4.3391,-4.3321,-4.3286,-4.325,-4.316,-4.3321,-4.3479,-4.3479,-4.3479,-4.3479,-4.3479,-4.3479,-4.3479,-4.3479,-4.3479,-4.3479,-4.3479,-4.3461,-4.3351,-4.3222,-4.3277,-4.3344,-4.3344,-4.3344,-4.3434,-4.3539,-4.3539,-4.3599,-4.3703,-4.3763,-4.3973,-4.4466,-4.4676,-4.5304,-4.6531,-4.71,-4.7249,-4.7145,-4.7189,-4.7264,-4.7309,-4.716,-4.7219,-4.7306,-4.7498,-4.7578,-4.7943,-4.8517,-4.8957,-4.9233,-5.0117,-5.1122,-5.1767,-5.2031,-5.1965,-5.1319,-5.0595,-4.9856,-4.9176,-4.9018,-4.9018,-4.9018,-4.9018,-4.9018,-4.9018,-4.9018,-4.9018,-4.9018,-4.9018,-4.9018,-4.8562,-4.7597,-4.6261,-4.5314,-4.4739,-4.4621,-4.457,-4.457,-4.457,-4.457,-4.457,-4.457,-4.457,-4.457,-4.457,-4.457,-4.457,-4.457,-4.457,-4.4553,-4.4553,-4.4553,-4.4553,-4.4231,-4.3623,-4.3183,-4.2844,-4.2388,-4.2236,-4.1914,-4.1339,-4.1018,-4.0781,-4.0223,-4.0087,-4.0087,-4.0087,-4.0087,-4.0121,-4.0171,-4.072,-4.1268,-4.1793,-4.2364,-4.2958,-4.3375,-4.3014,-4.2939,-4.2902,-4.2976,-4.316,-4.3321,-4.3479,-4.3479,-4.3479,-4.3479,-4.3479,-4.3479,-4.3479,-4.3479,-4.3479,-4.3479,-4.3461,-4.3351,-4.3261,-4.3191]}]]